[[[{"header":{"parameterUnit":"kt","parameterCategory":2,"dx":1,"dy":1,"la1":29.587661999999998,"la2":31.0,"lo1":-88.76705300000003,"lo2":-86.6583820000003,"nx":115,"ny":88,"refTime":"2022-09-23T06:00:00:Z","depth":0,"parameterNumber":1,"parameterNumberName":"U-component_of_WINDS"},"data":[20.7139,20.6071,20.6071,20.6071,20.6087,20.6087,20.6679,20.7665,20.7747,20.7813,20.755,20.7747,20.7813,20.7747,20.7813,20.7616,20.7089,20.7287,20.7681,20.7813,20.7221,20.7484,20.7484,20.6908,20.6892,20.6481,20.5955,20.5445,20.5314,20.487,20.5001,20.6037,20.6071,20.6597,20.7665,20.7681,20.755,20.755,20.7484,20.7484,20.7484,20.755,20.7813,20.7813,20.7813,20.7813,20.7813,20.7813,20.7813,20.7813,20.7879,20.7879,20.8142,20.8339,20.8865,20.9375,20.9555,21.0032,21.0378,21.0657,21.0592,21.0575,21.0246,20.9555,20.9309,20.8668,20.8536,20.8142,20.8076,20.7928,20.7928,20.7813,20.7813,20.7994,20.806,20.8849,20.9292,20.9128,20.8931,20.9588,21.0476,21.1282,21.1956,21.2877,21.3912,21.4898,21.5556,21.6148,21.6279,21.6428,21.6542,21.6362,21.6099,21.6296,21.6494,21.6428,21.6231,21.6428,21.6494,21.6082,21.5951,21.6148,21.5705,21.4981,21.5244,21.5705,21.5753,21.5359,21.5622,21.5753,21.6016,21.6016,21.5951,21.5622,21.4915,20.7681,20.755,20.755,20.7484,20.7468,20.7484,20.7616,20.7747,20.7813,20.7813,20.7813,20.7813,20.7813,20.7813,20.7813,20.7813,20.7813,20.7813,20.7813,20.7813,20.7813,20.7813,20.7813,20.7813,20.7616,20.7418,20.7287,20.7024,20.6679,20.6761,20.6761,20.7353,20.7616,20.7599,20.7747,20.7813,20.7813,20.7813,20.7813,20.7813,20.7813,20.7813,20.7813,20.7813,20.7813,20.7813,20.7813,20.7813,20.7813,20.7813,20.7813,20.7813,20.7813,20.7813,20.8207,20.8207,20.8438,20.852,20.875,20.8997,20.8799,20.8602,20.8207,20.8142,20.8125,20.801,20.801,20.7879,20.7879,20.7813,20.7813,20.7813,20.7813,20.7879,20.7862,20.8125,20.8142,20.8076,20.8076,20.8076,20.9046,21.0016,21.0821,21.1693,21.2794,21.4044,21.4898,21.549,21.5819,21.5376,21.5244,21.5178,21.4915,21.5573,21.6231,21.6033,21.5639,21.5705,21.5244,21.5227,21.5096,21.4389,21.3814,21.3534,21.3666,21.3929,21.4126,21.4323,21.4438,21.4553,21.4438,21.406,21.4192,21.4258,21.3534,20.7813,20.7813,20.7813,20.7813,20.7813,20.7813,20.7813,20.7813,20.7813,20.7813,20.7813,20.7813,20.7813,20.7813,20.7813,20.7813,20.7813,20.7813,20.7813,20.7813,20.7813,20.7813,20.7813,20.7813,20.7813,20.7813,20.7813,20.7813,20.7616,20.7813,20.7813,20.7747,20.7747,20.7747,20.7813,20.7813,20.7813,20.7813,20.7813,20.7813,20.7813,20.7813,20.7813,20.7813,20.7813,20.7813,20.7813,20.7813,20.7813,20.7813,20.7813,20.7813,20.7813,20.7813,20.7813,20.7813,20.7813,20.7813,20.7879,20.801,20.801,20.8076,20.7879,20.7879,20.7813,20.7813,20.7813,20.7813,20.7813,20.7813,20.7813,20.7813,20.7813,20.7813,20.7813,20.7813,20.7813,20.7813,20.7813,20.7813,20.8191,20.9029,20.9424,21.023,21.1084,21.2251,21.3074,21.3683,21.3732,21.36,21.3732,21.3732,21.342,21.3814,21.4603,21.4735,21.4718,21.4323,21.3863,21.3732,21.3452,21.263,21.2187,21.2499,21.2696,21.2614,21.2696,21.3025,21.3205,21.3106,21.2728,21.2219,21.263,21.2893,21.1644,20.7813,20.7813,20.7813,20.7813,20.7813,20.7813,20.7813,20.7813,20.7813,20.7813,20.7813,20.7813,20.7813,20.7813,20.7813,20.7813,20.7813,20.7813,20.7813,20.7813,20.7813,20.7813,20.7813,20.7813,20.7813,20.7813,20.7813,20.7813,20.7813,20.7813,20.7813,20.7813,20.7813,20.7813,20.7813,20.7813,20.7813,20.7813,20.7813,20.7813,20.7813,20.7813,20.7813,20.7813,20.7813,20.7813,20.7813,20.7813,20.7813,20.7813,20.7813,20.7813,20.7813,20.7813,20.7813,20.7813,20.7813,20.7813,20.7813,20.7813,20.7813,20.7813,20.7813,20.7813,20.7813,20.7813,20.7813,20.7813,20.7813,20.7813,20.7813,20.7813,20.7813,20.7813,20.7813,20.7813,20.7813,20.7813,20.7813,20.7813,20.7813,20.7994,20.8125,20.8701,20.9424,21.0279,21.1298,21.1907,21.2104,21.1693,21.1824,21.1939,21.1693,21.1973,21.2516,21.2893,21.3222,21.2959,21.2828,21.2351,21.1824,21.1298,21.0887,21.1364,21.1447,21.1052,21.0904,21.1447,21.1644,21.1545,21.1216,21.0756,21.097,21.1035,20.9654,20.7813,20.7813,20.7813,20.7813,20.7813,20.7813,20.7813,20.7813,20.7813,20.7813,20.7813,20.7813,20.7813,20.7813,20.7813,20.7813,20.7813,20.7813,20.7813,20.7813,20.7813,20.7813,20.7813,20.7813,20.7813,20.7813,20.7813,20.7813,20.7813,20.7813,20.7813,20.7813,20.7813,20.7813,20.7813,20.7813,20.7813,20.7813,20.7813,20.7813,20.7813,20.7813,20.7813,20.7813,20.7813,20.7813,20.7813,20.7813,20.7813,20.7813,20.7813,20.7813,20.7813,20.7813,20.7813,20.7813,20.7813,20.7813,20.7813,20.7813,20.7813,20.7813,20.7813,20.7813,20.7813,20.7813,20.7813,20.7813,20.7813,20.7813,20.7813,20.7813,20.7813,20.7813,20.7813,20.7813,20.7813,20.7813,20.7813,20.7813,20.7813,20.7813,20.7928,20.7994,20.8766,20.9473,21.0279,21.0772,21.0575,20.972,20.9852,21.0082,21.0164,21.0443,21.0838,21.1118,21.1512,21.1858,21.1907,21.1447,21.0427,20.995,20.967,20.9753,20.9852,20.9391,20.9325,20.9786,21.0098,21.0032,20.9769,20.9292,20.9029,20.898,20.8257,20.7813,20.7813,20.7813,20.7813,20.7813,20.7813,20.7813,20.7813,20.7813,20.7813,20.7813,20.7813,20.7813,20.7813,20.7813,20.7813,20.7813,20.7813,20.7813,20.7813,20.7813,20.7813,20.7813,20.7813,20.7813,20.7813,20.7813,20.7813,20.7813,20.7813,20.7813,20.7813,20.7813,20.7813,20.7813,20.7813,20.7813,20.7813,20.7813,20.7813,20.7813,20.7813,20.7813,20.7813,20.7813,20.7813,20.7813,20.7813,20.7813,20.7813,20.7813,20.7813,20.7813,20.7813,20.7813,20.7813,20.7813,20.7813,20.7813,20.7813,20.7813,20.7813,20.7813,20.7813,20.7813,20.7813,20.7813,20.7813,20.7813,20.7813,20.7813,20.7813,20.7813,20.7813,20.7813,20.7813,20.7813,20.7813,20.7813,20.7813,20.7813,20.7813,20.7813,20.7813,20.8125,20.8635,20.9112,20.9523,20.9062,20.8536,20.8717,20.8898,20.898,20.9112,20.8914,20.9194,20.9473,20.9737,21.0131,20.9983,20.9046,20.8569,20.8701,20.8586,20.8388,20.8388,20.847,20.8717,20.8914,20.8602,20.847,20.8388,20.8323,20.806,20.7994,20.7813,20.7813,20.7813,20.7813,20.7813,20.7813,20.7813,20.7813,20.7813,20.7813,20.7813,20.7813,20.7813,20.7813,20.7813,20.7813,20.7813,20.7813,20.7813,20.7813,20.7813,20.7813,20.7813,20.7813,20.7813,20.7813,20.7813,20.7813,20.7813,20.7813,20.7813,20.7813,20.7813,20.7813,20.7813,20.7813,20.7813,20.7813,20.7813,20.7813,20.7813,20.7813,20.7813,20.7813,20.7813,20.7813,20.7813,20.7813,20.7813,20.7813,20.7813,20.7813,20.7813,20.7813,20.7813,20.7813,20.7813,20.7813,20.7813,20.7813,20.7813,20.7813,20.7813,20.7813,20.7813,20.7813,20.7813,20.7813,20.7813,20.7813,20.7813,20.7813,20.7813,20.7813,20.7813,20.7813,20.7813,20.7813,20.7813,20.7813,20.7813,20.7813,20.7813,20.7813,20.7813,20.7813,20.7944,20.8076,20.7944,20.801,20.8125,20.8191,20.8273,20.8388,20.8142,20.8207,20.7944,20.7813,20.8207,20.8339,20.806,20.806,20.7879,20.7862,20.806,20.7928,20.7813,20.7944,20.8257,20.7879,20.7879,20.7813,20.7813,20.7862,20.7813,20.7813,20.7813,20.7813,20.7813,20.7813,20.7813,20.7813,20.7813,20.7813,20.7813,20.7813,20.7813,20.7813,20.7813,20.7813,20.7813,20.7813,20.7813,20.7813,20.7813,20.7813,20.7813,20.7813,20.7813,20.7813,20.7813,20.7813,20.7813,20.7813,20.7813,20.7813,20.7813,20.7813,20.7813,20.7813,20.7813,20.7813,20.7813,20.7813,20.7813,20.7813,20.7813,20.7813,20.7813,20.7813,20.7813,20.7813,20.7813,20.7813,20.7813,20.7813,20.7813,20.7813,20.7813,20.7813,20.7813,20.7813,20.7813,20.7813,20.7813,20.7813,20.7813,20.7813,20.7813,20.7813,20.7813,20.7813,20.7813,20.7813,20.7813,20.7813,20.7813,20.7813,20.7813,20.7813,20.7813,20.7813,20.7813,20.7813,20.7813,20.7813,20.7813,20.7813,20.7813,20.7813,20.7813,20.7813,20.7813,20.7813,20.7813,20.7813,20.7813,20.7813,20.7813,20.7813,20.7944,20.7813,20.7813,20.7813,20.7813,20.7813,20.7813,20.7813,20.7813,20.7813,20.7813,20.7813,20.7813,20.7813,20.7813,20.7813,20.7813,20.7813,20.7813,20.7813,20.7813,20.7813,20.7813,20.7813,20.7813,20.7813,20.7813,20.7813,20.7813,20.7813,20.7813,20.7813,20.7813,20.7813,20.7813,20.7813,20.7813,20.7813,20.7813,20.7813,20.7813,20.7813,20.7813,20.7813,20.7813,20.7813,20.7813,20.7813,20.7813,20.7813,20.7813,20.7813,20.7813,20.7813,20.7813,20.7813,20.7813,20.7813,20.7813,20.7813,20.7813,20.7813,20.7813,20.7813,20.7813,20.7813,20.7813,20.7813,20.7813,20.7813,20.7813,20.7813,20.7813,20.7813,20.7813,20.7813,20.7813,20.7813,20.7813,20.7813,20.7813,20.7813,20.7813,20.7813,20.7813,20.7813,20.7813,20.7813,20.7813,20.7813,20.7813,20.7813,20.7813,20.7813,20.7813,20.7813,20.7813,20.7813,20.7813,20.7813,20.7813,20.7813,20.7813,20.7813,20.7813,20.7813,20.7813,20.7813,20.7813,20.7813,20.7813,20.7813,20.7813,20.7813,20.7813,20.7813,20.7813,20.7813,20.7813,20.7813,20.7813,20.7813,20.7813,20.7813,20.7813,20.7813,20.7813,20.7813,20.7813,20.7813,20.7813,20.7813,20.7813,20.7813,20.7813,20.7813,20.7813,20.7813,20.7813,20.7813,20.7813,20.7813,20.7813,20.7813,20.7813,20.7813,20.7813,20.7813,20.7813,20.7813,20.7813,20.7813,20.7813,20.7813,20.7813,20.7813,20.7813,20.7813,20.7813,20.7813,20.7813,20.7813,20.7813,20.7813,20.7813,20.7813,20.7813,20.7813,20.7813,20.7813,20.7813,20.7813,20.7813,20.7813,20.7813,20.7813,20.7813,20.7813,20.7813,20.7813,20.7813,20.7813,20.7813,20.7813,20.7813,20.7813,20.7813,20.7813,20.7813,20.7813,20.7813,20.7813,20.7813,20.7813,20.7813,20.7813,20.7813,20.7813,20.7813,20.7813,20.7813,20.7813,20.7813,20.7813,20.7813,20.7813,20.7813,20.7813,20.7813,20.7813,20.7813,20.7813,20.7813,20.7813,20.7813,20.7813,20.7813,20.7813,20.7813,20.7813,20.7813,20.7813,20.7813,20.7813,20.7813,20.7813,20.7813,20.7813,20.7813,20.7813,20.7813,20.7813,20.7813,20.7813,20.7813,20.7813,20.7813,20.7813,20.7813,20.7813,20.7813,20.7813,20.7813,20.7813,20.7813,20.7813,20.7813,20.7813,20.7813,20.7813,20.7681,20.7813,20.7813,20.7747,20.7599,20.7681,20.7616,20.755,20.755,20.7665,20.7813,20.7813,20.7813,20.7813,20.7813,20.7813,20.7813,20.7813,20.7813,20.7813,20.7813,20.7813,20.7813,20.7813,20.7813,20.7813,20.7813,20.7813,20.7813,20.7813,20.7813,20.7813,20.7813,20.7813,20.7813,20.7813,20.7813,20.7813,20.7813,20.7813,20.7813,20.7813,20.7813,20.7813,20.7813,20.7813,20.7813,20.7813,20.7813,20.7813,20.7813,20.7813,20.7813,20.7813,20.7813,20.7813,20.7813,20.7813,20.7813,20.7813,20.7813,20.7813,20.7813,20.7813,20.7813,20.7813,20.7813,20.7813,20.7813,20.7813,20.7813,20.7813,20.7813,20.7813,20.7813,20.7813,20.7813,20.7813,20.7813,20.7813,20.7813,20.7813,20.7813,20.7813,20.7813,20.7813,20.7813,20.7813,20.7813,20.7813,20.7813,20.7813,20.7813,20.7813,20.7813,20.7813,20.7813,20.7813,20.7813,20.7813,20.7813,20.7813,20.7813,20.7813,20.7813,20.7813,20.7813,20.7813,20.7813,20.7813,20.7813,20.7813,20.7813,20.7813,20.7813,20.6284,20.6416,20.7402,20.7205,20.6218,20.5182,20.5396,20.6153,20.6284,20.681,20.7813,20.7813,20.7813,20.7813,20.7813,20.7813,20.7813,20.7813,20.7813,20.7813,20.7813,20.7813,20.7813,20.7813,20.7813,20.7813,20.7813,20.7813,20.7813,20.7813,20.7813,20.7813,20.7813,20.7813,20.7813,20.7813,20.7813,20.7813,20.7813,20.7813,20.7813,20.7813,20.7813,20.7813,20.7813,20.7813,20.7813,20.7813,20.7813,20.7813,20.7813,20.7813,20.7813,20.7813,20.7813,20.7813,20.7813,20.7813,20.7813,20.7813,20.7813,20.7813,20.7813,20.7813,20.7813,20.7813,20.7813,20.7813,20.7813,20.7813,20.7813,20.7813,20.7813,20.7813,20.7813,20.7813,20.7813,20.7813,20.7813,20.7813,20.7813,20.7813,20.7813,20.7813,20.7813,20.7813,20.7813,20.7813,20.7813,20.7813,20.7813,20.7813,20.7813,20.7813,20.7813,20.7813,20.7813,20.7813,20.7813,20.7813,20.7813,20.7813,20.7813,20.7813,20.7813,20.7813,20.7813,20.7813,20.7813,20.7813,20.7813,20.7813,20.7813,20.7813,20.7813,20.5166,20.5692,20.5971,20.5643,20.4772,20.3867,20.4343,20.5413,20.51,20.5906,20.7813,20.7813,20.7813,20.7813,20.7813,20.7813,20.7813,20.7813,20.7813,20.7813,20.7813,20.7813,20.7813,20.7813,20.7813,20.7813,20.7813,20.7813,20.7813,20.7813,20.7813,20.7813,20.7813,20.7813,20.7813,20.7813,20.7813,20.7813,20.7813,20.7813,20.7813,20.7813,20.7813,20.7813,20.7813,20.7813,20.7813,20.7813,20.7813,20.7813,20.7813,20.7813,20.7813,20.7813,20.7813,20.7813,20.7813,20.7813,20.7813,20.7813,20.7813,20.7813,20.7813,20.7813,20.7813,20.7813,20.7813,20.7813,20.7813,20.7813,20.7813,20.7813,20.7813,20.7813,20.7813,20.7813,20.7813,20.7813,20.7813,20.7813,20.7813,20.7813,20.7813,20.7681,20.7616,20.7747,20.7813,20.7813,20.7813,20.7813,20.7813,20.7813,20.7813,20.7813,20.7813,20.7813,20.7813,20.7813,20.7813,20.7813,20.7813,20.7813,20.7813,20.7813,20.7813,20.7813,20.7813,20.7813,20.7813,20.7813,20.7813,20.7813,20.7813,20.7813,20.7813,20.3999,20.5084,20.362,20.316,20.3357,20.3307,20.3933,20.4821,20.3867,20.487,20.6892,20.7533,20.755,20.7747,20.7813,20.7813,20.7813,20.7813,20.7813,20.7813,20.7813,20.7813,20.7813,20.7813,20.7813,20.7813,20.7813,20.7813,20.7813,20.7813,20.7813,20.7813,20.7813,20.7813,20.7813,20.7813,20.7813,20.7813,20.7813,20.7813,20.7813,20.7813,20.7813,20.7813,20.7813,20.7813,20.7813,20.7813,20.7813,20.7813,20.7813,20.7813,20.7813,20.7813,20.7813,20.7813,20.7813,20.7813,20.7813,20.7813,20.7813,20.7813,20.7813,20.7813,20.7813,20.7813,20.7813,20.7813,20.7813,20.7813,20.7813,20.7813,20.7813,20.7813,20.7813,20.7813,20.7813,20.7813,20.7665,20.7813,20.7813,20.7813,20.7813,20.6695,20.6448,20.6876,20.7007,20.7007,20.7139,20.7139,20.727,20.7616,20.7681,20.7747,20.7747,20.7813,20.7813,20.7813,20.7813,20.7813,20.7813,20.7813,20.7813,20.7813,20.7813,20.7813,20.7813,20.7813,20.7813,20.7813,20.7813,20.7813,20.7813,20.7813,20.7813,20.0497,20.0679,19.9279,19.9987,20.1779,20.0776,20.1155,20.2339,20.2091,20.2946,20.4525,20.5692,20.681,20.7616,20.7747,20.7813,20.7813,20.7813,20.7813,20.7813,20.7813,20.7813,20.7813,20.7813,20.7813,20.7813,20.7813,20.7813,20.7813,20.7813,20.7813,20.7813,20.7813,20.7813,20.7813,20.7813,20.7813,20.7813,20.7813,20.7813,20.7813,20.7813,20.7813,20.7813,20.7813,20.7813,20.7813,20.7813,20.7813,20.7813,20.7813,20.7813,20.7813,20.7813,20.7813,20.7813,20.7813,20.7813,20.7813,20.7813,20.7813,20.7813,20.7813,20.7813,20.7813,20.7813,20.7813,20.7813,20.7813,20.7813,20.7813,20.7747,20.7616,20.7484,20.7681,20.7747,20.7813,20.7533,20.7402,20.7155,20.6892,20.7221,20.6563,20.5593,20.5511,20.6005,20.6202,20.6136,20.6071,20.6021,20.6416,20.7155,20.7287,20.7468,20.755,20.7747,20.7813,20.7813,20.7813,20.7813,20.7813,20.7813,20.7813,20.7813,20.7813,20.7813,20.7813,20.7813,20.7813,20.7813,20.7813,20.7813,20.7813,20.7813,20.7813,19.6734,19.7244,19.642,19.7078,19.8393,19.8393,19.9116,20.0234,20.0497,20.1565,20.3357,20.3867,20.4969,20.6679,20.7616,20.7813,20.7813,20.7813,20.7813,20.7813,20.7813,20.7813,20.7813,20.7813,20.7813,20.7813,20.7813,20.7813,20.7813,20.7813,20.7813,20.7813,20.7813,20.7813,20.7813,20.7813,20.7813,20.7813,20.7813,20.7813,20.7813,20.7813,20.7813,20.7813,20.7813,20.7813,20.7813,20.7813,20.7813,20.7813,20.7813,20.7813,20.7813,20.7813,20.7813,20.7813,20.7813,20.7813,20.7813,20.7813,20.7813,20.7813,20.7813,20.7813,20.7813,20.7813,20.7813,20.7813,20.7813,20.7418,20.7024,20.7418,20.7024,20.6761,20.6958,20.6695,20.6235,20.6547,20.6679,20.6235,20.579,20.5527,20.5067,20.4409,20.4327,20.4706,20.4706,20.4722,20.4722,20.4837,20.5577,20.6235,20.6432,20.6826,20.6958,20.7369,20.7287,20.755,20.755,20.7813,20.7813,20.7813,20.7813,20.7813,20.7813,20.7813,20.7813,20.7813,20.7813,20.7813,20.7813,20.7813,20.7813,20.7813,20.7813,19.3198,19.4548,19.4533,19.4599,19.514,19.637,19.7538,19.8575,19.8575,20.0316,20.2107,20.1779,20.2733,20.4969,20.6613,20.7533,20.7731,20.7813,20.7813,20.7813,20.7813,20.7813,20.7813,20.7813,20.7813,20.7813,20.7813,20.7813,20.7813,20.7813,20.7813,20.7813,20.7813,20.7813,20.7813,20.7813,20.7813,20.7813,20.7813,20.7813,20.7813,20.7813,20.7813,20.7813,20.7813,20.7681,20.7336,20.7681,20.755,20.755,20.7616,20.7813,20.7813,20.7813,20.7813,20.7813,20.7813,20.7813,20.7813,20.7813,20.7813,20.7813,20.7813,20.7813,20.7813,20.7813,20.7813,20.7813,20.7484,20.6942,20.635,20.6695,20.5774,20.5462,20.5593,20.5198,20.4672,20.5051,20.5035,20.459,20.3407,20.3209,20.3209,20.316,20.316,20.3225,20.3225,20.3291,20.3357,20.3817,20.4409,20.4343,20.4459,20.5182,20.5527,20.6498,20.6761,20.7221,20.7484,20.7813,20.7813,20.7813,20.7813,20.7747,20.7813,20.7813,20.7813,20.7813,20.7813,20.7813,20.7813,20.7813,20.7813,20.7813,20.7813,19.1736,19.3067,19.3067,19.3709,19.4746,19.514,19.5484,19.56,19.5716,19.6881,19.8424,19.9314,20.0563,20.2536,20.4706,20.6679,20.7813,20.7813,20.7813,20.7813,20.7813,20.7813,20.7813,20.7813,20.7813,20.7813,20.7813,20.7813,20.7813,20.7813,20.7813,20.7813,20.7813,20.7813,20.7813,20.7813,20.7813,20.7813,20.7813,20.7813,20.7813,20.7813,20.7813,20.7813,20.7813,20.7287,20.6679,20.7287,20.7287,20.6958,20.7155,20.7813,20.7813,20.7813,20.7813,20.7813,20.7813,20.7813,20.7813,20.7747,20.7813,20.7813,20.7813,20.7813,20.7813,20.7813,20.7813,20.7533,20.6942,20.5939,20.5495,20.5001,20.4146,20.362,20.3833,20.4162,20.362,20.3488,20.3472,20.2536,20.1089,20.0695,20.0826,20.0826,20.1352,20.1484,20.1828,20.1828,20.1894,20.237,20.2568,20.242,20.2683,20.3472,20.4327,20.5182,20.5906,20.6432,20.6942,20.7468,20.7616,20.7813,20.7616,20.755,20.7616,20.7813,20.7813,20.7813,20.7813,20.7813,20.7813,20.7813,20.7813,20.7813,20.7813,19.0947,19.1539,19.1605,19.2065,19.2773,19.3446,19.3775,19.384,19.4483,19.5206,19.601,19.6799,19.8246,20.0284,20.2076,20.4246,20.635,20.7402,20.7813,20.7813,20.7813,20.7813,20.7813,20.7813,20.7813,20.7813,20.7813,20.7813,20.7813,20.7813,20.7813,20.7813,20.7813,20.7813,20.7813,20.7813,20.7813,20.7813,20.7813,20.7813,20.7813,20.7813,20.7813,20.7813,20.7747,20.7418,20.6876,20.755,20.7353,20.681,20.6679,20.7139,20.7155,20.6695,20.5643,20.5774,20.6284,20.6744,20.6728,20.7468,20.7747,20.7813,20.7813,20.7813,20.7813,20.7813,20.7813,20.7468,20.6531,20.5413,20.4656,20.408,20.2831,20.2091,20.2831,20.2781,20.2042,20.2173,20.1763,20.1089,20.0219,19.9692,19.9298,19.9429,19.9692,19.9956,20.03,20.0366,20.0366,20.0563,20.076,20.0695,20.076,20.1615,20.2552,20.367,20.4672,20.5561,20.6268,20.6942,20.7287,20.7616,20.7616,20.7089,20.7484,20.7813,20.7813,20.7747,20.7813,20.7813,20.7813,20.7813,20.7813,20.7813,20.7813,19.0472,19.0472,19.0472,19.0472,19.075,19.1751,19.2293,19.249,19.3431,19.4154,19.4351,19.4483,19.6076,19.7967,19.8706,20.0745,20.3538,20.5298,20.6235,20.6235,20.7073,20.7205,20.7336,20.755,20.755,20.755,20.7353,20.7484,20.7681,20.7813,20.7813,20.7813,20.7813,20.7813,20.7813,20.7813,20.7813,20.7813,20.7813,20.7813,20.7813,20.7813,20.7813,20.7813,20.7813,20.7353,20.7089,20.7089,20.7221,20.6761,20.5808,20.5692,20.5232,20.3472,20.2831,20.3291,20.4246,20.4969,20.5429,20.6481,20.727,20.7484,20.7616,20.7747,20.7468,20.7599,20.755,20.7139,20.6136,20.4903,20.3357,20.2633,20.15,20.0695,20.1023,20.1713,20.03,20.03,20.0645,20.0037,19.9692,19.9298,19.9298,19.9364,19.9495,19.9627,19.984,19.9774,19.9692,19.9692,19.9692,19.9495,19.9298,20.0103,20.0892,20.2289,20.3423,20.4295,20.4969,20.5643,20.6235,20.6958,20.7089,20.6169,20.6169,20.6892,20.7336,20.7599,20.7665,20.7813,20.7813,20.7813,20.7813,20.7813,20.7813,19.0472,19.0472,19.0472,19.0472,19.0553,19.075,19.0882,19.0882,19.1064,19.2065,19.2804,19.2935,19.3906,19.555,19.683,19.7635,19.9264,20.1237,20.3341,20.3538,20.5166,20.589,20.6218,20.6761,20.6892,20.6021,20.5955,20.6629,20.7287,20.7813,20.755,20.7731,20.7747,20.7813,20.7813,20.7813,20.7813,20.7813,20.7813,20.7813,20.7813,20.7813,20.7813,20.7813,20.7681,20.6695,20.5445,20.5314,20.4985,20.2618,20.3341,20.2552,20.0892,19.9132,19.8966,20.15,20.1747,20.242,20.3341,20.4772,20.5676,20.6021,20.6892,20.7024,20.6498,20.6613,20.6761,20.6218,20.5545,20.4443,20.2026,20.1023,19.9971,19.9561,19.9495,19.9692,19.9348,19.9364,19.9627,19.9298,19.9298,19.9298,19.9298,19.9298,19.9298,19.9298,19.9298,19.9298,19.9364,19.9364,19.9429,19.9298,19.9298,19.989,20.0103,20.1155,20.1828,20.2602,20.3209,20.3752,20.4278,20.4854,20.5182,20.4656,20.4788,20.5511,20.6087,20.6432,20.6958,20.7747,20.7747,20.7616,20.7681,20.7813,20.7813,19.0472,19.0472,19.0472,19.0472,19.0472,19.0472,19.0472,19.0472,19.0472,19.0897,19.1423,19.1488,19.2328,19.3709,19.5156,19.6881,19.8393,20.0447,20.1697,20.2552,20.3604,20.4525,20.4788,20.5133,20.5264,20.4722,20.4509,20.4788,20.5577,20.6169,20.6695,20.6679,20.7418,20.7533,20.7813,20.7813,20.7747,20.7747,20.7813,20.7813,20.7813,20.7813,20.7813,20.7731,20.6942,20.6218,20.4574,20.4656,20.3275,20.1549,19.9774,19.8114,19.6915,19.6339,19.6552,19.7867,19.854,19.9542,20.0184,20.1352,20.2323,20.2207,20.3522,20.3719,20.3917,20.4722,20.5001,20.4722,20.4262,20.3736,20.1615,20.0103,19.9364,19.9298,19.9298,19.9298,19.9298,19.9298,19.9298,19.9298,19.9298,19.9298,19.9298,19.9298,19.9298,19.9298,19.9298,19.9298,19.9298,19.9298,19.9298,19.9298,19.9298,19.9298,19.9429,19.9906,20.071,20.1237,20.1894,20.2223,20.2699,20.3012,20.3193,20.3407,20.3554,20.4196,20.459,20.4935,20.5396,20.6103,20.6744,20.7155,20.7336,20.7402,20.7468,19.0472,19.0472,19.0472,19.0472,19.0472,19.0472,19.0472,19.0472,19.0472,19.0553,19.0538,19.0538,19.121,19.2212,19.3314,19.5074,19.6799,19.7883,19.979,20.1187,20.191,20.2502,20.2107,20.2502,20.2749,20.3078,20.3094,20.3291,20.3752,20.4788,20.5216,20.5314,20.6037,20.6826,20.6826,20.6826,20.7336,20.7336,20.7681,20.7616,20.7353,20.7221,20.7007,20.6563,20.5708,20.4969,20.4229,20.2946,20.1318,19.9198,19.6471,19.4614,19.4022,19.3825,19.4088,19.4695,19.5647,19.632,19.6896,19.813,19.8838,19.9248,20.0447,20.0842,20.071,20.1763,20.237,20.2189,20.2436,20.196,20.0826,19.9824,19.9364,19.9298,19.9298,19.9298,19.9298,19.9298,19.9298,19.9298,19.9298,19.9298,19.9298,19.9298,19.9298,19.9298,19.9298,19.9298,19.9298,19.9298,19.9298,19.9298,19.9298,19.9298,19.9364,19.9561,20.0037,20.0497,20.0695,20.0958,20.1434,20.1697,20.1418,20.1615,20.2173,20.2633,20.3078,20.3423,20.4162,20.4656,20.5232,20.589,20.6481,20.6942,20.7073,19.0472,19.0472,19.0472,19.0472,19.0472,19.0472,19.0472,19.0472,19.0472,19.0472,19.0472,19.0472,19.0669,19.075,19.1539,19.1342,19.1802,19.3051,19.3542,19.55,19.7801,19.9182,19.8474,19.9395,20.0513,20.15,20.1565,20.2157,20.2946,20.3505,20.3768,20.3883,20.4015,20.408,20.4607,20.538,20.5824,20.6021,20.6826,20.6761,20.6021,20.589,20.5429,20.4607,20.3933,20.2749,20.0695,19.8738,19.6714,19.379,19.3132,19.2328,19.1195,19.1064,19.1605,19.2738,19.3213,19.379,19.4893,19.6107,19.7093,19.7159,19.8327,19.8919,19.808,19.8788,19.9264,19.8359,19.8985,19.9429,19.9166,19.9232,19.8969,19.8969,19.8954,19.9166,19.9298,19.9298,19.9298,19.9298,19.9166,19.9232,19.9298,19.9298,19.9232,19.9101,19.9298,19.9298,19.9298,19.9298,19.9298,19.9298,19.9298,19.9298,19.9232,19.9232,19.9561,19.9758,19.989,20.0021,20.0497,20.0366,19.989,19.989,20.0842,20.1434,20.1631,20.2305,20.3176,20.3686,20.3736,20.4525,20.5445,20.5758,20.635,19.0472,19.0472,19.0472,19.0472,19.0472,19.0472,19.0472,19.0472,19.0472,19.0472,19.0472,19.0472,19.0472,19.0604,19.1357,19.1686,19.1883,19.2576,19.3183,19.4154,19.5666,19.6273,19.6289,19.7291,19.8738,20.0037,20.0087,20.0497,20.1089,20.1894,20.2223,20.2355,20.3094,20.3505,20.3423,20.4196,20.4459,20.4525,20.4935,20.5067,20.4459,20.4393,20.3949,20.3554,20.2633,20.1418,19.9232,19.6931,19.4448,19.2131,19.1342,19.1145,19.0553,19.0472,19.075,19.1291,19.1423,19.1605,19.2313,19.2854,19.3279,19.3542,19.4579,19.4923,19.4974,19.5813,19.6521,19.5828,19.6273,19.6587,19.6652,19.6637,19.7062,19.767,19.7113,19.6652,19.6637,19.6799,19.6718,19.6652,19.6718,19.6915,19.7883,19.7948,19.8409,19.8919,19.8969,19.9035,19.9035,19.9298,19.9298,19.9298,19.9298,19.9232,19.9166,19.9232,19.9429,19.9414,19.948,19.9495,19.9692,19.9627,19.9429,19.9495,19.984,20.0184,20.0169,20.0497,20.15,20.2173,20.2255,20.2831,20.3817,20.4409,20.5182,18.9369,18.9369,18.9384,18.9369,18.9384,18.9369,18.9369,18.9369,18.9303,18.9187,18.9318,18.9369,18.9435,18.9976,19.0992,19.1767,19.2015,19.2986,19.3694,19.3613,19.3299,19.3365,19.4432,19.6157,19.7685,19.8672,19.9166,19.9232,19.9364,20.0366,20.0826,20.0892,20.1697,20.2305,20.2552,20.2699,20.2913,20.2962,20.3291,20.3488,20.3094,20.2946,20.2649,20.1976,20.0792,19.9314,19.7407,19.5337,19.297,19.0735,19.0472,19.0472,19.0472,19.0472,19.0538,19.0619,19.0538,19.0538,19.0538,19.0684,19.0604,19.0619,19.1868,19.2095,19.208,19.3117,19.3496,19.3678,19.4088,19.4285,19.4351,19.468,19.5337,19.6092,19.5221,19.4564,19.4877,19.473,19.473,19.473,19.4862,19.5484,19.6157,19.6567,19.6815,19.7523,19.777,19.777,19.7441,19.7573,19.772,19.818,19.8656,19.8838,19.8969,19.9101,19.9101,19.8954,19.8838,19.8772,19.8838,19.8903,19.9035,19.9166,19.9364,19.9642,19.9429,19.9282,19.9758,20.0776,20.0973,20.1368,20.2305,20.3028,20.367,18.6505,18.6425,18.6505,18.6703,18.6688,18.6688,18.682,18.6637,18.6637,18.6769,18.6703,18.6885,18.7346,18.8296,18.8691,18.9399,19.0421,19.075,19.075,19.0421,18.9779,19.0254,19.2343,19.4792,19.6385,19.7356,19.8575,19.9232,19.9298,19.9495,19.9364,19.9511,19.9758,19.9627,20.0103,20.0892,20.15,20.1631,20.2699,20.2552,20.1549,20.1434,20.0397,19.7979,19.7438,19.6107,19.4003,19.2935,19.1883,19.0684,19.0078,19.0078,19.0341,19.0487,19.0224,19.0093,19.0421,19.0224,19.0341,19.0012,19.0158,19.0224,19.0502,19.0619,19.0816,19.113,19.1261,19.1261,19.2146,19.2753,19.3001,19.3643,19.4417,19.4665,19.3577,19.338,19.4417,19.4533,19.4204,19.4402,19.4665,19.4811,19.4811,19.4958,19.5009,19.5337,19.5469,19.56,19.5585,19.5914,19.5995,19.6486,19.7093,19.7407,19.777,19.7902,19.8114,19.7917,19.7801,19.7851,19.8033,19.8246,19.8443,19.864,19.8838,19.9101,19.9232,19.9232,19.9561,19.984,20.0037,20.0234,20.0695,20.1286,20.201,18.6242,18.6242,18.6242,18.6242,18.6242,18.6242,18.6242,18.6242,18.6242,18.6242,18.6162,18.6177,18.6491,18.69,18.7032,18.7346,18.7755,18.7806,18.7791,18.7674,18.7148,18.7492,18.8676,19.0729,19.2768,19.55,19.8049,19.9232,19.9298,19.9298,19.9298,19.9298,19.9298,19.9298,19.9364,19.9774,20.0021,20.0087,20.0563,20.0579,19.9971,19.9198,19.8161,19.7043,19.5267,19.382,19.2687,19.0846,18.9268,18.8135,18.7806,18.7806,18.7806,18.7887,18.7806,18.7806,18.7806,18.7806,18.7806,18.8003,18.8135,18.8939,18.9136,18.945,19.029,19.0472,19.0472,19.0472,19.0947,19.1291,19.1357,19.1853,19.205,19.2131,19.162,19.162,19.1934,19.2116,19.2116,19.2247,19.2182,19.2591,19.3132,19.3461,19.3709,19.4614,19.473,19.473,19.473,19.468,19.5009,19.5337,19.5697,19.6026,19.6455,19.6784,19.6997,19.6749,19.6502,19.6536,19.685,19.7113,19.7113,19.7244,19.7654,19.7867,19.8443,19.8625,19.864,19.9232,19.9429,19.9495,19.9495,19.9956,20.0563,18.4861,18.4861,18.4861,18.4876,18.4861,18.4847,18.4861,18.4861,18.4861,18.4942,18.4861,18.4861,18.511,18.5439,18.557,18.5767,18.6111,18.5256,18.5124,18.5519,18.557,18.5848,18.6425,18.7295,18.9516,19.2788,19.5763,19.7391,19.777,19.8312,19.8838,19.9166,19.9298,19.9298,19.9298,19.9298,19.9298,19.9298,19.9298,19.9298,19.9101,19.7898,19.6896,19.6173,19.4003,19.1883,19.0649,18.8741,18.7309,18.6359,18.6242,18.6242,18.6228,18.6242,18.6242,18.6242,18.6242,18.6242,18.6242,18.6308,18.6769,18.7426,18.7704,18.8215,18.899,18.904,18.9253,18.9779,18.9844,19.0093,19.0356,19.0472,19.0158,18.9253,18.9581,18.9859,19.0042,19.0356,19.0406,19.0472,19.0472,19.0882,19.1686,19.1949,19.2328,19.3102,19.3233,19.3233,19.3299,19.3102,19.3496,19.4022,19.4169,19.4366,19.5206,19.5798,19.5484,19.4989,19.4645,19.4564,19.5074,19.5469,19.5272,19.5403,19.5945,19.6536,19.7244,19.7507,19.7244,19.7507,19.7704,19.8049,19.8443,19.8903,19.9364,18.2291,18.2599,18.2068,18.2807,18.3057,18.3099,18.2391,18.2821,18.2565,18.2848,18.2971,18.2274,18.31,18.3912,18.4109,18.4781,18.5256,18.3429,18.302,18.4058,18.4109,18.4767,18.5782,18.5979,18.7032,18.8888,19.1438,19.338,19.4943,19.6289,19.762,19.8838,19.8838,19.8691,19.9101,19.864,19.8903,19.8772,19.8443,19.8706,19.9035,19.7159,19.5647,19.4483,19.3001,19.0371,18.6622,18.6294,18.6111,18.5979,18.5965,18.6177,18.5848,18.5833,18.6045,18.5848,18.5979,18.6096,18.603,18.5914,18.5767,18.6242,18.6228,18.6374,18.6769,18.6703,18.7163,18.8099,18.8427,18.8807,18.9895,19.0093,18.9187,18.7017,18.7638,18.8362,18.8625,18.9581,19.0406,19.0143,19.0012,19.0341,19.0487,19.0502,19.075,19.0947,19.1064,19.1064,19.1195,19.1261,19.1408,19.2212,19.2672,19.292,19.3825,19.4614,19.379,19.3148,19.2804,19.2788,19.3365,19.3562,19.3431,19.3628,19.4169,19.4842,19.5535,19.5995,19.5798,19.5863,19.56,19.5732,19.6471,19.7209,19.7867,18.7088,18.7076,18.7076,18.7088,18.7076,18.7088,18.7076,18.6871,18.52,18.4473,18.4131,18.2623,18.2179,18.256,18.264,18.2969,18.3166,18.2442,18.2179,18.2625,18.2625,18.2888,18.3283,18.3297,18.4533,18.6834,18.7937,19.0122,19.3067,19.3805,19.4857,19.6192,19.6192,19.6242,19.6061,19.5221,19.5302,19.5666,19.4301,19.3825,19.4382,19.2424,19.0912,19.032,18.9055,18.7148,18.4898,18.4767,18.4387,18.3495,18.3297,18.3297,18.3363,18.3349,18.3363,18.3349,18.3363,18.3297,18.3283,18.3363,18.3743,18.465,18.4767,18.5241,18.6111,18.6242,18.6454,18.6703,18.6885,18.7032,18.7492,18.7609,18.7214,18.6557,18.6637,18.6915,18.6966,18.736,18.7674,18.7806,18.7806,18.8201,18.8807,18.9004,18.945,19.0436,19.0472,19.0472,19.0472,19.0472,19.075,19.1079,19.1225,19.1605,19.1656,19.1853,19.1291,19.1225,19.1028,19.121,19.1524,19.159,19.1721,19.1999,19.246,19.3051,19.3643,19.4285,19.4614,19.4877,19.4483,19.4154,19.4958,19.555,19.5945,18.7856,18.7856,18.7868,18.7856,18.7856,18.7856,18.7856,18.7688,18.6008,18.5172,18.4565,18.3168,18.2221,18.1851,18.0864,18.0338,18.0404,18.0916,18.1099,18.1179,18.1719,18.1931,18.1982,18.248,18.3809,18.5322,18.603,18.7952,19.0831,19.1635,19.2606,19.384,19.4483,19.4483,19.3972,19.3051,19.3067,19.3643,19.1736,19.1145,19.2358,18.9809,18.7587,18.614,18.5139,18.427,18.3349,18.332,18.2888,18.1996,18.1931,18.1653,18.1164,18.1113,18.0916,18.0404,18.0352,18.0338,18.0338,18.0338,18.0901,18.2268,18.2451,18.3057,18.4335,18.4664,18.4927,18.5307,18.5424,18.4781,18.4321,18.4387,18.4664,18.473,18.511,18.5439,18.5504,18.5914,18.6242,18.6242,18.6242,18.6586,18.736,18.7558,18.7952,18.8792,18.8924,18.8843,18.8975,18.9465,18.9647,18.9794,19.0108,19.0158,18.9354,18.899,18.9055,18.9121,18.9516,18.9713,19.0093,19.029,19.0684,19.1013,19.1357,19.1883,19.1802,19.2394,19.2525,19.2773,19.2854,19.2854,19.3906,19.3987,19.4235,18.5178,18.5388,18.5318,18.5736,18.5295,18.5585,18.5503,18.606,18.5293,18.461,18.3945,18.3308,18.2788,18.2038,17.9708,17.7927,17.7972,17.9308,17.9802,17.9689,18.0916,18.1668,18.1851,18.3203,18.378,18.378,18.5176,18.6769,18.815,18.9662,19.116,19.2556,19.3694,19.3759,19.2672,19.2161,19.2293,19.2015,19.0436,19.0487,19.1438,18.948,18.6257,18.2903,18.2194,18.2165,18.1851,18.1851,18.1799,18.1733,18.1536,18.0981,17.9675,17.953,17.8966,17.7811,17.7613,17.7627,17.7693,17.7759,17.8271,17.9361,17.9741,18.023,18.1588,18.1719,18.2231,18.3503,18.3386,18.2451,18.0478,18.1047,18.1719,18.1785,18.294,18.3634,18.378,18.4796,18.5914,18.5848,18.5651,18.5651,18.5848,18.603,18.6228,18.6491,18.6359,18.6491,18.682,18.7558,18.8099,18.8493,18.899,18.9384,18.6951,18.6885,18.6688,18.6951,18.7887,18.8296,18.8741,18.9187,18.9713,19.0173,18.9976,18.9976,19.0158,19.029,19.0356,19.075,19.0831,19.1408,19.2394,19.2541,19.2738,19.0518,19.0518,19.0518,19.0508,19.0508,19.0508,19.0518,19.0334,18.8467,18.7523,18.6878,18.3332,18.2515,18.3795,18.3252,18.1819,18.0352,18.0582,17.9806,17.8172,17.8482,17.868,17.8877,18.015,18.0793,18.1267,18.3437,18.4913,18.5439,18.7689,18.9662,19.0882,19.1473,19.1473,19.0882,18.8924,18.8478,18.9151,18.5979,18.4993,18.6345,18.6703,18.5767,18.3729,18.3466,18.248,18.0413,18.0215,17.9769,17.8745,17.8694,17.8482,17.8074,17.806,17.7876,17.7562,17.7496,17.7496,17.7496,17.7496,17.7693,17.8008,17.8074,17.8271,17.8628,17.8694,17.8877,17.9323,17.9257,17.9192,17.8139,17.8482,17.8694,17.8811,17.9952,18.0793,18.0939,18.2231,18.31,18.3086,18.3086,18.3115,18.3297,18.3992,18.4978,18.5782,18.6096,18.6242,18.6308,18.644,18.6849,18.6834,18.7097,18.7017,18.6425,18.5979,18.6242,18.6359,18.6374,18.6834,18.6885,18.7017,18.7411,18.8201,18.7609,18.7477,18.7937,18.774,18.7674,18.8741,18.9779,19.0684,19.0816,19.1013,19.1276,19.0715,19.0715,19.0705,19.0715,19.0715,19.0705,19.0715,19.062,18.9081,18.8148,18.732,18.4068,18.326,18.4521,18.3504,18.2308,18.093,18.0481,17.9493,17.8155,17.7667,17.7496,17.7613,17.8966,17.9609,17.9872,18.2071,18.286,18.286,18.5241,18.7609,18.945,19.0224,19.0224,18.9531,18.7952,18.7507,18.823,18.5271,18.4072,18.4847,18.4664,18.4072,18.3203,18.2019,18.0493,17.898,17.8703,17.8323,17.7548,17.7496,17.7219,17.6613,17.6627,17.6298,17.58,17.572,17.572,17.5706,17.5734,17.5983,17.6561,17.6627,17.689,17.735,17.7496,17.6904,17.6049,17.6312,17.6627,17.6627,17.7153,17.7496,17.7627,17.8191,17.8769,17.8769,17.96,18.0141,18.0141,18.0126,18.0272,18.0967,18.1742,18.286,18.4138,18.4401,18.4335,18.4467,18.4993,18.5307,18.5307,18.4796,18.4518,18.4401,18.4467,18.4467,18.4533,18.4927,18.5307,18.5504,18.5702,18.6177,18.6308,18.644,18.644,18.6045,18.6294,18.6374,18.7032,18.8413,18.8792,18.8777,18.8792,18.8727,18.8013,18.8022,18.8165,18.8022,18.8093,18.8084,18.8084,18.8075,18.8003,18.7384,18.667,18.5179,18.4667,18.4288,18.2454,18.1408,18.1012,17.9944,17.945,17.911,17.8356,17.7753,17.7538,17.9076,17.9563,17.9347,18.0901,18.1084,18.007,18.2597,18.5256,18.7836,18.9384,18.9384,18.8296,18.8113,18.8099,18.8099,18.6915,18.6242,18.603,18.3678,18.2179,18.1931,17.9337,17.7759,17.7285,17.7285,17.7233,17.7101,17.697,17.643,17.5298,17.5167,17.4589,17.3366,17.3249,17.3262,17.3249,17.3262,17.3813,17.4983,17.5101,17.5641,17.6786,17.6838,17.572,17.3958,17.4325,17.5101,17.5232,17.6181,17.6772,17.6707,17.7087,17.7299,17.735,17.735,17.7496,17.7496,17.7825,17.7942,17.9243,17.9544,18.0098,18.139,18.1785,18.1968,18.2034,18.3006,18.386,18.3188,18.2414,18.1653,18.1588,18.1588,18.1902,18.1968,18.294,18.3729,18.4058,18.4796,18.5782,18.4993,18.5453,18.5387,18.5504,18.5782,18.5731,18.5914,18.6096,18.6177,18.6242,18.6505,18.6242,18.8022,18.8022,18.8022,18.8022,18.8022,18.8022,18.8022,18.8022,18.7951,18.7821,18.7607,18.7322,18.7118,18.7071,18.6574,18.522,18.3604,18.3228,18.2071,18.0496,18.1211,17.9991,17.7502,17.9786,17.9356,17.6873,17.89,17.9952,17.9887,18.1493,18.3283,18.5044,18.6491,18.7032,18.6688,18.6703,18.6703,18.6703,18.6359,18.6242,18.6162,18.5585,18.4138,18.2114,18.1193,17.9323,17.6021,17.5838,17.5312,17.4221,17.4156,17.4024,17.3709,17.3682,17.3484,17.3249,17.3262,17.3262,17.3262,17.3262,17.338,17.3616,17.3695,17.3827,17.4024,17.3155,17.2169,17.184,17.2827,17.3616,17.3747,17.4038,17.4156,17.4221,17.5128,17.5758,17.589,17.6824,17.7496,17.7496,17.7496,17.7496,17.7876,17.7928,17.8219,17.868,17.9455,18.0098,18.0295,18.1427,18.1244,17.9732,17.8745,17.868,17.8548,17.9389,18.0032,18.0164,18.1347,18.2099,18.2377,18.2574,18.2903,18.2903,18.2903,18.2903,18.2903,18.2969,18.3415,18.4255,18.4504,18.4898,18.5702,18.5979,18.5585,18.8022,18.8022,18.8022,18.8022,18.8022,18.8022,18.8022,18.787,18.6443,18.6229,18.6871,18.6924,18.7281,18.7941,18.8022,18.7185,18.5923,18.4802,18.3545,18.2311,18.2009,18.0704,17.8776,17.9049,17.8173,17.6255,17.7197,17.7322,17.7008,17.96,18.0901,18.1164,18.3217,18.4598,18.5241,18.5914,18.6242,18.6242,18.557,18.5241,18.5176,18.3556,18.1591,17.9402,17.8201,17.6103,17.2877,17.2731,17.2281,17.1248,17.1235,17.1248,17.1235,17.1854,17.2248,17.2235,17.2854,17.3262,17.3262,17.2577,17.1919,17.1314,17.1248,17.1235,17.1248,17.0525,17.0117,17.0104,17.0788,17.1446,17.2169,17.2248,17.2498,17.3103,17.3879,17.4325,17.4457,17.5128,17.5537,17.5523,17.5537,17.58,17.643,17.6496,17.6627,17.7416,17.8008,17.8572,17.8651,17.9389,17.9286,17.7825,17.7496,17.7496,17.7562,17.8139,17.8506,17.8651,17.9323,17.9812,17.9943,17.9878,17.9878,17.9878,17.9878,17.9943,17.9943,18.0389,18.1099,18.1991,18.2531,18.3283,18.3955,18.4284,18.3232,18.7308,18.7299,18.7308,18.7299,18.7308,18.737,18.7299,18.7085,18.4454,18.4088,18.5283,18.5283,18.6077,18.7299,18.729,18.729,18.7187,18.5087,18.424,18.4338,18.2534,18.1428,18.0987,17.9377,17.8285,17.7646,17.6507,17.5349,17.4728,17.7559,17.8637,17.8205,18.0141,18.2165,18.378,18.5161,18.5833,18.557,18.416,18.3437,18.3386,18.0093,17.7494,17.5831,17.3945,17.1732,16.9527,16.9421,16.9054,16.8355,16.8328,16.8302,16.8381,16.9446,17.0117,17.0183,17.1248,17.2037,17.2196,17.1117,17.0051,16.9038,16.8907,16.8539,16.7881,16.8092,16.8302,16.8315,16.8512,16.9117,17.0248,17.0643,17.1169,17.2314,17.2577,17.2709,17.2906,17.2972,17.3103,17.3366,17.3262,17.3827,17.4852,17.5063,17.5443,17.6444,17.6575,17.6904,17.7036,17.7049,17.6904,17.6904,17.6838,17.689,17.6641,17.697,17.7153,17.7153,17.743,17.7825,17.789,17.789,17.789,17.7562,17.7825,17.7759,17.7693,17.852,17.9229,17.9492,18.0375,18.1127,18.1244,18.1259,18.0521,18.4169,18.4097,18.4169,18.4169,18.4097,18.4169,18.4169,18.4107,18.3536,0.0,0.0,18.3741,18.3874,18.4169,18.4107,18.4097,18.415,18.3658,18.4184,18.5365,18.6239,18.5593,18.378,18.579,18.5083,18.1824,17.9635,17.9011,17.9821,17.7254,17.7125,17.8966,17.8534,17.9586,18.2231,18.3729,18.3926,18.2706,18.115,18.0398,18.0333,17.8632,17.662,17.4416,17.3916,17.1893,16.81,16.7981,16.7114,16.5382,16.5278,16.5199,16.5278,16.5475,16.5619,16.5606,16.5803,16.654,16.7776,16.7645,16.7894,16.8854,16.8907,16.7052,16.2691,16.4142,16.5199,16.5199,16.6421,16.725,16.7526,16.8539,16.9446,16.9643,16.9709,17.0169,17.1248,17.1446,17.184,17.2985,17.3117,17.3314,17.3564,17.3629,17.3695,17.3958,17.4235,17.4287,17.5246,17.4852,17.4221,17.4221,17.4353,17.409,17.4156,17.4917,17.5693,17.5758,17.6627,17.743,17.7496,17.7496,17.7496,17.7233,17.7496,17.7364,17.743,17.7613,17.7811,17.7876,17.8074,17.8219,17.8219,17.8285,17.8036,18.3312,18.3312,18.3312,18.3312,0.0,18.3312,18.1529,17.8523,17.8514,17.8951,17.9727,18.0458,18.1306,18.209,18.2099,18.2519,18.3241,18.2528,18.2947,18.4445,18.5239,18.4985,18.3827,18.411,18.3129,18.1244,17.9789,17.969,18.078,17.7891,17.7797,18.0447,17.7756,17.8881,18.3724,18.2552,18.1873,18.1931,17.9718,17.852,17.8468,17.6693,17.4792,17.3016,17.3097,0.0,0.0,0.0,0.0,0.0,0.0,0.0,0.0,0.0,0.0,16.1647,16.1581,16.1695,16.1958,16.1244,16.1232,16.1867,16.1946,16.0612,15.7469,15.9454,16.0736,16.0589,16.187,16.2967,16.3435,16.4725,16.5882,16.6592,16.7342,16.8092,16.8815,16.9538,17.0248,17.0985,17.1709,17.2117,17.2117,17.2629,17.3183,17.3262,17.3249,17.3498,17.4024,17.3629,17.3249,17.3262,17.3262,17.3262,17.3314,17.3879,17.426,17.4339,17.4813,17.526,17.5326,17.526,17.5326,17.5339,17.5326,17.5339,17.5339,17.5918,17.6364,17.643,17.697,17.7101,17.5537,17.5274,17.526,18.1457,18.1457,18.152,18.1529,18.1448,18.1163,17.7943,17.2932,17.2923,17.3788,17.5303,17.6525,17.7738,17.8728,17.937,18.0298,18.1457,18.0512,18.0886,18.2385,18.2099,18.2099,18.2276,18.0946,18.0271,18.0292,17.9715,17.9991,18.0954,17.8965,17.889,18.0507,17.8344,17.965,18.4235,0.0,0.0,0.0,18.0256,17.8457,17.8391,17.6294,17.4218,17.2218,17.2567,0.0,16.6975,16.6448,16.5346,16.3344,16.216,0.0,0.0,0.0,0.0,0.0,0.0,0.0,0.0,0.0,0.0,0.0,15.3432,15.2893,15.2519,15.4983,15.6322,15.5778,15.6904,15.7839,15.8303,15.9934,16.1688,16.3222,16.4459,16.5578,16.6329,16.7092,16.792,16.846,16.9525,17.0328,17.0643,17.1643,17.2446,17.2629,17.2774,17.2774,17.2788,17.2788,17.2854,17.3183,17.3262,17.3262,17.3262,17.3249,17.338,17.3262,17.3262,17.3249,17.338,17.3314,17.3249,17.3314,17.3262,17.3314,17.3314,17.4142,17.4917,17.4917,17.5824,17.5983,17.3709,17.3249,17.3262,17.4992,17.4992,17.4992,17.4992,17.4929,17.3528,17.1736,16.9721,16.9713,17.0594,17.2038,17.2244,17.1664,17.08,17.3502,17.4849,17.5063,17.6151,17.7586,17.896,17.7658,17.78,17.9165,18.1613,18.2856,18.2764,18.1988,18.1891,18.2398,18.0827,17.9314,17.8174,18.1883,18.2644,18.0634,18.2948,18.607,18.9753,18.4695,18.2037,18.2025,18.0537,17.7685,17.3436,17.3252,17.0304,16.4023,16.2455,16.0896,15.9013,15.87,15.8042,15.678,15.5645,15.4085,0.0,14.9659,0.0,0.0,0.0,0.0,0.0,0.0,0.0,0.0,15.1843,15.3526,15.2215,15.2979,15.3122,15.198,15.473,15.7358,15.9275,15.9704,16.1167,16.4225,16.3791,16.4146,16.6776,16.7171,16.7815,16.8841,16.9315,16.9985,17.1103,17.1117,17.0788,17.1248,17.1183,17.1656,17.3038,17.3262,17.284,17.292,17.3051,17.3051,17.3117,17.2985,17.3262,17.3051,17.3051,17.3117,17.3117,17.2972,17.3051,17.3183,17.3301,17.3419,17.3498,17.3629,17.3564,17.3117,17.2985,17.3262,17.1148,17.1211,17.2147,17.1014,16.8588,16.7812,16.7178,16.6519,16.6527,16.6884,16.7535,16.7535,16.7669,16.7963,17.0221,17.1647,17.2512,17.3163,17.3885,17.4527,17.3876,17.3885,17.4607,17.6025,17.7167,17.8006,17.8,17.9256,18.1543,17.9943,18.0237,18.24,18.3305,18.2062,17.9021,18.1689,18.4172,18.6308,18.2976,18.132,18.1389,18.0003,17.8284,17.6115,17.3996,17.0598,16.5965,16.3893,16.1744,15.9395,15.9658,15.8677,15.5981,15.3982,15.1323,0.0,0.0,0.0,0.0,0.0,0.0,0.0,0.0,0.0,0.0,0.0,14.8259,14.8482,15.0205,15.0912,14.9959,15.1677,15.3223,15.41,15.4682,15.5796,15.7648,15.9566,16.0555,16.0381,16.2623,16.454,16.5185,16.5961,16.7263,16.9591,16.7092,16.5317,16.6106,16.7697,16.8881,16.9538,17.0328,17.084,17.0775,17.084,17.084,17.084,17.084,17.0854,17.084,17.0788,17.084,17.0827,17.084,17.0854,17.084,17.1446,17.1985,17.1919,17.138,17.092,17.0854,17.0761,17.084,16.7438,16.7447,16.717,16.518,16.2255,16.2603,16.2968,16.3325,16.3325,16.3325,16.3325,16.3317,16.3547,16.4063,16.5251,16.6813,16.8685,16.9033,16.9604,17.0317,17.0326,17.0326,17.0317,17.0745,17.1513,17.2677,17.3557,17.5649,17.8818,17.8035,17.9574,18.3154,18.1901,17.9762,17.7205,17.9253,18.1133,18.2665,18.1521,18.1357,18.2092,18.0795,17.9375,17.8134,17.482,17.0972,16.6549,16.4327,16.1779,15.8881,15.9185,15.7853,15.4424,15.1714,0.0,0.0,0.0,0.0,0.0,0.0,0.0,0.0,0.0,13.5274,13.636,0.0,14.2301,0.0,14.6466,14.8174,14.8083,14.8825,0.0,0.0,14.9755,15.0346,15.1151,15.3896,15.524,15.3927,15.7295,15.9889,16.0389,16.1721,16.3394,16.5382,16.1937,15.9517,16.066,16.3291,16.533,16.5737,16.6632,16.746,16.7868,16.821,16.8591,16.8841,16.8907,16.8907,16.8907,16.8907,16.8907,16.8907,16.8907,16.8907,16.8972,16.9775,17.0183,16.9131,16.8381,16.7842,16.7855,16.8197,16.8473,16.2722,16.2167,15.6618,15.4921,15.5991,15.7403,15.883,16.0122,16.0122,16.013,16.0193,16.013,15.8631,15.607,15.6213,0.0,16.0756,16.2159,16.4379,16.7115,16.7203,16.7131,16.7266,16.8588,16.9373,16.9499,17.1003,17.2178,17.3198,17.5257,17.5724,17.4637,17.5964,17.5798,17.4295,17.5718,17.8762,18.3154,18.3064,18.4434,18.7229,18.5876,18.2605,17.7693,17.5819,17.0816,16.239,16.0417,15.7956,15.4505,15.4066,15.2778,15.0106,0.0,0.0,0.0,0.0,0.0,0.0,0.0,0.0,0.0,0.0,0.0,0.0,0.0,0.0,13.6976,14.048,0.0,14.4504,14.5092,0.0,0.0,0.0,14.5064,14.7008,14.6044,14.6503,14.9737,0.0,0.0,15.4752,15.6332,15.7254,15.6961,15.6571,15.632,15.6373,15.8819,16.1174,16.2396,16.2712,16.3304,16.4645,16.5815,16.6908,16.7934,16.8907,16.8512,16.8446,16.8525,16.8789,16.8512,16.8841,16.8709,16.8841,16.8525,16.7855,16.3738,16.3923,16.4739,16.4752,16.5698,16.6513,15.4549,14.9111,14.6614,14.5979,14.6707,14.8206,15.0339,15.2693,15.3613,15.4034,15.3955,15.305,15.0925,14.7856,14.7,0.0,0.0,0.0,15.6674,15.9789,16.0693,16.2175,16.3959,16.4585,16.5369,16.6376,16.7891,16.9259,17.0458,17.3333,17.1089,16.4121,0.0,0.0,16.8152,17.0649,17.4233,17.8728,17.9887,18.1448,18.366,18.2162,17.9813,17.6671,17.2828,16.8502,16.3624,15.9824,15.6109,15.2447,15.1801,14.9718,0.0,0.0,0.0,0.0,0.0,0.0,0.0,0.0,0.0,0.0,0.0,12.6226,12.6356,0.0,0.0,0.0,13.4497,13.7094,13.9906,14.1169,0.0,0.0,0.0,0.0,0.0,0.0,0.0,14.3208,14.7277,15.0607,15.1891,15.0939,14.991,14.9396,14.9326,14.942,14.9766,0.0,15.489,15.7198,15.8016,15.8956,16.0793,16.1336,16.1521,16.1531,16.1982,16.2304,16.237,16.3068,16.3581,16.3647,16.3647,16.3647,16.3647,16.2213,16.0372,15.8872,15.9596,16.0504,16.0582,16.1055,16.1778,14.4852,0.0,0.0,0.0,0.0,13.9436,14.1712,14.4631,14.575,14.6036,14.5529,14.4909,0.0,0.0,0.0,0.0,0.0,0.0,14.9325,15.2502,15.6325,15.9028,16.0732,16.0804,16.1382,16.2389,16.2611,16.3547,16.51,16.6011,16.1945,15.355,0.0,0.0,0.0,0.0,16.9025,17.3948,17.6588,17.8808,18.0931,17.9807,17.8166,17.6159,17.0588,16.6188,16.3248,15.8544,15.4036,14.9933,14.8469,0.0,0.0,0.0,0.0,0.0,0.0,0.0,0.0,0.0,0.0,0.0,0.0,0.0,0.0,0.0,0.0,0.0,0.0,0.0,13.4259,13.6425,13.7012,0.0,0.0,0.0,0.0,0.0,0.0,0.0,0.0,0.0,14.6544,14.5527,14.4633,0.0,0.0,14.5343,14.4608,14.734,15.0286,15.2569,15.3095,0.0,15.6509,15.6551,15.6171,15.5639,15.644,15.7149,15.7014,15.7713,15.8195,15.7965,15.8216,15.7879,15.6325,15.4212,15.298,15.2968,15.3707,15.4356,15.4422,15.4669,15.5191,0.0,0.0,0.0,0.0,0.0,0.0,0.0,0.0,13.6639,13.5854,0.0,13.5861,0.0,0.0,0.0,0.0,13.4479,13.8909,0.0,0.0,15.5056,15.8893,15.753,15.7395,15.7522,15.7458,15.4612,15.3985,15.5079,15.0917,0.0,0.0,0.0,0.0,0.0,0.0,16.3111,16.923,17.3796,17.7658,18.0654,18.0726,17.9219,17.5937,17.0027,16.4393,15.9359,15.5708,15.1455,14.6375,14.3,0.0,0.0,0.0,0.0,0.0,0.0,0.0,0.0,0.0,0.0,0.0,0.0,0.0,0.0,0.0,0.0,0.0,0.0,0.0,0.0,13.0564,0.0,0.0,0.0,0.0,0.0,0.0,0.0,0.0,0.0,0.0,13.7322,14.0202,14.2464,14.2067,0.0,0.0,0.0,0.0,14.832,14.9319,14.8208,14.8485,15.1722,15.2224,15.2357,15.2803,0.0,0.0,15.4512,15.4058,15.3418,15.26,15.3485,15.269,14.7026,14.5873,14.5817,14.5827,14.5996,14.5859,14.5905,14.6951,14.751,0.0,0.0,0.0,0.0,0.0,0.0,0.0,0.0,0.0,12.5151,0.0,12.4153,0.0,0.0,0.0,0.0,0.0,0.0,0.0,0.0,14.092,14.4773,14.8127,14.7128,14.7199,0.0,14.7071,14.3211,0.0,0.0,0.0,0.0,0.0,0.0,0.0,0.0,15.9337,16.4513,16.915,17.2583,17.4527,17.2743,17.1174,17.004,16.5957,16.1259,15.599,15.273,14.8495,0.0,0.0,0.0,0.0,0.0,0.0,0.0,0.0,0.0,0.0,0.0,0.0,0.0,0.0,0.0,0.0,0.0,0.0,0.0,0.0,0.0,0.0,0.0,12.7871,0.0,0.0,0.0,0.0,0.0,0.0,0.0,0.0,0.0,13.3592,13.5996,13.8183,13.9231,14.0323,14.0687,14.0039,0.0,0.0,0.0,0.0,0.0,0.0,0.0,14.9237,14.7673,14.7921,14.8171,14.7801,14.7378,14.7024,14.6701,0.0,0.0,13.9927,13.9683,14.0309,14.0289,14.1066,14.1708,14.1765,14.2057,14.242,0.0,0.0,0.0,0.0,0.0,0.0,0.0,0.0,0.0,11.4235,11.4169,0.0,0.0,0.0,0.0,0.0,0.0,0.0,0.0,0.0,0.0,0.0,13.8437,13.7495,0.0,0.0,0.0,0.0,0.0,0.0,0.0,0.0,0.0,0.0,0.0,0.0,15.5547,15.9829,16.5457,16.8811,16.9755,16.7908,16.6258,16.526,16.2666,15.8902,15.3825,0.0,0.0,0.0,0.0,0.0,0.0,0.0,0.0,0.0,0.0,0.0,0.0,0.0,0.0,0.0,0.0,0.0,0.0,0.0,0.0,0.0,0.0,0.0,0.0,0.0,12.102,0.0,0.0,0.0,0.0,0.0,0.0,0.0,0.0,0.0,0.0,0.0,13.2945,13.4358,13.6442,13.7859,13.8114,14.0065,14.235,0.0,0.0,0.0,0.0,0.0,0.0,0.0,0.0,0.0,0.0,0.0,0.0,0.0,0.0,13.6503,13.3656,13.3891,13.4564,13.4564,0.0,0.0,0.0,0.0,0.0,0.0,0.0,0.0,0.0,0.0,0.0,0.0,0.0,0.0,0.0,10.3216,0.0,0.0,10.3155,0.0,0.0,0.0,0.0,0.0,0.0,0.0,0.0,0.0,0.0,0.0,0.0,0.0,0.0,0.0,0.0,0.0,0.0,0.0,0.0,0.0,0.0,15.1751,15.5135,16.2635,16.6552,16.6624,16.6552,16.4903,16.2016,16.0399,15.7403,15.2798,0.0,0.0,0.0,0.0,0.0,0.0,0.0,0.0,0.0,0.0,0.0,0.0,0.0,0.0,0.0,0.0,0.0,0.0,0.0,0.0,0.0,0.0,0.0,0.0,0.0,0.0,11.4697,11.9122,12.1417,0.0,0.0,0.0,0.0,0.0,0.0,0.0,0.0,0.0,12.7672,13.3523,13.7387,13.6207,13.9439,14.2137,14.2759,14.2095,14.1946,14.3292,14.225,14.1279,0.0,0.0,0.0,0.0,0.0,0.0,0.0,0.0,0.0,0.0,0.0,0.0,0.0,0.0,0.0,0.0,0.0,0.0,0.0,0.0,0.0,0.0,0.0,0.0,0.0,0.0,0.0,0.0,0.0,0.0,0.0,0.0,0.0,0.0,0.0,0.0,0.0,0.0,0.0,0.0,0.0,0.0,0.0,0.0,0.0,0.0,0.0,0.0,0.0,0.0,0.0,0.0,0.0,0.0,14.8063,15.3414,15.791,16.0756,16.1842,15.9702,15.814,15.7204,15.4533,15.1893,0.0,0.0,0.0,0.0,0.0,0.0,0.0,0.0,0.0,0.0,0.0,0.0,0.0,0.0,0.0,0.0,0.0,0.0,0.0,0.0,0.0,0.0,0.0,0.0,0.0,0.0,0.0,0.0,11.7233,11.8207,11.6643,0.0,0.0,0.0,0.0,0.0,0.0,0.0,0.0,0.0,0.0,13.3263,13.4177,13.7861,14.0571,14.0653,14.2472,14.3349,14.2003,14.2166,14.145,13.8764,0.0,0.0,0.0,0.0,0.0,0.0,0.0,0.0,0.0,0.0,0.0,0.0,0.0,0.0,0.0,0.0,0.0,0.0,0.0,0.0,0.0,0.0,0.0,0.0,0.0,0.0,0.0,0.0,0.0,0.0,0.0,0.0,0.0,0.0,0.0,0.0,0.0,0.0,0.0,0.0,0.0,0.0,0.0,0.0,0.0,0.0,0.0,0.0,0.0,0.0,0.0,0.0,0.0,14.5209,15.0838,15.5833,15.8473,15.883,15.6982,15.542,15.4278,15.1672,14.8953,0.0,0.0,0.0,0.0,0.0,0.0,0.0,0.0,0.0,0.0,0.0,0.0,0.0,0.0,0.0,0.0,0.0,0.0,0.0,0.0,0.0,0.0,0.0,0.0,0.0,0.0,0.0,0.0,11.2517,11.3944,11.4146,0.0,0.0,0.0,0.0,0.0,0.0,0.0,0.0,0.0,0.0,12.948,13.2045,13.5361,0.0,0.0,14.0283,14.1336,14.0594,14.1051,14.0374,13.7266,13.4503,0.0,0.0,0.0,0.0,0.0,0.0,0.0,0.0,0.0,0.0,0.0,0.0,0.0,0.0,0.0,0.0,0.0,0.0,0.0,0.0,0.0,0.0,0.0,0.0,0.0,0.0,0.0,0.0,0.0,0.0,0.0,0.0,0.0,0.0,0.0,0.0,0.0,0.0,0.0,0.0,0.0,0.0,0.0,0.0,0.0,0.0,0.0,0.0,0.0,0.0,0.0,0.0,0.0,14.7849,15.5484,15.8766,15.753,15.7252,15.569,15.2693,15.0816,14.7527,0.0,0.0,0.0,0.0,0.0,0.0,0.0,0.0,0.0,0.0,0.0,0.0,0.0,0.0,0.0,0.0,0.0,0.0,0.0,0.0,0.0,0.0,0.0,0.0,0.0,0.0,0.0,0.0,0.0,0.0,0.0,0.0,0.0,0.0,0.0,0.0,0.0,0.0,0.0,0.0,0.0,12.5837,12.9532,13.2267,13.4478,0.0,13.6408,13.714,13.8606,13.8851,13.8251,13.6297,0.0,0.0,0.0,0.0,0.0,0.0,0.0,0.0,0.0,0.0,0.0,0.0,0.0,0.0,0.0,0.0,0.0,0.0,0.0,0.0,0.0,0.0,0.0,0.0,0.0,0.0,0.0,0.0,0.0,0.0,0.0,0.0,0.0,0.0,0.0,0.0,0.0,0.0,0.0,0.0,0.0,0.0,0.0,0.0,0.0,0.0,0.0,0.0,0.0,0.0,0.0,0.0,0.0,0.0,14.6186,15.2844,15.6705,15.7323,15.5183,15.2964,15.0872,14.7113,0.0,0.0,0.0,0.0,0.0,0.0,0.0,0.0,0.0,0.0,0.0,0.0,0.0,0.0,0.0,0.0,0.0,0.0,0.0,0.0,0.0,0.0,0.0,0.0,0.0,0.0,0.0,9.3328,0.0,0.0,0.0,0.0,0.0,0.0,0.0,0.0,0.0,0.0,0.0,0.0,0.0,0.0,12.1561,12.5208,12.8338,13.0764,0.0,0.0,13.582,13.3472,13.4938,13.4851,0.0,0.0,0.0,0.0,0.0,0.0,0.0,0.0,0.0,0.0,0.0,0.0,0.0,0.0,0.0,0.0,0.0,0.0,0.0,0.0,0.0,0.0,0.0,0.0,0.0,0.0,0.0,0.0,0.0,0.0,0.0,0.0,0.0,0.0,0.0,0.0,0.0,0.0,0.0,0.0,0.0,0.0,0.0,0.0,0.0,0.0,0.0,0.0,0.0,0.0,0.0,0.0,0.0,0.0,13.599,14.3475,15.0489,15.4849,15.634,15.4707,15.2693,15.0301,14.5694,14.1077,0.0,0.0,0.0,0.0,0.0,0.0,0.0,0.0,0.0,0.0,0.0,0.0,0.0,0.0,0.0,0.0,0.0,0.0,0.0,0.0,0.0,0.0,0.0,0.0,0.0,0.0,0.0,0.0,0.0,0.0,0.0,0.0,0.0,0.0,0.0,0.0,0.0,0.0,0.0,0.0,0.0,0.0,12.2748,12.4285,0.0,0.0,0.0,13.1972,13.0149,0.0,0.0,0.0,0.0,0.0,0.0,0.0,0.0,0.0,0.0,0.0,0.0,0.0,0.0,0.0,0.0,0.0,0.0,0.0,0.0,0.0,0.0,0.0,0.0,0.0,0.0,0.0,0.0,0.0,0.0,0.0,0.0,0.0,0.0,0.0,0.0,0.0,0.0,0.0,0.0,0.0,0.0,0.0,0.0,0.0,0.0,0.0,0.0,0.0,0.0,0.0,0.0,0.0,0.0,0.0,0.0,0.0,13.9986,14.7763,15.2622,15.4429,15.4357,15.2836,14.9802,14.5337,14.0713,0.0,0.0,0.0,0.0,0.0,0.0,0.0,0.0,0.0,0.0,0.0,0.0,0.0,0.0,0.0,0.0,0.0,0.0,0.0,0.0,0.0,0.0,0.0,0.0,0.0,0.0,0.0,0.0,0.0,0.0,0.0,0.0,0.0,0.0,0.0,0.0,0.0,0.0,0.0,0.0,0.0,11.5196,12.0803,11.994,11.9504,0.0,0.0,12.6561,12.7296,12.8555,0.0,0.0,0.0,0.0,0.0,0.0,0.0,0.0,0.0,0.0,0.0,0.0,0.0,0.0,0.0,0.0,0.0,0.0,0.0,0.0,0.0,0.0,0.0,0.0,0.0,0.0,0.0,0.0,0.0,0.0,0.0,0.0,0.0,0.0,0.0,0.0,0.0,0.0,0.0,0.0,0.0,0.0,0.0,0.0,0.0,0.0,0.0,0.0,0.0,0.0,0.0,0.0,0.0,0.0,0.0,0.0,13.527,14.1848,14.7128,15.0951,15.0046,14.8476,14.6528,14.3204,13.8579,0.0,0.0,0.0,0.0,0.0,0.0,0.0,0.0,0.0,0.0,0.0,0.0,0.0,0.0,0.0,0.0,0.0,0.0,0.0,0.0,0.0,0.0,0.0,0.0,0.0,0.0,0.0,0.0,0.0,0.0,0.0,0.0,0.0,0.0,0.0,0.0,0.0,0.0,0.0,0.0,0.0,11.0827,11.6306,11.5,0.0,0.0,0.0,0.0,12.0761,12.1917,0.0,0.0,0.0,0.0,0.0,0.0,0.0,0.0,0.0,0.0,0.0,0.0,0.0,0.0,0.0,0.0,0.0,0.0,0.0,0.0,0.0,0.0,0.0,0.0,0.0,0.0,0.0,0.0,0.0,0.0,0.0,0.0,0.0,0.0,0.0,0.0,0.0,0.0,0.0,0.0,0.0,0.0,0.0,0.0,0.0,0.0,0.0,0.0,0.0,0.0,0.0,0.0,0.0,0.0,0.0,0.0,13.2501,13.8209,14.3625,14.889,14.8334,14.7192,14.5608,14.1827,13.684,0.0,0.0,0.0,0.0,0.0,0.0,0.0,0.0,0.0,0.0,0.0,0.0,0.0,0.0,0.0,0.0,0.0,0.0,0.0,0.0,0.0,0.0,0.0,0.0,0.0,0.0,0.0,0.0,0.0,0.0,0.0,0.0,0.0,0.0,0.0,0.0,0.0,0.0,0.0,0.0,10.6415,10.7865,11.2248,0.0,0.0,0.0,0.0,0.0,0.0,11.6602,11.613,0.0,0.0,0.0,0.0,0.0,0.0,0.0,0.0,0.0,0.0,0.0,0.0,0.0,0.0,0.0,0.0,0.0,0.0,0.0,0.0,0.0,0.0,0.0,0.0,0.0,0.0,0.0,0.0,0.0,0.0,0.0,0.0,0.0,0.0,0.0,0.0,0.0,0.0,0.0,0.0,0.0,0.0,0.0,0.0,0.0,0.0,0.0,0.0,0.0,0.0,0.0,0.0,0.0,0.0,0.0,12.9523,13.4271,13.9693,14.5851,14.5986,14.5544,14.4395,14.0115,13.4764,12.8285,0.0,0.0,0.0,0.0,0.0,0.0,0.0,0.0,0.0,0.0,0.0,0.0,0.0,0.0,0.0,0.0,0.0,0.0,0.0,0.0,0.0,0.0,0.0,0.0,0.0,0.0,0.0,0.0,0.0,0.0,0.0,0.0,0.0,0.0,0.0,0.0,0.0,0.0,0.0,10.401,10.5002,0.0,0.0,0.0,0.0,0.0,0.0,0.0,0.0,11.0945,0.0,0.0,0.0,0.0,0.0,0.0,0.0,0.0,0.0,0.0,0.0,0.0,0.0,0.0,0.0,0.0,0.0,0.0,0.0,0.0,0.0,0.0,0.0,0.0,0.0,0.0,0.0,0.0,0.0,0.0,0.0,0.0,0.0,0.0,0.0,0.0,0.0,0.0,0.0,0.0,0.0,0.0,0.0,0.0,0.0,0.0,0.0,0.0,0.0,0.0,0.0,0.0,0.0,0.0,0.0,0.0,12.6281,13.1781,13.7716,13.808,13.8566,13.9537,13.6405,13.1048,12.3486,0.0,0.0,0.0,0.0,0.0,0.0,0.0,0.0,0.0,0.0,0.0,0.0,0.0,0.0,0.0,0.0,0.0,0.0,0.0,0.0,0.0,0.0,0.0,0.0,0.0,0.0,0.0,0.0,0.0,0.0,0.0,0.0,0.0,0.0,0.0,0.0,0.0,0.0,9.7343,9.8691,0.0,0.0,0.0,0.0,0.0,0.0,0.0,0.0,10.7957,0.0,0.0,0.0,0.0,0.0,0.0,0.0,0.0,0.0,0.0,0.0,0.0,0.0,0.0,0.0,0.0,0.0,0.0,0.0,0.0,0.0,0.0,0.0,0.0,0.0,0.0,0.0,0.0,0.0,0.0,0.0,0.0,0.0,0.0,0.0,0.0,0.0,0.0,0.0,0.0,0.0,0.0,0.0,0.0,0.0,0.0,0.0,0.0,0.0,0.0,0.0,0.0,0.0,0.0,0.0,0.0,0.0,0.0,12.8297,13.3584,13.5446,13.6639,13.706,13.1054,12.5133,0.0,0.0,0.0,0.0,0.0,0.0,0.0,0.0,0.0,0.0,0.0,0.0,0.0,0.0,0.0,0.0,0.0,0.0,0.0,0.0,0.0,0.0,0.0,0.0,0.0,0.0,0.0,0.0,0.0,0.0,0.0,0.0,0.0,0.0,0.0,0.0,0.0,0.0,0.0,0.0,0.0,0.0,0.0,0.0,0.0,0.0,0.0,0.0,0.0,0.0,0.0,0.0,0.0,0.0,0.0,0.0,0.0,0.0,0.0,0.0,0.0,0.0,0.0,0.0,0.0,0.0,0.0,0.0,0.0,0.0,0.0,0.0,0.0,0.0,0.0,0.0,0.0,0.0,0.0,0.0,0.0,0.0,0.0,0.0,0.0,0.0,0.0,0.0,0.0,0.0,0.0,0.0,0.0,0.0,0.0,0.0,0.0,0.0,0.0,0.0,0.0,0.0,0.0,0.0,0.0,0.0,0.0,0.0,12.5806,13.0516,13.3656,13.5297,13.5219,12.571,11.9289,0.0,0.0,0.0,0.0,0.0,0.0,0.0,0.0,0.0,0.0,0.0,0.0,0.0,0.0,0.0,0.0,0.0,0.0,0.0,0.0,0.0,0.0,0.0,0.0,0.0,0.0,0.0,0.0,0.0,0.0,0.0,0.0,0.0,0.0,0.0,0.0,0.0,0.0,0.0,0.0,0.0,0.0,0.0,0.0,0.0,0.0,0.0,0.0,10.1091,0.0,0.0,0.0,0.0,0.0,0.0,0.0,0.0,0.0,0.0,0.0,0.0,0.0,0.0,0.0,0.0,0.0,0.0,0.0,0.0,0.0,0.0,0.0,0.0,0.0,0.0,0.0,0.0,0.0,0.0,0.0,0.0,0.0,0.0,0.0,0.0,0.0,0.0,0.0,0.0,0.0,0.0,0.0,0.0,0.0,0.0,0.0,0.0,0.0,0.0,0.0,0.0,0.0,0.0,0.0,0.0,0.0,0.0,0.0,12.2583,12.7357,13.0438,13.2092,13.182,12.15,11.5002,0.0,0.0,0.0,0.0,0.0,0.0,0.0,0.0,0.0,0.0,0.0,0.0,0.0,0.0,0.0,0.0,0.0,0.0,0.0,0.0,0.0,0.0,0.0,0.0,0.0,0.0,0.0,0.0,0.0,0.0,0.0,0.0,0.0,0.0,0.0,0.0,0.0,0.0,0.0,0.0,0.0,0.0,0.0,0.0,0.0,0.0,0.0,0.0,0.0,0.0,0.0,0.0,0.0,0.0,0.0,0.0,0.0,0.0,0.0,0.0,0.0,0.0,0.0,0.0,0.0,0.0,0.0,0.0,0.0,0.0,0.0,0.0,0.0,0.0,0.0,0.0,0.0,0.0,0.0,0.0,0.0,0.0,0.0,0.0,0.0,0.0,0.0,0.0,0.0,0.0,0.0,0.0,0.0,0.0,0.0,0.0,0.0,0.0,0.0,0.0,0.0,0.0,0.0,0.0,0.0,0.0,0.0,0.0,11.7154,11.999,12.3991,12.4789,12.2083,11.5722,11.1655,0.0,0.0,0.0,0.0,0.0,0.0,0.0,0.0,0.0,0.0,0.0,0.0,0.0,0.0,0.0,0.0,0.0,0.0,0.0,0.0,0.0,0.0,0.0,0.0,0.0,0.0,0.0,0.0,0.0,0.0,0.0,0.0,0.0,0.0,0.0,0.0,0.0,0.0,0.0,0.0,0.0,0.0,0.0,0.0,0.0,0.0,0.0,0.0,0.0,0.0,0.0,0.0,0.0,0.0,0.0,0.0,0.0,0.0,0.0,0.0,0.0,0.0,0.0,0.0,0.0,0.0,0.0,0.0,0.0,0.0,0.0,0.0,0.0,0.0,0.0,0.0,0.0,0.0,0.0,0.0,0.0,0.0,0.0,0.0,0.0,0.0,0.0,0.0,0.0,0.0,0.0,0.0,0.0,0.0,0.0,0.0,0.0,0.0,0.0,0.0,0.0,0.0,0.0,0.0,0.0,0.0,0.0,0.0,0.0,11.4497,11.7,11.6792,11.3361,11.0656,10.845,0.0,0.0,0.0,0.0,0.0,0.0,0.0,0.0,0.0,0.0,0.0,0.0,0.0,0.0,0.0,0.0,0.0,0.0,0.0,0.0,0.0,0.0,0.0,0.0,0.0,0.0,0.0,0.0,0.0,0.0,0.0,0.0,0.0,0.0,0.0,0.0,0.0,0.0,0.0,0.0,0.0,0.0,0.0,0.0,0.0,0.0,0.0,0.0,0.0,0.0,0.0,0.0,0.0,0.0,0.0,0.0,0.0,0.0,0.0,0.0,0.0,0.0,0.0,0.0,0.0,0.0,0.0,0.0,0.0,0.0,0.0,0.0,0.0,0.0,0.0,0.0,0.0,0.0,0.0,0.0,0.0,0.0,0.0,0.0,0.0,0.0,0.0,0.0,0.0,0.0,0.0,0.0,0.0,0.0,0.0,0.0,0.0,0.0,0.0,0.0,0.0,0.0,0.0,0.0,0.0,0.0,0.0,0.0,0.0,11.2808,11.025,10.8762,10.8466,10.6896,10.5244,0.0,0.0,0.0,0.0,0.0,0.0,0.0,0.0,0.0,0.0,0.0,0.0,0.0,0.0,0.0,0.0,0.0,0.0,0.0,0.0,0.0,0.0,0.0,0.0,0.0,0.0,0.0,0.0,0.0,0.0,0.0,0.0,0.0,0.0,0.0,0.0,0.0,0.0,0.0,0.0,0.0,0.0,0.0,0.0,0.0,0.0,0.0,0.0,0.0,0.0,0.0,0.0,0.0,0.0,0.0,0.0,0.0,0.0,0.0,0.0,0.0,0.0,0.0,0.0,0.0,0.0,0.0,0.0,0.0,0.0,0.0,0.0,0.0,0.0,0.0,0.0,0.0,0.0,0.0,0.0,0.0,0.0,0.0,0.0,0.0,0.0,0.0,0.0,0.0,0.0,0.0,0.0,0.0,0.0,0.0,0.0,0.0,0.0,0.0,0.0,0.0,0.0,0.0,0.0,0.0,0.0,0.0,0.0,0.0,10.5474,10.5249,10.5168,10.5162,10.3603,10.2538,10.1967,0.0,0.0,0.0,0.0,0.0,0.0,0.0,0.0,0.0,0.0,0.0,0.0,0.0,0.0,0.0,0.0,0.0,0.0,0.0,0.0,0.0,0.0,0.0,0.0,0.0,0.0,0.0,0.0,0.0,0.0,0.0,0.0,0.0,0.0,0.0,0.0,0.0,0.0,0.0,0.0,0.0,0.0,0.0,0.0,0.0,0.0,0.0,0.0,0.0,0.0,0.0,0.0,0.0,0.0,0.0,0.0,0.0,0.0,0.0,0.0,0.0,0.0,0.0,0.0,0.0,0.0,0.0,0.0,0.0,0.0,0.0,0.0,0.0,0.0,0.0,0.0,0.0,0.0,0.0,0.0,0.0,0.0,0.0,0.0,0.0,0.0,0.0,0.0,0.0,0.0,0.0,0.0,0.0,0.0,0.0,0.0,0.0,0.0,0.0,0.0,0.0,0.0,0.0,0.0,0.0,0.0,0.0,0.0,10.0407,10.1381,10.1942,10.1952,10.0897,10.0127,0.0,0.0,0.0,0.0,0.0,0.0,0.0,0.0,0.0,0.0,0.0,0.0,0.0,0.0,0.0,0.0,0.0,0.0,0.0,0.0,0.0,0.0,0.0,0.0,0.0,0.0,0.0,0.0,0.0,0.0,0.0,0.0,0.0,0.0,0.0,0.0,0.0,0.0,0.0,0.0,0.0,0.0,0.0,0.0,0.0,0.0,0.0,0.0,0.0,0.0,0.0,0.0,0.0,0.0,0.0,0.0,0.0,0.0,0.0,0.0,0.0,0.0,0.0,0.0,0.0,0.0,0.0,0.0,0.0,0.0,0.0,0.0,0.0,0.0,0.0,0.0,0.0,0.0,0.0,0.0,0.0,0.0,0.0,0.0,0.0,0.0,0.0,0.0,0.0,0.0,0.0,0.0,0.0,0.0,0.0,0.0,0.0,0.0,0.0,0.0,0.0,0.0,0.0,0.0,0.0,0.0,0.0,0.0,9.7277,9.868,9.8818,9.896,9.8818,9.8818,9.8038,0.0,0.0,0.0,0.0,0.0,0.0,0.0,0.0,0.0,0.0,0.0,0.0,0.0,0.0,0.0,0.0,0.0,0.0,0.0,0.0,0.0,0.0,0.0,0.0,0.0,0.0,0.0,0.0,0.0,0.0,0.0,0.0,0.0,0.0,0.0,0.0,0.0,0.0,0.0,0.0,0.0,0.0,0.0,0.0,0.0,0.0,0.0,0.0,0.0,0.0,0.0,0.0,0.0,0.0,0.0,0.0,0.0,0.0,0.0,0.0,0.0,0.0,0.0,0.0,0.0,0.0,0.0,0.0,0.0,0.0,0.0,0.0,0.0,0.0,0.0,0.0,0.0,0.0,0.0,0.0,0.0,0.0,0.0,0.0,0.0,0.0,0.0,0.0,0.0,0.0,0.0,0.0,0.0,0.0,0.0,0.0,0.0,0.0,0.0,0.0,0.0,0.0,0.0,0.0,0.0,0.0,0.0,0.0,0.0,9.7048,0.0,9.8751,0.0,9.7695,9.6915,0.0,0.0,0.0,0.0,0.0,0.0,0.0,0.0,0.0,0.0,0.0,0.0,0.0,0.0,0.0,0.0,0.0,0.0,0.0,0.0,0.0,0.0,0.0,0.0,0.0,0.0,0.0,0.0,0.0,0.0,0.0,0.0,0.0,0.0,0.0,0.0,0.0,0.0,0.0,0.0,0.0,0.0,0.0,0.0,0.0,0.0,0.0,0.0,0.0,0.0,0.0,0.0,0.0,0.0,0.0,0.0,0.0,0.0,0.0,0.0,0.0,0.0,0.0,0.0,0.0,0.0,0.0,0.0,0.0,0.0,0.0,0.0,0.0,0.0,0.0,0.0,0.0,0.0,0.0,0.0,0.0,0.0,0.0,0.0,0.0,0.0,0.0,0.0,0.0,0.0,0.0,0.0,0.0,0.0,0.0,0.0,0.0,0.0,0.0,0.0,0.0,0.0,0.0,0.0,0.0,0.0,0.0,0.0,0.0,9.447,9.5046,9.5602,9.6168,9.5754,9.5269,0.0,0.0,0.0,0.0,0.0,0.0,0.0,0.0,0.0,0.0,0.0,0.0,0.0,0.0,0.0,0.0,0.0,0.0,0.0,0.0,0.0,0.0,0.0,0.0,0.0,0.0,0.0,0.0,0.0,0.0,0.0,0.0,0.0,0.0,0.0,0.0,0.0,0.0,0.0,0.0,0.0,0.0,0.0,0.0,0.0,0.0,0.0,0.0,0.0,0.0,0.0,0.0,0.0,0.0,0.0,0.0,0.0,0.0,0.0,0.0,0.0,0.0,0.0,0.0,0.0,0.0,0.0,0.0,0.0,0.0,0.0,0.0,0.0,0.0,0.0,0.0,0.0,0.0,0.0,0.0,0.0,0.0,0.0,0.0,0.0,0.0,0.0,0.0,0.0,0.0,0.0,0.0,0.0,0.0,0.0,0.0,0.0,0.0,0.0,0.0,0.0,0.0,0.0,0.0,0.0,0.0,0.0,0.0,0.0,0.0,9.0314,9.0256,9.1798,9.3096,9.3091,0.0,0.0,0.0,0.0,0.0,0.0,0.0,0.0,0.0,0.0,0.0,0.0,0.0,0.0,0.0,0.0,0.0,0.0,0.0,0.0,0.0,0.0,0.0,0.0,0.0,0.0,0.0,0.0,0.0,0.0,0.0,0.0,0.0,0.0,0.0,0.0,0.0,0.0,0.0,0.0,0.0,0.0,0.0,0.0,0.0,0.0,0.0,0.0,0.0,0.0,0.0,0.0,0.0,0.0,0.0,0.0,0.0,0.0,0.0,0.0,0.0,0.0,0.0,0.0,0.0,0.0,0.0,0.0,0.0,0.0,0.0,0.0,0.0,0.0,0.0,0.0,0.0,0.0,0.0,0.0,0.0,0.0,0.0,0.0,0.0,0.0,0.0,0.0,0.0,0.0,0.0,0.0,0.0,0.0,0.0,0.0,0.0,0.0,0.0,0.0,0.0,0.0,0.0,0.0,0.0,0.0,0.0,0.0,0.0,0.0,9.2244,0.0,9.3158,9.2587,9.2017,9.1589,0.0,0.0,0.0,0.0,0.0,0.0,0.0,0.0,0.0,0.0,0.0,0.0,0.0,0.0,0.0,0.0,0.0,0.0,0.0,0.0,0.0,0.0,0.0,0.0,0.0,0.0,0.0,0.0,0.0,0.0,0.0,0.0,0.0,0.0,0.0,0.0,0.0,0.0,0.0,0.0,0.0,0.0,0.0,0.0,0.0,0.0,0.0,0.0,0.0,0.0,0.0,0.0,0.0,0.0,0.0,0.0,0.0,0.0,0.0,0.0,0.0,0.0,0.0,0.0,0.0,0.0,0.0,0.0,0.0,0.0,0.0,0.0,0.0,0.0,0.0,0.0,0.0,0.0,0.0,0.0,0.0,0.0,0.0,0.0,0.0,0.0,0.0,0.0,0.0,0.0,0.0,0.0,0.0,0.0,0.0,0.0,0.0,0.0,0.0,0.0,0.0,0.0,0.0,0.0,0.0,0.0,0.0,0.0,0.0,0.0,0.0,9.1032,9.0162,8.9658,0.0,0.0,0.0,0.0,0.0,0.0,0.0,0.0,0.0,0.0,0.0,0.0,0.0,0.0,0.0,0.0,0.0,0.0,0.0,0.0,0.0,0.0,0.0,0.0,0.0,0.0,0.0,0.0,0.0,0.0,0.0,0.0,0.0,0.0,0.0,0.0,0.0,0.0,0.0,0.0,0.0,0.0,0.0,0.0,0.0,0.0,0.0,0.0,0.0,0.0,0.0,0.0,0.0,0.0,0.0,0.0,0.0,0.0,0.0,0.0,0.0,0.0,0.0,0.0,0.0,0.0,0.0,0.0,0.0,0.0,0.0,0.0,0.0,0.0,0.0,0.0,0.0,0.0,0.0,0.0,0.0,0.0,0.0,0.0,0.0,0.0,0.0,0.0,0.0,0.0,0.0,0.0,0.0,0.0,0.0,0.0,0.0,0.0,0.0,0.0,0.0,0.0,0.0,0.0,0.0,0.0,0.0,0.0,0.0,0.0,0.0,8.5631,8.7024,8.7171,0.0,8.689,0.0,0.0,0.0,0.0,0.0,0.0,0.0,0.0,0.0,0.0,0.0,0.0,0.0,0.0,0.0,0.0,0.0,0.0,0.0,0.0,0.0,0.0,0.0,0.0,0.0,0.0,0.0,0.0,0.0,0.0,0.0,0.0,0.0,0.0,0.0,0.0,0.0,0.0,0.0,0.0,0.0,0.0,0.0,0.0,0.0,0.0,0.0,0.0,0.0,0.0,0.0,0.0,0.0,0.0,0.0,0.0,0.0,0.0,0.0,0.0,0.0,0.0,0.0,0.0,0.0,0.0,0.0,0.0,0.0,0.0,0.0,0.0,0.0,0.0,0.0,0.0,0.0,0.0,0.0,0.0,0.0,0.0,0.0,0.0,0.0,0.0,0.0,0.0,0.0,0.0,0.0,0.0,0.0,0.0,0.0,0.0,0.0,0.0,0.0,0.0,0.0,0.0,0.0,0.0,0.0,0.0,0.0,0.0,0.0,0.0,0.0,0.0,8.8691,8.8115,8.689,0.0,0.0,0.0,0.0,0.0,0.0,0.0,0.0,0.0,0.0,0.0,0.0,0.0,0.0,0.0,0.0,0.0,0.0,0.0,0.0,0.0,0.0,0.0,0.0,0.0,0.0,0.0,0.0,0.0,0.0,0.0,0.0,0.0,0.0,0.0,0.0,0.0,0.0,0.0,0.0,0.0,0.0,0.0,0.0,0.0,0.0,0.0,0.0,0.0,0.0,0.0,0.0,0.0,0.0,0.0,0.0,0.0,0.0,0.0,0.0,0.0,0.0,0.0,0.0,0.0,0.0,0.0,0.0,0.0,0.0,0.0,0.0,0.0,0.0,0.0,0.0,0.0,0.0,0.0,0.0,0.0,0.0,0.0,0.0,0.0,0.0,0.0,0.0,0.0,0.0,0.0,0.0,0.0,0.0,0.0,0.0,0.0,0.0,0.0,0.0,0.0,0.0,0.0,0.0,0.0,0.0,0.0,0.0,0.0,0.0,8.6055,8.5988,8.5337,8.454,8.3746,0.0,0.0,0.0,0.0,0.0,0.0,0.0,0.0,0.0,0.0,0.0,0.0,0.0,0.0,0.0,0.0,0.0,0.0,0.0,0.0,0.0,0.0,0.0,0.0,0.0,0.0,0.0,0.0,0.0,0.0,0.0,0.0,0.0,0.0,0.0,0.0,0.0,0.0,0.0,0.0,0.0,0.0,0.0,0.0,0.0,0.0,0.0,0.0,0.0,0.0,0.0,0.0,0.0,0.0,0.0,0.0,0.0,0.0,0.0,0.0,0.0,0.0,0.0,0.0,0.0,0.0,0.0,0.0,0.0,0.0,0.0,0.0,0.0,0.0,0.0,0.0,0.0,0.0,0.0,0.0,0.0,0.0,0.0,0.0,0.0,0.0,0.0,0.0,0.0,0.0,0.0,0.0,0.0,0.0,0.0,0.0,0.0,0.0,0.0,0.0,0.0,0.0,0.0,0.0,0.0,0.0,0.0,0.0,0.0,0.0,0.0,0.0,0.0,0.0,7.9954,0.0,0.0,0.0,0.0,0.0,0.0,0.0,0.0,0.0,0.0,0.0,0.0,0.0,0.0,0.0,0.0,0.0,0.0,0.0,0.0,0.0,0.0,0.0,0.0,0.0,0.0,0.0,0.0,0.0,0.0,0.0,0.0,0.0,0.0,0.0,0.0,0.0,0.0,0.0,0.0,0.0,0.0,0.0,0.0,0.0,0.0,0.0,0.0,0.0,0.0,0.0,0.0,0.0,0.0,0.0,0.0,0.0,0.0,0.0,0.0,0.0,0.0,0.0,0.0,0.0,0.0,0.0,0.0,0.0,0.0,0.0,0.0,0.0,0.0,0.0,0.0,0.0,0.0,0.0,0.0,0.0,0.0,0.0,0.0,0.0,0.0,0.0,0.0,0.0,0.0,0.0,0.0,0.0,0.0,0.0,0.0,0.0,0.0,0.0,0.0,0.0,0.0,0.0,0.0,0.0,0.0,0.0,0.0,0.0,0.0,0.0,0.0,0.0,0.0,0.0,0.0,0.0,0.0,0.0,0.0,0.0,0.0,0.0,0.0,0.0,0.0,0.0,0.0,0.0,0.0,0.0,0.0,0.0,0.0,0.0,0.0,0.0,0.0,0.0,0.0,0.0,0.0,0.0,0.0,0.0,0.0,0.0,0.0,0.0,0.0,0.0,0.0,0.0,0.0,0.0,0.0,0.0,0.0,0.0,0.0,0.0,0.0,0.0,0.0,0.0,0.0,0.0,0.0,0.0,0.0,0.0,0.0,0.0,0.0,0.0,0.0,0.0,0.0,0.0,0.0,0.0,0.0,0.0,0.0,0.0,0.0,0.0,0.0,0.0,0.0,0.0,0.0,0.0,0.0,0.0,0.0,0.0,0.0,0.0,0.0,0.0,0.0,0.0,0.0,0.0,0.0,0.0,0.0,0.0,0.0,0.0,0.0,0.0,0.0,0.0,0.0,0.0,0.0,0.0,0.0,0.0,0.0,0.0,0.0,0.0,0.0,0.0,0.0,0.0,0.0,0.0,0.0,0.0,0.0,0.0,0.0,0.0,0.0,0.0,0.0,0.0,0.0,0.0,0.0,0.0,0.0,0.0,0.0,0.0,0.0,0.0,0.0,0.0,0.0,0.0,0.0,0.0,0.0,0.0,0.0,0.0,0.0,0.0,0.0,0.0,0.0,0.0,0.0,0.0,0.0,0.0,0.0,0.0,0.0,0.0,0.0,0.0,0.0,0.0,0.0,0.0,0.0,0.0,0.0,0.0,0.0,0.0,0.0,0.0,0.0,0.0,0.0,0.0,0.0,0.0,0.0,0.0,0.0,0.0,0.0,0.0,0.0,0.0,0.0,0.0,0.0,0.0,0.0,0.0,0.0,0.0,0.0,0.0,0.0,0.0,0.0,0.0,0.0,0.0,0.0,0.0,0.0,0.0,0.0,0.0,0.0,0.0,0.0,0.0,0.0,0.0,0.0,0.0,0.0,0.0,0.0,0.0,0.0,0.0,0.0,0.0,0.0,0.0,0.0,0.0,0.0,0.0,0.0,0.0,0.0,0.0,0.0,0.0,0.0,0.0,0.0,0.0,0.0,0.0,0.0,0.0,0.0,0.0,0.0,0.0,0.0,0.0,0.0,0.0,0.0,0.0,0.0,0.0,0.0,0.0,0.0,0.0,0.0,0.0,0.0,0.0,0.0,0.0,0.0,0.0,0.0,0.0,0.0,0.0,0.0,0.0,0.0,0.0,0.0,0.0,0.0,0.0,0.0,0.0,0.0,0.0,0.0,0.0,0.0,0.0,0.0,0.0,0.0,0.0,0.0,0.0,0.0,0.0,0.0,0.0,0.0,0.0,0.0,0.0,0.0,0.0,0.0,0.0,0.0,0.0,0.0,0.0,0.0,0.0,0.0,0.0,0.0,0.0,0.0,0.0,0.0,0.0,0.0,0.0,0.0,0.0,0.0,0.0,0.0,0.0,0.0,0.0,0.0,0.0,0.0,0.0,0.0,0.0,0.0,0.0,0.0,0.0,0.0,0.0,0.0,0.0,0.0,0.0,0.0,0.0,0.0,0.0,0.0,0.0,0.0,0.0,0.0,0.0,0.0,0.0,0.0,0.0,0.0,0.0,0.0,0.0,0.0,0.0,0.0,0.0,0.0,0.0,0.0,0.0,0.0,0.0,0.0,0.0,0.0,0.0,0.0,0.0,0.0,0.0,0.0,0.0,0.0,0.0,0.0,0.0,0.0,0.0,0.0,0.0,0.0,0.0,0.0,0.0,0.0,0.0,0.0,0.0,0.0,0.0,0.0,0.0,0.0,0.0,0.0,0.0,0.0,0.0,0.0,0.0,0.0,0.0,0.0,0.0,0.0,0.0,0.0,0.0,0.0,0.0,0.0,0.0,0.0,0.0,0.0,0.0,0.0,0.0,0.0,0.0,0.0,0.0,0.0,0.0,0.0,0.0,0.0,0.0,0.0,0.0,0.0,0.0,0.0,0.0,0.0,0.0,0.0,0.0,0.0,0.0,0.0,0.0,0.0,0.0,0.0,0.0,0.0,0.0,0.0,0.0,0.0,0.0,0.0,0.0,0.0,0.0,0.0,0.0,0.0,0.0,0.0,0.0,0.0,0.0,0.0,0.0,0.0,0.0,0.0,0.0,0.0,0.0,0.0,0.0,0.0,0.0,0.0,0.0,0.0,0.0,0.0,0.0,0.0,0.0,0.0,0.0,0.0,0.0,0.0,0.0,0.0,0.0,0.0,0.0,0.0,0.0,0.0,0.0,0.0,0.0,0.0,0.0,0.0,0.0,0.0,0.0,0.0,0.0,0.0,0.0,0.0,0.0,0.0,0.0,0.0,0.0,0.0,0.0,0.0,0.0,0.0,0.0,0.0,0.0,0.0,0.0,0.0,0.0,0.0,0.0,0.0,0.0,0.0,0.0,0.0,0.0,0.0,0.0,0.0,0.0,0.0,0.0,0.0,0.0,0.0,0.0,0.0,0.0,0.0,0.0,0.0,0.0,0.0,0.0,0.0,0.0,0.0,0.0,0.0,0.0,0.0,0.0,0.0,0.0,0.0,0.0,0.0,0.0,0.0,0.0,0.0,0.0,0.0,0.0,0.0,0.0,0.0,0.0,0.0,0.0,0.0,0.0,0.0,0.0,0.0,0.0,0.0,0.0,0.0,0.0,0.0,0.0,0.0,0.0,0.0,0.0,0.0,0.0,0.0,0.0,0.0,0.0,0.0,0.0,0.0,0.0,0.0,0.0,0.0,0.0,0.0,0.0,0.0,0.0,0.0,0.0,0.0,0.0,0.0,0.0,0.0,0.0,0.0,0.0,0.0,0.0,0.0,0.0,0.0,0.0,0.0,0.0,0.0,0.0,0.0,0.0,0.0,0.0,0.0,0.0,0.0,0.0,0.0,0.0,0.0,0.0,0.0,0.0,0.0,0.0,0.0,0.0,0.0,0.0,0.0,0.0,0.0,0.0,0.0,0.0,0.0,0.0,0.0,0.0,0.0,0.0,0.0,0.0,0.0,0.0,0.0,0.0,0.0,0.0,0.0,0.0,0.0,0.0,0.0,0.0,0.0,0.0,0.0,0.0,0.0,0.0,0.0,0.0,0.0,0.0,0.0,0.0,0.0,0.0,0.0,0.0,0.0,0.0,0.0,0.0,0.0,0.0,0.0,0.0,0.0,0.0,0.0,0.0,0.0,0.0,0.0,0.0,0.0,0.0,0.0,0.0,0.0,0.0,0.0,0.0,0.0,0.0,0.0,0.0,0.0,0.0,0.0,0.0,0.0,0.0,0.0,0.0,0.0,0.0,0.0,0.0,0.0,0.0,0.0,0.0,0.0,0.0,0.0,0.0,0.0,0.0,0.0,0.0,0.0,0.0,0.0,0.0,0.0,0.0,0.0,0.0,0.0,0.0,0.0,0.0,0.0,0.0,0.0,0.0,0.0,0.0,0.0,0.0,0.0,0.0,0.0,0.0,0.0,0.0,0.0,0.0,0.0,0.0,0.0,0.0,0.0,0.0,0.0,0.0,0.0,0.0,0.0,0.0,0.0,0.0,0.0,0.0,0.0,0.0,0.0,0.0,0.0,0.0,0.0,0.0,0.0,0.0,0.0,0.0,0.0,0.0,0.0,0.0,0.0,0.0,0.0,0.0,0.0,0.0,0.0,0.0,0.0,0.0,0.0,0.0,0.0,0.0,0.0,0.0,0.0,0.0,0.0,0.0,0.0,0.0,0.0,0.0,0.0,0.0,0.0,0.0,0.0,0.0,0.0,0.0,0.0,0.0,0.0,0.0,0.0,0.0,0.0,0.0,0.0,0.0,0.0,0.0,0.0,0.0,0.0,0.0,0.0,0.0,0.0]}],[{"header":{"parameterUnit":"kt","parameterCategory":2,"dx":1,"dy":1,"la1":29.587661999999998,"la2":31.0,"lo1":-88.76705300000003,"lo2":-86.6583820000003,"nx":115,"ny":88,"refTime":"2022-09-23T06:00:00:Z","depth":0,"parameterNumber":2,"parameterNumberName":"V-component_of_WINDS"},"data":[11.9592,11.9012,11.9012,11.9012,11.8984,11.8984,11.9326,11.9895,11.9905,11.9943,11.9791,11.9905,11.9943,11.9905,11.9943,11.9829,11.9526,11.9639,11.9867,11.9943,11.9601,11.9753,11.9753,11.9383,11.9412,11.9212,11.8908,11.8577,11.8501,11.8207,11.8283,11.8918,11.9012,11.9316,11.9895,11.9867,11.9791,11.9791,11.9753,11.9753,11.9753,11.9791,11.9943,11.9943,11.9943,11.9943,11.9943,11.9943,11.9943,11.9943,11.9981,11.9981,12.0133,12.0247,12.055,12.0883,12.1025,12.1262,12.1423,12.1546,12.1509,12.1537,12.1347,12.1025,12.0845,12.0436,12.0361,12.0133,12.0095,12.0047,12.0047,11.9943,11.9943,12.0085,12.0123,12.0579,12.0873,12.0702,12.0588,12.0968,12.1557,12.1984,12.2334,12.2866,12.3502,12.4072,12.4451,12.4793,12.4869,12.4915,12.5021,12.4877,12.4726,12.4839,12.4953,12.4915,12.4801,12.4915,12.4953,12.4755,12.4679,12.4793,12.4498,12.408,12.4232,12.4498,12.4565,12.4337,12.4489,12.4565,12.4717,12.4717,12.4679,12.4489,12.4042,11.9867,11.9791,11.9791,11.9753,11.9782,11.9753,11.9829,11.9905,11.9943,11.9943,11.9943,11.9943,11.9943,11.9943,11.9943,11.9943,11.9943,11.9943,11.9943,11.9943,11.9943,11.9943,11.9943,11.9943,11.9829,11.9715,11.9639,11.9488,11.9326,11.9336,11.9336,11.9677,11.9829,11.9857,11.9905,11.9943,11.9943,11.9943,11.9943,11.9943,11.9943,11.9943,11.9943,11.9943,11.9943,11.9943,11.9943,11.9943,11.9943,11.9943,11.9943,11.9943,11.9943,11.9943,12.0171,12.0171,12.0379,12.0389,12.0446,12.0626,12.0512,12.0399,12.0171,12.0133,12.0161,12.0057,12.0057,11.9981,11.9981,11.9943,11.9943,11.9943,11.9943,11.9981,12.0009,12.0161,12.0133,12.0095,12.0095,12.0095,12.0693,12.1291,12.1718,12.2182,12.2857,12.3578,12.4072,12.4413,12.4603,12.4308,12.4232,12.4194,12.4042,12.4422,12.4801,12.4688,12.446,12.4498,12.4232,12.4261,12.4186,12.3739,12.3368,12.3245,12.3321,12.3473,12.3587,12.3701,12.3806,12.3911,12.3806,12.3549,12.3625,12.3663,12.3245,11.9943,11.9943,11.9943,11.9943,11.9943,11.9943,11.9943,11.9943,11.9943,11.9943,11.9943,11.9943,11.9943,11.9943,11.9943,11.9943,11.9943,11.9943,11.9943,11.9943,11.9943,11.9943,11.9943,11.9943,11.9943,11.9943,11.9943,11.9943,11.9829,11.9943,11.9943,11.9905,11.9905,11.9905,11.9943,11.9943,11.9943,11.9943,11.9943,11.9943,11.9943,11.9943,11.9943,11.9943,11.9943,11.9943,11.9943,11.9943,11.9943,11.9943,11.9943,11.9943,11.9943,11.9943,11.9943,11.9943,11.9943,11.9943,11.9981,12.0057,12.0057,12.0095,11.9981,11.9981,11.9943,11.9943,11.9943,11.9943,11.9943,11.9943,11.9943,11.9943,11.9943,11.9943,11.9943,11.9943,11.9943,11.9943,11.9943,11.9943,12.0199,12.0721,12.0949,12.1376,12.187,12.2582,12.298,12.3292,12.3359,12.3283,12.3359,12.3359,12.314,12.3368,12.3823,12.3899,12.3928,12.3701,12.3435,12.3359,12.3236,12.2685,12.239,12.2609,12.2723,12.2714,12.2723,12.2913,12.3055,12.3076,12.2819,12.2486,12.2685,12.2837,12.2116,11.9943,11.9943,11.9943,11.9943,11.9943,11.9943,11.9943,11.9943,11.9943,11.9943,11.9943,11.9943,11.9943,11.9943,11.9943,11.9943,11.9943,11.9943,11.9943,11.9943,11.9943,11.9943,11.9943,11.9943,11.9943,11.9943,11.9943,11.9943,11.9943,11.9943,11.9943,11.9943,11.9943,11.9943,11.9943,11.9943,11.9943,11.9943,11.9943,11.9943,11.9943,11.9943,11.9943,11.9943,11.9943,11.9943,11.9943,11.9943,11.9943,11.9943,11.9943,11.9943,11.9943,11.9943,11.9943,11.9943,11.9943,11.9943,11.9943,11.9943,11.9943,11.9943,11.9943,11.9943,11.9943,11.9943,11.9943,11.9943,11.9943,11.9943,11.9943,11.9943,11.9943,11.9943,11.9943,11.9943,11.9943,11.9943,11.9943,11.9943,11.9943,12.0085,12.0161,12.0531,12.0949,12.1443,12.1955,12.2267,12.2381,12.2182,12.2258,12.2363,12.2182,12.2305,12.258,12.2837,12.3026,12.2875,12.2799,12.2562,12.2258,12.1955,12.1756,12.1993,12.2002,12.1774,12.1727,12.2002,12.2116,12.2135,12.1946,12.168,12.1765,12.1803,12.1006,11.9943,11.9943,11.9943,11.9943,11.9943,11.9943,11.9943,11.9943,11.9943,11.9943,11.9943,11.9943,11.9943,11.9943,11.9943,11.9943,11.9943,11.9943,11.9943,11.9943,11.9943,11.9943,11.9943,11.9943,11.9943,11.9943,11.9943,11.9943,11.9943,11.9943,11.9943,11.9943,11.9943,11.9943,11.9943,11.9943,11.9943,11.9943,11.9943,11.9943,11.9943,11.9943,11.9943,11.9943,11.9943,11.9943,11.9943,11.9943,11.9943,11.9943,11.9943,11.9943,11.9943,11.9943,11.9943,11.9943,11.9943,11.9943,11.9943,11.9943,11.9943,11.9943,11.9943,11.9943,11.9943,11.9943,11.9943,11.9943,11.9943,11.9943,11.9943,11.9943,11.9943,11.9943,11.9943,11.9943,11.9943,11.9943,11.9943,11.9943,11.9943,11.9943,12.0047,12.0085,12.0569,12.1016,12.1443,12.1651,12.1537,12.1044,12.112,12.1329,12.1338,12.1461,12.1689,12.1812,12.204,12.2201,12.2267,12.2002,12.149,12.1253,12.113,12.1139,12.112,12.0854,12.0816,12.1082,12.13,12.1262,12.111,12.0873,12.0721,12.0655,12.0237,11.9943,11.9943,11.9943,11.9943,11.9943,11.9943,11.9943,11.9943,11.9943,11.9943,11.9943,11.9943,11.9943,11.9943,11.9943,11.9943,11.9943,11.9943,11.9943,11.9943,11.9943,11.9943,11.9943,11.9943,11.9943,11.9943,11.9943,11.9943,11.9943,11.9943,11.9943,11.9943,11.9943,11.9943,11.9943,11.9943,11.9943,11.9943,11.9943,11.9943,11.9943,11.9943,11.9943,11.9943,11.9943,11.9943,11.9943,11.9943,11.9943,11.9943,11.9943,11.9943,11.9943,11.9943,11.9943,11.9943,11.9943,11.9943,11.9943,11.9943,11.9943,11.9943,11.9943,11.9943,11.9943,11.9943,11.9943,11.9943,11.9943,11.9943,11.9943,11.9943,11.9943,11.9943,11.9943,11.9943,11.9943,11.9943,11.9943,11.9943,11.9943,11.9943,11.9943,11.9943,12.0161,12.0493,12.0731,12.093,12.0664,12.0361,12.0503,12.0645,12.0655,12.0731,12.0617,12.074,12.0863,12.1015,12.1243,12.1196,12.0693,12.0455,12.0531,12.0427,12.0313,12.0313,12.0323,12.0503,12.0617,12.0399,12.0323,12.0313,12.0275,12.0123,12.0085,11.9943,11.9943,11.9943,11.9943,11.9943,11.9943,11.9943,11.9943,11.9943,11.9943,11.9943,11.9943,11.9943,11.9943,11.9943,11.9943,11.9943,11.9943,11.9943,11.9943,11.9943,11.9943,11.9943,11.9943,11.9943,11.9943,11.9943,11.9943,11.9943,11.9943,11.9943,11.9943,11.9943,11.9943,11.9943,11.9943,11.9943,11.9943,11.9943,11.9943,11.9943,11.9943,11.9943,11.9943,11.9943,11.9943,11.9943,11.9943,11.9943,11.9943,11.9943,11.9943,11.9943,11.9943,11.9943,11.9943,11.9943,11.9943,11.9943,11.9943,11.9943,11.9943,11.9943,11.9943,11.9943,11.9943,11.9943,11.9943,11.9943,11.9943,11.9943,11.9943,11.9943,11.9943,11.9943,11.9943,11.9943,11.9943,11.9943,11.9943,11.9943,11.9943,11.9943,11.9943,11.9943,11.9943,12.0019,12.0095,12.0019,12.0057,12.0161,12.0199,12.0209,12.0313,12.0133,12.0171,12.0019,11.9943,12.0171,12.0247,12.0123,12.0123,11.9981,12.0009,12.0123,12.0047,11.9943,12.0019,12.0237,11.9981,11.9981,11.9943,11.9943,12.0009,11.9943,11.9943,11.9943,11.9943,11.9943,11.9943,11.9943,11.9943,11.9943,11.9943,11.9943,11.9943,11.9943,11.9943,11.9943,11.9943,11.9943,11.9943,11.9943,11.9943,11.9943,11.9943,11.9943,11.9943,11.9943,11.9943,11.9943,11.9943,11.9943,11.9943,11.9943,11.9943,11.9943,11.9943,11.9943,11.9943,11.9943,11.9943,11.9943,11.9943,11.9943,11.9943,11.9943,11.9943,11.9943,11.9943,11.9943,11.9943,11.9943,11.9943,11.9943,11.9943,11.9943,11.9943,11.9943,11.9943,11.9943,11.9943,11.9943,11.9943,11.9943,11.9943,11.9943,11.9943,11.9943,11.9943,11.9943,11.9943,11.9943,11.9943,11.9943,11.9943,11.9943,11.9943,11.9943,11.9943,11.9943,11.9943,11.9943,11.9943,11.9943,11.9943,11.9943,11.9943,11.9943,11.9943,11.9943,11.9943,11.9943,11.9943,11.9943,11.9943,11.9943,11.9943,11.9943,11.9943,12.0019,11.9943,11.9943,11.9943,11.9943,11.9943,11.9943,11.9943,11.9943,11.9943,11.9943,11.9943,11.9943,11.9943,11.9943,11.9943,11.9943,11.9943,11.9943,11.9943,11.9943,11.9943,11.9943,11.9943,11.9943,11.9943,11.9943,11.9943,11.9943,11.9943,11.9943,11.9943,11.9943,11.9943,11.9943,11.9943,11.9943,11.9943,11.9943,11.9943,11.9943,11.9943,11.9943,11.9943,11.9943,11.9943,11.9943,11.9943,11.9943,11.9943,11.9943,11.9943,11.9943,11.9943,11.9943,11.9943,11.9943,11.9943,11.9943,11.9943,11.9943,11.9943,11.9943,11.9943,11.9943,11.9943,11.9943,11.9943,11.9943,11.9943,11.9943,11.9943,11.9943,11.9943,11.9943,11.9943,11.9943,11.9943,11.9943,11.9943,11.9943,11.9943,11.9943,11.9943,11.9943,11.9943,11.9943,11.9943,11.9943,11.9943,11.9943,11.9943,11.9943,11.9943,11.9943,11.9943,11.9943,11.9943,11.9943,11.9943,11.9943,11.9943,11.9943,11.9943,11.9943,11.9943,11.9943,11.9943,11.9943,11.9943,11.9943,11.9943,11.9943,11.9943,11.9943,11.9943,11.9943,11.9943,11.9943,11.9943,11.9943,11.9943,11.9943,11.9943,11.9943,11.9943,11.9943,11.9943,11.9943,11.9943,11.9943,11.9943,11.9943,11.9943,11.9943,11.9943,11.9943,11.9943,11.9943,11.9943,11.9943,11.9943,11.9943,11.9943,11.9943,11.9943,11.9943,11.9943,11.9943,11.9943,11.9943,11.9943,11.9943,11.9943,11.9943,11.9943,11.9943,11.9943,11.9943,11.9943,11.9943,11.9943,11.9943,11.9943,11.9943,11.9943,11.9943,11.9943,11.9943,11.9943,11.9943,11.9943,11.9943,11.9943,11.9943,11.9943,11.9943,11.9943,11.9943,11.9943,11.9943,11.9943,11.9943,11.9943,11.9943,11.9943,11.9943,11.9943,11.9943,11.9943,11.9943,11.9943,11.9943,11.9943,11.9943,11.9943,11.9943,11.9943,11.9943,11.9943,11.9943,11.9943,11.9943,11.9943,11.9943,11.9943,11.9943,11.9943,11.9943,11.9943,11.9943,11.9943,11.9943,11.9943,11.9943,11.9943,11.9943,11.9943,11.9943,11.9943,11.9943,11.9943,11.9943,11.9943,11.9943,11.9943,11.9943,11.9943,11.9943,11.9943,11.9943,11.9943,11.9943,11.9943,11.9943,11.9943,11.9943,11.9943,11.9943,11.9943,11.9943,11.9943,11.9943,11.9943,11.9943,11.9943,11.9943,11.9943,11.9943,11.9943,11.9867,11.9943,11.9943,11.9905,11.9857,11.9867,11.9829,11.9791,11.9791,11.9895,11.9943,11.9943,11.9943,11.9943,11.9943,11.9943,11.9943,11.9943,11.9943,11.9943,11.9943,11.9943,11.9943,11.9943,11.9943,11.9943,11.9943,11.9943,11.9943,11.9943,11.9943,11.9943,11.9943,11.9943,11.9943,11.9943,11.9943,11.9943,11.9943,11.9943,11.9943,11.9943,11.9943,11.9943,11.9943,11.9943,11.9943,11.9943,11.9943,11.9943,11.9943,11.9943,11.9943,11.9943,11.9943,11.9943,11.9943,11.9943,11.9943,11.9943,11.9943,11.9943,11.9943,11.9943,11.9943,11.9943,11.9943,11.9943,11.9943,11.9943,11.9943,11.9943,11.9943,11.9943,11.9943,11.9943,11.9943,11.9943,11.9943,11.9943,11.9943,11.9943,11.9943,11.9943,11.9943,11.9943,11.9943,11.9943,11.9943,11.9943,11.9943,11.9943,11.9943,11.9943,11.9943,11.9943,11.9943,11.9943,11.9943,11.9943,11.9943,11.9943,11.9943,11.9943,11.9943,11.9943,11.9943,11.9943,11.9943,11.9943,11.9943,11.9943,11.9943,11.9943,11.9943,11.9098,11.9174,11.9744,11.963,11.906,11.8425,11.8511,11.9022,11.9098,11.9402,11.9943,11.9943,11.9943,11.9943,11.9943,11.9943,11.9943,11.9943,11.9943,11.9943,11.9943,11.9943,11.9943,11.9943,11.9943,11.9943,11.9943,11.9943,11.9943,11.9943,11.9943,11.9943,11.9943,11.9943,11.9943,11.9943,11.9943,11.9943,11.9943,11.9943,11.9943,11.9943,11.9943,11.9943,11.9943,11.9943,11.9943,11.9943,11.9943,11.9943,11.9943,11.9943,11.9943,11.9943,11.9943,11.9943,11.9943,11.9943,11.9943,11.9943,11.9943,11.9943,11.9943,11.9943,11.9943,11.9943,11.9943,11.9943,11.9943,11.9943,11.9943,11.9943,11.9943,11.9943,11.9943,11.9943,11.9943,11.9943,11.9943,11.9943,11.9943,11.9943,11.9943,11.9943,11.9943,11.9943,11.9943,11.9943,11.9943,11.9943,11.9943,11.9943,11.9943,11.9943,11.9943,11.9943,11.9943,11.9943,11.9943,11.9943,11.9943,11.9943,11.9943,11.9943,11.9943,11.9943,11.9943,11.9943,11.9943,11.9943,11.9943,11.9943,11.9943,11.9943,11.9943,11.8453,11.8756,11.888,11.869,11.8225,11.7666,11.7903,11.8633,11.8415,11.8842,11.9943,11.9943,11.9943,11.9943,11.9943,11.9943,11.9943,11.9943,11.9943,11.9943,11.9943,11.9943,11.9943,11.9943,11.9943,11.9943,11.9943,11.9943,11.9943,11.9943,11.9943,11.9943,11.9943,11.9943,11.9943,11.9943,11.9943,11.9943,11.9943,11.9943,11.9943,11.9943,11.9943,11.9943,11.9943,11.9943,11.9943,11.9943,11.9943,11.9943,11.9943,11.9943,11.9943,11.9943,11.9943,11.9943,11.9943,11.9943,11.9943,11.9943,11.9943,11.9943,11.9943,11.9943,11.9943,11.9943,11.9943,11.9943,11.9943,11.9943,11.9943,11.9943,11.9943,11.9943,11.9943,11.9943,11.9943,11.9943,11.9943,11.9943,11.9943,11.9943,11.9943,11.9867,11.9829,11.9905,11.9943,11.9943,11.9943,11.9943,11.9943,11.9943,11.9943,11.9943,11.9943,11.9943,11.9943,11.9943,11.9943,11.9943,11.9943,11.9943,11.9943,11.9943,11.9943,11.9943,11.9943,11.9943,11.9943,11.9943,11.9943,11.9943,11.9943,11.9943,11.9943,11.7742,11.8443,11.7486,11.722,11.7334,11.7269,11.7704,11.8291,11.7666,11.8207,11.9412,11.982,11.9791,11.9905,11.9943,11.9943,11.9943,11.9943,11.9943,11.9943,11.9943,11.9943,11.9943,11.9943,11.9943,11.9943,11.9943,11.9943,11.9943,11.9943,11.9943,11.9943,11.9943,11.9943,11.9943,11.9943,11.9943,11.9943,11.9943,11.9943,11.9943,11.9943,11.9943,11.9943,11.9943,11.9943,11.9943,11.9943,11.9943,11.9943,11.9943,11.9943,11.9943,11.9943,11.9943,11.9943,11.9943,11.9943,11.9943,11.9943,11.9943,11.9943,11.9943,11.9943,11.9943,11.9943,11.9943,11.9943,11.9943,11.9943,11.9943,11.9943,11.9943,11.9943,11.9943,11.9943,11.9943,11.9943,11.9895,11.9943,11.9943,11.9943,11.9943,11.9298,11.9118,11.944,11.9516,11.9516,11.9592,11.9592,11.9668,11.9829,11.9867,11.9905,11.9905,11.9943,11.9943,11.9943,11.9943,11.9943,11.9943,11.9943,11.9943,11.9943,11.9943,11.9943,11.9943,11.9943,11.9943,11.9943,11.9943,11.9943,11.9943,11.9943,11.9943,11.5757,11.5898,11.4981,11.5426,11.6424,11.5882,11.6137,11.682,11.6641,11.7134,11.8045,11.8756,11.9402,11.9829,11.9905,11.9943,11.9943,11.9943,11.9943,11.9943,11.9943,11.9943,11.9943,11.9943,11.9943,11.9943,11.9943,11.9943,11.9943,11.9943,11.9943,11.9943,11.9943,11.9943,11.9943,11.9943,11.9943,11.9943,11.9943,11.9943,11.9943,11.9943,11.9943,11.9943,11.9943,11.9943,11.9943,11.9943,11.9943,11.9943,11.9943,11.9943,11.9943,11.9943,11.9943,11.9943,11.9943,11.9943,11.9943,11.9943,11.9943,11.9943,11.9943,11.9943,11.9943,11.9943,11.9943,11.9943,11.9943,11.9943,11.9943,11.9905,11.9829,11.9753,11.9867,11.9905,11.9943,11.982,11.9744,11.9563,11.9412,11.9601,11.9222,11.8624,11.8615,11.8974,11.9088,11.905,11.9012,11.8946,11.9174,11.9563,11.9639,11.9782,11.9791,11.9905,11.9943,11.9943,11.9943,11.9943,11.9943,11.9943,11.9943,11.9943,11.9943,11.9943,11.9943,11.9943,11.9943,11.9943,11.9943,11.9943,11.9943,11.9943,11.9943,11.362,11.3951,11.3403,11.3783,11.4542,11.4542,11.496,11.5605,11.5757,11.6337,11.7334,11.7666,11.8339,11.9326,11.9829,11.9943,11.9943,11.9943,11.9943,11.9943,11.9943,11.9943,11.9943,11.9943,11.9943,11.9943,11.9943,11.9943,11.9943,11.9943,11.9943,11.9943,11.9943,11.9943,11.9943,11.9943,11.9943,11.9943,11.9943,11.9943,11.9943,11.9943,11.9943,11.9943,11.9943,11.9943,11.9943,11.9943,11.9943,11.9943,11.9943,11.9943,11.9943,11.9943,11.9943,11.9943,11.9943,11.9943,11.9943,11.9943,11.9943,11.9943,11.9943,11.9943,11.9943,11.9943,11.9943,11.9943,11.9943,11.9715,11.9488,11.9715,11.9488,11.9336,11.945,11.9298,11.9032,11.925,11.9326,11.9032,11.8738,11.8587,11.8321,11.7941,11.7931,11.8187,11.8187,11.8159,11.8159,11.8263,11.8653,11.9032,11.9146,11.9374,11.945,11.9649,11.9639,11.9791,11.9791,11.9943,11.9943,11.9943,11.9943,11.9943,11.9943,11.9943,11.9943,11.9943,11.9943,11.9943,11.9943,11.9943,11.9943,11.9943,11.9943,11.1543,11.2393,11.242,11.2458,11.2735,11.3339,11.4049,11.4683,11.4683,11.5616,11.6613,11.6424,11.7048,11.8339,11.9288,11.982,11.9933,11.9943,11.9943,11.9943,11.9943,11.9943,11.9943,11.9943,11.9943,11.9943,11.9943,11.9943,11.9943,11.9943,11.9943,11.9943,11.9943,11.9943,11.9943,11.9943,11.9943,11.9943,11.9943,11.9943,11.9943,11.9943,11.9943,11.9943,11.9943,11.9867,11.9706,11.9867,11.9791,11.9791,11.9829,11.9943,11.9943,11.9943,11.9943,11.9943,11.9943,11.9943,11.9943,11.9943,11.9943,11.9943,11.9943,11.9943,11.9943,11.9943,11.9943,11.9943,11.9753,11.9478,11.9136,11.9298,11.8766,11.8549,11.8624,11.8397,11.8093,11.8349,11.8377,11.8083,11.74,11.7286,11.7286,11.722,11.722,11.7258,11.7258,11.7296,11.7334,11.76,11.7941,11.7903,11.8007,11.8425,11.8587,11.9184,11.9336,11.9601,11.9753,11.9943,11.9943,11.9943,11.9943,11.9905,11.9943,11.9943,11.9943,11.9943,11.9943,11.9943,11.9943,11.9943,11.9943,11.9943,11.9943,11.0734,11.1467,11.1467,11.1873,11.2507,11.2735,11.2898,11.3001,11.3104,11.3669,11.4488,11.5074,11.5795,11.6934,11.8187,11.9326,11.9943,11.9943,11.9943,11.9943,11.9943,11.9943,11.9943,11.9943,11.9943,11.9943,11.9943,11.9943,11.9943,11.9943,11.9943,11.9943,11.9943,11.9943,11.9943,11.9943,11.9943,11.9943,11.9943,11.9943,11.9943,11.9943,11.9943,11.9943,11.9943,11.9639,11.9326,11.9639,11.9639,11.945,11.9563,11.9943,11.9943,11.9943,11.9943,11.9943,11.9943,11.9943,11.9943,11.9905,11.9943,11.9943,11.9943,11.9943,11.9943,11.9943,11.9943,11.982,11.9478,11.8936,11.8643,11.8283,11.779,11.7486,11.7572,11.7762,11.7486,11.741,11.7438,11.6934,11.6099,11.5871,11.5947,11.5947,11.6251,11.6327,11.6489,11.6489,11.6527,11.6765,11.6879,11.6831,11.6982,11.7438,11.7931,11.8425,11.8842,11.9146,11.9478,11.9782,11.9829,11.9943,11.9829,11.9791,11.9829,11.9943,11.9943,11.9943,11.9943,11.9943,11.9943,11.9943,11.9943,11.9943,11.9943,11.0278,11.062,11.0658,11.0924,11.1368,11.1721,11.1911,11.1949,11.2355,11.2773,11.3202,11.3658,11.4493,11.5671,11.6668,11.7921,11.9136,11.9744,11.9943,11.9943,11.9943,11.9943,11.9943,11.9943,11.9943,11.9943,11.9943,11.9943,11.9943,11.9943,11.9943,11.9943,11.9943,11.9943,11.9943,11.9943,11.9943,11.9943,11.9943,11.9943,11.9943,11.9943,11.9943,11.9943,11.9905,11.9715,11.944,11.9791,11.9677,11.9402,11.9326,11.9592,11.9563,11.9298,11.869,11.8766,11.9098,11.9364,11.9392,11.9782,11.9905,11.9943,11.9943,11.9943,11.9943,11.9943,11.9943,11.9782,11.9278,11.8633,11.8121,11.7752,11.7031,11.6641,11.7031,11.6965,11.6575,11.6651,11.6451,11.6099,11.5633,11.5329,11.5101,11.5177,11.5329,11.5481,11.5643,11.5681,11.5681,11.5795,11.5909,11.5871,11.5909,11.6403,11.6907,11.7552,11.8093,11.8681,11.9126,11.9478,11.9639,11.9829,11.9829,11.9526,11.9753,11.9943,11.9943,11.9905,11.9943,11.9943,11.9943,11.9943,11.9943,11.9943,11.9943,11.0038,11.0038,11.0038,11.0038,11.0164,11.0708,11.0985,11.1099,11.1748,11.2165,11.2279,11.2355,11.324,11.4368,11.4759,11.5936,11.7476,11.8529,11.9032,11.9032,11.9554,11.963,11.9706,11.9791,11.9791,11.9791,11.9677,11.9753,11.9867,11.9943,11.9943,11.9943,11.9943,11.9943,11.9943,11.9943,11.9943,11.9943,11.9943,11.9943,11.9943,11.9943,11.9943,11.9943,11.9943,11.9677,11.9526,11.9526,11.9601,11.9336,11.886,11.8756,11.8491,11.7438,11.7031,11.7296,11.7921,11.8339,11.8605,11.9212,11.9668,11.9753,11.9829,11.9905,11.9782,11.9857,11.9791,11.9592,11.905,11.8301,11.7334,11.6917,11.6299,11.5871,11.6061,11.6386,11.5643,11.5643,11.5806,11.5491,11.5329,11.5101,11.5101,11.5139,11.5215,11.5291,11.5378,11.534,11.5329,11.5329,11.5329,11.5215,11.5101,11.5529,11.5985,11.6755,11.7372,11.7987,11.8339,11.869,11.9032,11.945,11.9526,11.8994,11.8994,11.9412,11.9706,11.9857,11.9895,11.9943,11.9943,11.9943,11.9943,11.9943,11.9943,11.0038,11.0038,11.0038,11.0038,11.005,11.0164,11.024,11.024,11.038,11.0924,11.1315,11.1391,11.1987,11.2936,11.3604,11.4033,11.5009,11.6147,11.7362,11.7476,11.8453,11.887,11.906,11.9336,11.9412,11.8946,11.8908,11.926,11.9639,11.9943,11.9791,11.9933,11.9905,11.9943,11.9943,11.9943,11.9943,11.9943,11.9943,11.9943,11.9943,11.9943,11.9943,11.9943,11.9867,11.9298,11.8577,11.8501,11.8311,11.6944,11.7362,11.6907,11.5985,11.4933,11.4765,11.6299,11.6479,11.6831,11.7362,11.8225,11.8785,11.8946,11.9412,11.9488,11.9184,11.9288,11.9336,11.906,11.8709,11.8035,11.6603,11.6061,11.5453,11.5253,11.5215,11.5329,11.5166,11.5139,11.5291,11.5101,11.5101,11.5101,11.5101,11.5101,11.5101,11.5101,11.5101,11.5101,11.5139,11.5139,11.5177,11.5101,11.5101,11.5443,11.5529,11.6137,11.6489,11.6972,11.7286,11.7562,11.7866,11.8235,11.8425,11.8121,11.8197,11.8615,11.8984,11.9146,11.945,11.9905,11.9905,11.9829,11.9867,11.9943,11.9943,11.0038,11.0038,11.0038,11.0038,11.0038,11.0038,11.0038,11.0038,11.0038,11.0214,11.0518,11.0556,11.1076,11.1873,11.2709,11.3669,11.4542,11.5692,11.6413,11.6907,11.7514,11.8045,11.8197,11.8359,11.8435,11.8159,11.8073,11.8197,11.8653,11.8994,11.9298,11.9326,11.9715,11.982,11.9943,11.9943,11.9905,11.9905,11.9943,11.9943,11.9943,11.9943,11.9943,11.9933,11.9478,11.906,11.8111,11.8121,11.7324,11.6365,11.534,11.4417,11.3761,11.3392,11.3479,11.4239,11.4591,11.5133,11.554,11.6251,11.6848,11.6744,11.7504,11.7618,11.7731,11.8159,11.8283,11.8159,11.7893,11.759,11.6403,11.5529,11.5139,11.5101,11.5101,11.5101,11.5101,11.5101,11.5101,11.5101,11.5101,11.5101,11.5101,11.5101,11.5101,11.5101,11.5101,11.5101,11.5101,11.5101,11.5101,11.5101,11.5101,11.5101,11.5177,11.5415,11.5844,11.6147,11.6527,11.6717,11.6955,11.7172,11.7314,11.74,11.7448,11.7855,11.8083,11.8245,11.8511,11.8956,11.9364,11.9563,11.9706,11.9744,11.9782,11.0038,11.0038,11.0038,11.0038,11.0038,11.0038,11.0038,11.0038,11.0038,11.005,11.0076,11.0076,11.043,11.0974,11.1645,11.2697,11.3658,11.4212,11.5312,11.6082,11.6499,11.6841,11.6613,11.6841,11.702,11.721,11.7182,11.7296,11.7562,11.8197,11.8519,11.8501,11.8918,11.9374,11.9374,11.9374,11.9706,11.9706,11.9867,11.9829,11.9677,11.9601,11.9516,11.9222,11.8728,11.8339,11.7949,11.7134,11.6158,11.4971,11.3468,11.2431,11.2089,11.1976,11.2127,11.2443,11.2921,11.3274,11.3642,11.439,11.4835,11.5036,11.5692,11.592,11.5844,11.6451,11.6765,11.6624,11.6803,11.6565,11.5947,11.5405,11.5139,11.5101,11.5101,11.5101,11.5101,11.5101,11.5101,11.5101,11.5101,11.5101,11.5101,11.5101,11.5101,11.5101,11.5101,11.5101,11.5101,11.5101,11.5101,11.5101,11.5101,11.5101,11.5139,11.5253,11.5491,11.5757,11.5871,11.6023,11.6261,11.6413,11.6289,11.6403,11.6651,11.6917,11.721,11.7372,11.7762,11.8121,11.8491,11.887,11.9212,11.9478,11.9554,11.0038,11.0038,11.0038,11.0038,11.0038,11.0038,11.0038,11.0038,11.0038,11.0038,11.0038,11.0038,11.0152,11.0164,11.062,11.0506,11.0772,11.1493,11.1706,11.2872,11.4201,11.4998,11.4553,11.5085,11.573,11.6299,11.6337,11.6679,11.7134,11.7382,11.7534,11.7638,11.7714,11.7752,11.8055,11.8539,11.8832,11.8946,11.9374,11.9336,11.8946,11.887,11.8605,11.8055,11.7704,11.702,11.5871,11.4705,11.3502,11.1885,11.1505,11.1076,11.0456,11.038,11.0658,11.1277,11.1517,11.1885,11.2557,11.3187,11.3756,11.3794,11.4504,11.4846,11.4325,11.477,11.5009,11.445,11.4884,11.5177,11.5025,11.5063,11.4911,11.4911,11.4938,11.5025,11.5101,11.5101,11.5101,11.5101,11.5025,11.5063,11.5101,11.5101,11.5063,11.4987,11.5101,11.5101,11.5101,11.5101,11.5101,11.5101,11.5101,11.5101,11.5063,11.5063,11.5253,11.5367,11.5443,11.5519,11.5757,11.5681,11.5443,11.5443,11.592,11.6261,11.6375,11.6727,11.7193,11.7524,11.759,11.8045,11.8577,11.8794,11.9136,11.0038,11.0038,11.0038,11.0038,11.0038,11.0038,11.0038,11.0038,11.0038,11.0038,11.0038,11.0038,11.0038,11.0114,11.048,11.067,11.0784,11.1254,11.1569,11.2165,11.3039,11.3354,11.3327,11.387,11.4705,11.5491,11.5557,11.5757,11.6099,11.6527,11.6717,11.6793,11.7182,11.7382,11.7372,11.7855,11.8007,11.8045,11.8245,11.8321,11.8007,11.7969,11.7676,11.7448,11.6917,11.6289,11.5063,11.3734,11.2264,11.0962,11.0506,11.0392,11.005,11.0038,11.0164,11.0442,11.0518,11.0658,11.1102,11.1379,11.1555,11.1706,11.234,11.2504,11.2568,11.3088,11.3533,11.3062,11.3354,11.3571,11.3609,11.3636,11.381,11.4125,11.3875,11.3609,11.3636,11.3658,11.3647,11.3609,11.3647,11.3761,11.4212,11.425,11.4515,11.4846,11.4911,11.4949,11.4949,11.5101,11.5101,11.5101,11.5101,11.5063,11.5025,11.5063,11.5177,11.5204,11.5242,11.5215,11.5329,11.5291,11.5177,11.5215,11.5378,11.554,11.5567,11.5757,11.6299,11.6651,11.6662,11.7031,11.76,11.7941,11.8425,10.9367,10.9367,10.9341,10.9367,10.9341,10.9367,10.9367,10.9367,10.9329,10.9227,10.9303,10.9367,10.9405,10.9683,11.02,11.0682,11.086,11.1455,11.19,11.1888,11.1672,11.171,11.2291,11.3251,11.4098,11.4667,11.5025,11.5063,11.5139,11.5681,11.5947,11.5985,11.6413,11.6727,11.6907,11.6955,11.7041,11.7107,11.7296,11.741,11.7182,11.7134,11.6889,11.6537,11.5854,11.5074,11.3973,11.2849,11.1482,11.019,11.0038,11.0038,11.0038,11.0038,11.0076,11.0088,11.0076,11.0076,11.0076,11.0126,11.0114,11.0088,11.081,11.0871,11.0898,11.1531,11.1786,11.1926,11.2127,11.2241,11.2279,11.2469,11.2849,11.3213,11.2747,11.2367,11.2583,11.2534,11.2534,11.2534,11.261,11.2898,11.3251,11.3452,11.3631,11.4076,11.4255,11.4255,11.4065,11.4141,11.419,11.4455,11.4694,11.4835,11.4911,11.4987,11.4987,11.4938,11.4835,11.4797,11.4835,11.4873,11.4949,11.5025,11.5139,11.5264,11.5177,11.5128,11.5367,11.5882,11.5996,11.6223,11.6727,11.7145,11.7552,10.7645,10.7633,10.7645,10.7759,10.7784,10.7784,10.786,10.7721,10.7721,10.7797,10.7759,10.7898,10.8164,10.8644,10.8872,10.9315,10.9974,11.0164,11.0164,10.9974,10.9569,10.9809,11.1049,11.2428,11.3312,11.3908,11.4683,11.5063,11.5101,11.5215,11.5139,11.5188,11.5367,11.5291,11.5529,11.5985,11.6299,11.6375,11.6955,11.6907,11.6365,11.6261,11.5627,11.4196,11.3919,11.3187,11.1972,11.1391,11.0784,11.0126,10.981,10.981,10.9962,11.0012,10.986,10.9785,10.9974,10.986,10.9962,10.9772,10.9823,10.986,10.9986,11.0088,11.0202,11.0418,11.0494,11.0494,11.0936,11.1251,11.1429,11.1835,11.2317,11.2496,11.1797,11.1683,11.2317,11.242,11.223,11.2344,11.2496,11.2545,11.2545,11.2595,11.2659,11.2849,11.2925,11.3001,11.3028,11.3218,11.3229,11.3441,11.3756,11.3973,11.4255,11.4331,11.4417,11.4304,11.4201,11.4266,11.4406,11.4493,11.4607,11.4721,11.4835,11.4987,11.5063,11.5063,11.5253,11.5378,11.5491,11.5605,11.5871,11.6213,11.663,10.7493,10.7493,10.7493,10.7493,10.7493,10.7493,10.7493,10.7493,10.7493,10.7493,10.7481,10.7455,10.7671,10.7873,10.7949,10.8164,10.8366,10.843,10.8455,10.8354,10.805,10.8214,10.8898,11.0048,11.1225,11.2872,11.4379,11.5063,11.5101,11.5101,11.5101,11.5101,11.5101,11.5101,11.5139,11.534,11.5519,11.5557,11.5795,11.5768,11.5453,11.4971,11.4336,11.3691,11.2667,11.1832,11.1213,11.015,10.9239,10.862,10.843,10.843,10.843,10.8442,10.843,10.843,10.843,10.843,10.843,10.8544,10.862,10.9049,10.9163,10.9379,10.9898,11.0038,11.0038,11.0038,11.0278,11.0442,11.048,11.0836,11.095,11.0962,11.0632,11.0632,11.0848,11.0988,11.0988,11.1064,11.1026,11.1228,11.1505,11.1695,11.1873,11.2431,11.2534,11.2534,11.2534,11.2469,11.2659,11.2849,11.2986,11.3176,11.3495,11.3685,11.3772,11.3593,11.3414,11.3506,11.3723,11.3875,11.3875,11.3951,11.4152,11.4239,11.4607,11.4748,11.4721,11.5063,11.5177,11.5215,11.5215,11.5481,11.5795,10.6696,10.6696,10.6696,10.6671,10.6696,10.6721,10.6696,10.6696,10.6696,10.6709,10.6696,10.6696,10.6873,10.7063,10.7139,10.7253,10.7417,10.6924,10.6848,10.7076,10.7139,10.7266,10.7633,10.8101,10.9417,11.1341,11.3024,11.4,11.4255,11.4531,11.4835,11.5025,11.5101,11.5101,11.5101,11.5101,11.5101,11.5101,11.5101,11.5101,11.4987,11.4185,11.3642,11.3225,11.1972,11.0784,11.0036,10.8936,10.8075,10.7595,10.7493,10.7493,10.7519,10.7493,10.7493,10.7493,10.7493,10.7493,10.7493,10.7531,10.7797,10.8176,10.8303,10.8632,10.9113,10.9177,10.9265,10.9569,10.9607,10.9785,10.9936,11.0038,10.9823,10.9265,10.9455,10.9581,10.9721,10.9936,11.0,11.0038,11.0038,11.024,11.067,11.0822,11.1076,11.1558,11.1634,11.1634,11.1672,11.1558,11.1786,11.2089,11.2139,11.2253,11.2773,11.3115,11.2898,11.2542,11.2378,11.2367,11.2697,11.2925,11.2811,11.2887,11.3164,11.3506,11.3951,11.4103,11.3951,11.4103,11.4217,11.4379,11.4607,11.4873,11.5139,10.4617,10.4232,10.4852,10.402,10.3733,10.3659,10.4443,10.3995,10.4444,10.4407,10.4345,10.5103,10.5646,10.6215,10.6329,10.6683,10.6924,10.5836,10.5633,10.6266,10.6329,10.6709,10.7228,10.7341,10.7949,10.8986,11.0492,11.1683,11.2621,11.3327,11.406,11.4835,11.4835,11.4786,11.4987,11.4721,11.4873,11.4797,11.4607,11.4759,11.4949,11.3794,11.2921,11.2355,11.1429,10.991,10.7746,10.7557,10.7417,10.7341,10.7367,10.7455,10.7266,10.7291,10.7379,10.7266,10.7341,10.7443,10.7405,10.7303,10.7253,10.7493,10.7519,10.7569,10.7797,10.7759,10.8025,10.853,10.872,10.8974,10.9671,10.9785,10.9227,10.7974,10.8265,10.8682,10.8834,10.9455,11.0,10.9848,10.9772,10.9962,11.0012,10.9986,11.0164,11.0278,11.038,11.038,11.0456,11.0494,11.0544,11.0974,11.1239,11.1417,11.1976,11.2431,11.1885,11.1479,11.1315,11.1341,11.171,11.1824,11.1748,11.1862,11.2139,11.2492,11.2963,11.3229,11.3115,11.3153,11.3001,11.3077,11.3468,11.3859,11.4239,9.3757,9.3783,9.3783,9.3757,9.3783,9.3757,9.3783,9.4191,9.7761,9.9445,10.0235,10.3422,10.5115,10.5368,10.5381,10.557,10.5684,10.5267,10.5115,10.5406,10.5406,10.5557,10.5785,10.576,10.6506,10.7835,10.8506,10.9733,11.1467,11.1858,11.2466,11.3343,11.3343,11.3408,11.3267,11.2747,11.2758,11.3039,11.2215,11.1976,11.2226,11.1061,11.0188,10.9847,10.9151,10.805,10.6785,10.6709,10.6456,10.5874,10.576,10.576,10.5798,10.5823,10.5798,10.5823,10.5798,10.576,10.5785,10.5798,10.6051,10.6607,10.6709,10.6949,10.7417,10.7493,10.7582,10.7759,10.7898,10.7949,10.8214,10.8316,10.8088,10.7708,10.7721,10.7847,10.7911,10.8139,10.8354,10.843,10.843,10.8658,10.8974,10.9087,10.9379,10.9948,11.0038,11.0038,11.0038,11.0038,11.0164,11.0354,11.0404,11.0658,11.0722,11.0836,11.0442,11.0404,11.029,11.043,11.0646,11.0684,11.076,11.0886,11.1152,11.1493,11.1835,11.2241,11.2431,11.2583,11.2355,11.2165,11.2595,11.2936,11.3164,8.7817,8.7817,8.7791,8.7817,8.7817,8.7817,8.7817,8.8175,9.1666,9.435,9.6847,10.01,10.2899,10.4925,10.4356,10.4053,10.4091,10.4419,10.4557,10.4571,10.4849,10.4939,10.5001,10.5355,10.6089,10.6962,10.7405,10.848,11.0176,11.0606,11.1201,11.1949,11.2355,11.2355,11.2025,11.1493,11.1467,11.1835,11.0734,11.0392,11.1023,10.9517,10.8201,10.7367,10.6823,10.6355,10.5823,10.5873,10.5557,10.4976,10.4939,10.4812,10.4595,10.4533,10.4419,10.4091,10.4028,10.4053,10.4053,10.4053,10.4443,10.5266,10.5404,10.5721,10.6393,10.6582,10.6734,10.6987,10.7088,10.6683,10.6418,10.6456,10.6582,10.662,10.6873,10.7063,10.7101,10.7303,10.7493,10.7493,10.7493,10.7658,10.8139,10.8252,10.848,10.8999,10.9075,10.9063,10.9139,10.9353,10.9493,10.9543,10.9759,10.9823,10.9393,10.9113,10.9151,10.9189,10.9417,10.9531,10.9785,10.9898,11.0126,11.0316,11.048,11.0784,11.0772,11.1114,11.119,11.1368,11.1379,11.1379,11.1987,11.1999,11.2177,8.6012,8.5741,8.5893,8.5349,8.576,8.5495,8.5672,8.5007,8.6127,8.9511,9.3915,9.5647,9.8891,10.3222,10.148,10.1694,10.2074,10.2645,10.3156,10.3809,10.4419,10.4787,10.4925,10.5772,10.6139,10.6139,10.6911,10.7797,10.8594,10.9467,11.0366,11.1137,11.19,11.1938,11.1239,11.0909,11.0985,11.086,10.9948,11.0012,11.0492,10.9327,10.7468,10.5533,10.509,10.514,10.4925,10.4925,10.4863,10.4825,10.4711,10.4457,10.3834,10.3782,10.3391,10.2659,10.2545,10.2521,10.2559,10.2597,10.2925,10.3619,10.3872,10.4088,10.4774,10.4849,10.5178,10.6012,10.5911,10.5404,10.4265,10.4495,10.4849,10.4887,10.562,10.6088,10.6139,10.6658,10.7303,10.7266,10.7152,10.7152,10.7266,10.7405,10.7519,10.7671,10.7595,10.7671,10.786,10.8252,10.853,10.8758,10.9113,10.9341,10.7936,10.7898,10.7784,10.7936,10.8442,10.8644,10.8936,10.9227,10.9531,10.9797,10.9683,10.9683,10.9823,10.9898,10.9936,11.0164,11.0176,11.0544,11.1114,11.1163,11.1277,7.4687,7.4687,7.4687,7.4713,7.4713,7.4713,7.4687,7.5155,7.894,8.1537,8.3937,9.1593,9.3876,9.1856,9.1242,9.3236,9.6527,9.7062,9.9124,10.2641,10.3014,10.3128,10.3242,10.4075,10.4479,10.4721,10.5974,10.6759,10.7063,10.8328,10.9467,11.024,11.0582,11.0582,11.024,10.9075,10.8784,10.9138,10.7341,10.6772,10.762,10.7759,10.7253,10.6076,10.5924,10.5355,10.4227,10.4113,10.3823,10.3166,10.3104,10.3014,10.2811,10.2835,10.2697,10.2483,10.2445,10.2445,10.2445,10.2445,10.2559,10.2773,10.2811,10.2925,10.3066,10.3104,10.3242,10.3532,10.3494,10.3456,10.2849,10.3014,10.3104,10.3204,10.3961,10.4479,10.4531,10.5178,10.5646,10.5671,10.5671,10.5621,10.576,10.6228,10.6797,10.7228,10.7443,10.7493,10.7531,10.7607,10.7809,10.7835,10.7987,10.7974,10.7633,10.7341,10.7493,10.7595,10.7569,10.7835,10.7898,10.7974,10.8202,10.8658,10.8316,10.824,10.8506,10.8392,10.8354,10.8936,10.9569,11.0126,11.0202,11.0316,11.0468,6.9444,6.9444,6.947,6.9444,6.9444,6.947,6.9444,6.9704,7.2937,7.5718,7.873,8.4431,8.5455,8.2697,8.4748,8.7292,9.0455,9.3016,9.5878,9.8657,10.1384,10.2445,10.2545,10.3391,10.3796,10.3948,10.5152,10.5607,10.5607,10.6949,10.8316,10.9379,10.986,10.986,10.9391,10.848,10.8189,10.8606,10.6899,10.6241,10.6721,10.6582,10.6241,10.5772,10.5089,10.424,10.3367,10.3239,10.2987,10.2507,10.2445,10.2317,10.2,10.1976,10.1786,10.1434,10.142,10.142,10.1444,10.1396,10.1572,10.1938,10.1976,10.2128,10.2393,10.2445,10.2103,10.161,10.1762,10.1976,10.1976,10.2279,10.2445,10.2521,10.2911,10.3277,10.3277,10.366,10.3939,10.3939,10.3963,10.4015,10.4481,10.4962,10.5607,10.6279,10.643,10.6393,10.6468,10.6772,10.6987,10.6987,10.6658,10.6532,10.643,10.6468,10.6468,10.6506,10.6734,10.6987,10.7101,10.7215,10.7455,10.7531,10.7607,10.7607,10.7379,10.7557,10.7569,10.7949,10.8746,10.8999,10.9025,10.8999,10.8961,6.8431,6.8405,6.8457,6.8405,6.8431,6.8457,6.8457,6.8483,6.8457,7.1637,7.6131,7.5965,7.5814,7.6334,8.043,8.2762,8.3987,8.9197,9.1866,9.3022,9.8293,10.108,10.115,10.2286,10.3116,10.3644,10.4443,10.4582,10.4062,10.5455,10.6924,10.8379,10.9341,10.9341,10.8644,10.8505,10.853,10.853,10.7847,10.7493,10.7405,10.6013,10.5115,10.4939,10.3508,10.2597,10.2355,10.2355,10.2293,10.2217,10.2141,10.1862,10.124,10.1164,10.0799,10.003,9.9931,9.9907,9.9931,9.9907,10.0319,10.1027,10.1126,10.1406,10.2003,10.2065,10.142,10.0372,10.0647,10.1126,10.1202,10.1686,10.2028,10.199,10.2241,10.2331,10.2393,10.2393,10.2445,10.2445,10.2635,10.2735,10.3519,10.3758,10.4012,10.466,10.4887,10.5026,10.5064,10.5658,10.6152,10.5797,10.5317,10.4812,10.4774,10.4774,10.4988,10.5026,10.562,10.6076,10.6266,10.6658,10.7228,10.6772,10.7038,10.7,10.7101,10.7228,10.7164,10.7303,10.7443,10.7455,10.7493,10.7645,10.7493,6.8405,6.8405,6.8405,6.8405,6.8405,6.8405,6.8405,6.8405,6.8379,6.9175,7.0406,7.0299,7.0193,7.0321,7.1415,7.4247,7.7965,7.961,8.2405,8.6153,8.8168,9.0969,9.4286,9.5814,9.8366,10.17,10.3353,10.3961,10.3923,10.4785,10.5785,10.6835,10.7671,10.7949,10.7784,10.7759,10.7759,10.7759,10.7595,10.7493,10.7481,10.7114,10.6279,10.5077,10.4546,10.3532,10.1658,10.152,10.1216,10.0523,10.0485,10.041,10.0196,10.0244,10.013,9.9931,9.9907,9.9907,9.9907,9.9907,10.0006,10.0206,10.022,10.0296,10.041,9.994,9.9371,9.9181,9.975,10.0206,10.0281,10.0386,10.0485,10.0523,10.1079,10.1506,10.1582,10.209,10.2445,10.2445,10.2445,10.2445,10.2697,10.2759,10.2863,10.3128,10.3608,10.4012,10.4126,10.4747,10.4609,10.3736,10.3166,10.3128,10.3052,10.357,10.3974,10.405,10.4734,10.5102,10.5229,10.5343,10.5533,10.5533,10.5533,10.5533,10.5533,10.557,10.5861,10.638,10.6557,10.6785,10.7215,10.7341,10.7114,6.8405,6.8405,6.8405,6.8405,6.8405,6.8405,6.8405,6.8379,6.786,6.7782,6.8015,6.8092,6.8222,6.8405,6.8405,7.0015,7.2886,7.5281,7.791,8.0754,8.3456,8.607,8.8648,9.1815,9.4643,9.7229,10.0828,10.2442,10.2228,10.366,10.4443,10.4595,10.5747,10.6544,10.6949,10.7303,10.7493,10.7493,10.7139,10.6949,10.6911,10.531,10.3853,10.2634,10.1367,10.0142,9.8901,9.8849,9.8872,9.8839,9.8862,9.8839,9.8862,9.9157,9.9385,9.9408,9.9703,9.9907,9.9907,9.9575,9.9195,9.8877,9.8839,9.8862,9.8839,9.8422,9.8217,9.824,9.8573,9.8953,9.9371,9.9385,9.956,9.9878,10.0357,10.0647,10.0723,10.1079,10.1282,10.1306,10.1282,10.1434,10.1862,10.19,10.1976,10.2431,10.2773,10.3163,10.3177,10.357,10.3445,10.2635,10.2445,10.2445,10.2483,10.2849,10.3125,10.3177,10.3532,10.3749,10.3825,10.3787,10.3787,10.3787,10.3787,10.3825,10.3825,10.4115,10.4557,10.5138,10.5417,10.5785,10.614,10.6329,10.5722,6.8146,6.8171,6.8146,6.8171,6.8146,6.8197,6.8171,6.8093,6.7107,6.7003,6.7495,6.7495,6.7755,6.8171,6.8197,6.8197,6.8478,7.2937,7.5052,7.5415,7.9872,8.2353,8.3317,8.7943,9.0473,9.1555,9.7243,9.9777,9.9486,10.203,10.3201,10.2887,10.3939,10.514,10.6139,10.6936,10.7291,10.7139,10.6392,10.5974,10.5911,10.2801,10.0613,9.9544,9.7476,9.6144,9.5883,9.5915,9.6255,9.7169,9.7215,9.7261,9.7276,9.7861,9.8217,9.8255,9.8839,9.9295,9.9324,9.8763,9.8179,9.7656,9.758,9.7306,9.6774,9.7017,9.7261,9.7238,9.7352,9.7671,9.8293,9.8521,9.8825,9.9423,9.9575,9.9651,9.9764,9.9802,9.9878,10.003,9.9907,10.0296,10.0951,10.1041,10.1292,10.1838,10.1914,10.2103,10.2179,10.2155,10.2103,10.2103,10.2065,10.2128,10.1952,10.2141,10.2279,10.2279,10.2407,10.2635,10.2673,10.2673,10.2673,10.2483,10.2635,10.2597,10.2559,10.3101,10.3543,10.3695,10.414,10.4508,10.4609,10.4584,10.4191,6.7004,6.6978,6.7004,6.7004,6.6978,6.7004,6.7004,6.6952,6.6745,0.0,0.0,6.6848,6.6925,6.7004,6.6952,6.6978,6.7054,6.7954,6.872,6.9247,7.0589,7.3517,7.7744,7.9612,8.2556,8.6543,9.1837,9.4682,9.5424,9.9648,10.2328,10.3391,10.3077,10.3684,10.5178,10.6076,10.619,10.5419,10.462,10.4251,10.4213,10.2906,10.1074,9.8806,9.8303,9.7098,9.5167,9.5069,9.5211,9.5484,9.5513,9.5498,9.5513,9.5627,9.5681,9.5703,9.5817,9.6212,9.6805,9.6729,9.6903,9.7519,9.758,9.6084,9.2545,9.429,9.5498,9.5498,9.6114,9.6501,9.663,9.7306,9.7861,9.7974,9.8012,9.8278,9.8839,9.8953,9.9181,9.9779,9.9855,9.9969,10.0144,10.0182,10.022,10.0372,10.05,10.0561,10.1178,10.0951,10.0523,10.0523,10.0599,10.0448,10.0485,10.0989,10.1468,10.1506,10.1976,10.2407,10.2445,10.2445,10.2445,10.2293,10.2445,10.2369,10.2407,10.2545,10.2659,10.2697,10.2811,10.2863,10.2863,10.29,10.2724,6.6692,6.6692,6.6692,6.6692,0.0,6.6692,6.6043,6.4977,6.5001,6.5133,6.5443,6.5654,6.599,6.6275,6.6251,6.6431,6.6666,6.6406,6.6587,6.7132,6.7393,6.8962,7.1573,7.4765,7.7528,8.0163,8.8997,9.1896,8.9734,9.7721,10.0849,9.9061,10.0922,10.1399,10.0664,10.3546,10.5038,10.4939,10.376,10.3101,10.3039,10.1404,9.9681,9.8043,9.7436,0.0,0.0,0.0,0.0,0.0,0.0,0.0,0.0,0.0,0.0,9.2535,9.2497,9.2299,9.1836,9.1402,9.1424,9.1842,9.1858,9.0668,8.7736,8.9785,9.1374,9.1784,9.2604,9.3439,9.43,9.5104,9.5833,9.6273,9.6645,9.7017,9.7435,9.7852,9.8293,9.8687,9.9105,9.9309,9.9309,9.9636,9.9893,9.9907,9.9931,10.0106,10.041,10.0182,9.9931,9.9907,9.9907,9.9907,9.9969,10.0357,10.0609,10.0623,10.0865,10.1154,10.1192,10.1154,10.1192,10.1169,10.1192,10.1169,10.1169,10.1534,10.1824,10.1862,10.2141,10.2217,10.1282,10.1131,10.1154,6.6017,6.6017,6.6068,6.6043,6.6042,6.5938,6.4793,6.3022,6.3046,6.3334,6.3832,6.425,6.4691,6.5079,6.5313,6.5651,6.6017,6.5729,6.5809,6.6354,6.6251,6.6251,6.6653,7.102,7.312,7.3874,8.4789,8.8244,8.4651,9.4283,9.7952,9.5914,9.7527,9.8145,9.7798,0.0,0.0,0.0,9.9564,9.9207,9.917,9.7,9.5734,9.5585,9.4796,0.0,9.438,9.4232,9.4174,9.4307,9.3623,0.0,0.0,0.0,0.0,0.0,0.0,0.0,0.0,0.0,0.0,0.0,8.4366,8.3771,8.3188,8.5329,8.6985,8.7491,8.8433,8.9557,9.0735,9.1554,9.2617,9.391,9.4652,9.5296,9.597,9.6471,9.701,9.7291,9.7875,9.8308,9.8521,9.9067,9.9499,9.9636,9.9689,9.9689,9.9665,9.9665,9.9703,9.9893,9.9907,9.9907,9.9907,9.9931,10.0006,9.9907,9.9907,9.9931,10.0006,9.9969,9.9931,9.9969,9.9907,9.9969,9.9969,10.0509,10.0989,10.0989,10.1544,10.1572,10.0196,9.9931,9.9907,6.38,6.38,6.38,6.38,6.375,6.3159,6.2533,6.1852,6.1875,6.2118,6.259,6.2692,6.2507,6.2219,6.323,6.3748,6.3826,6.4168,6.4664,6.5108,6.469,6.4742,6.5211,6.6916,6.7714,6.7964,7.454,8.039,8.5326,8.6341,9.1797,10.0646,9.2611,9.3124,10.2003,9.3531,8.6797,8.2692,8.5971,8.7682,8.7707,8.6596,8.7083,8.9116,8.9141,9.0195,9.2504,9.1883,9.1553,9.1633,9.1568,9.1188,9.0489,8.8959,8.7094,0.0,8.2717,0.0,0.0,0.0,0.0,0.0,0.0,0.0,0.0,8.2524,8.4037,8.3427,8.4716,8.5396,8.495,8.563,8.7309,9.0257,9.073,9.1998,9.4755,9.4595,9.474,9.6258,9.6486,9.6888,9.7542,9.7785,9.8141,9.8787,9.8763,9.8573,9.8839,9.8801,9.9043,9.984,9.9907,9.9727,9.9741,9.9817,9.9817,9.9855,9.9779,9.9907,9.9817,9.9817,9.9855,9.9855,9.9802,9.9817,9.9893,9.9992,10.0092,10.0106,10.0182,10.0144,9.9855,9.9779,9.9907,6.2372,6.2421,6.2736,6.2297,6.1413,6.1104,6.0848,6.0659,6.0637,6.0767,6.0978,6.0978,6.1052,6.1133,6.2034,6.2554,6.2843,6.3053,6.3289,6.3523,6.3313,6.3289,6.3525,6.4068,6.4484,6.5064,7.124,7.4394,7.5024,8.1029,8.5637,8.8501,8.6788,8.8153,9.2202,8.4693,8.1428,8.298,8.4444,8.5123,8.4975,8.4176,8.4262,8.5451,8.785,8.9311,8.9614,9.1961,9.2825,9.1882,8.8955,8.7278,8.713,8.3198,7.9958,0.0,0.0,0.0,0.0,0.0,0.0,0.0,0.0,0.0,0.0,0.0,7.909,7.9157,8.2672,8.3276,7.9289,8.2193,8.4116,8.3778,8.4615,8.5583,8.6628,8.9275,9.0924,9.0768,9.3123,9.4968,9.537,9.5848,9.663,9.7913,9.6471,9.5446,9.5901,9.6789,9.7473,9.7852,9.8308,9.8635,9.8597,9.8635,9.8635,9.8635,9.8635,9.8611,9.8635,9.8573,9.8635,9.8658,9.8635,9.8611,9.8635,9.8953,9.9233,9.9195,9.8915,9.8649,9.8611,9.862,9.8635,6.102,6.0997,6.0871,6.0121,5.9056,5.9208,5.9316,5.9445,5.9445,5.9445,5.9445,5.9468,5.9501,5.9638,6.0147,6.0741,6.137,6.1523,6.1731,6.199,6.1967,6.1967,6.199,6.2146,6.2479,6.3276,6.8229,6.955,6.7887,7.5342,7.8868,7.863,7.9802,7.9947,7.8781,7.4994,7.581,8.1268,8.0848,8.0657,8.0686,8.0052,8.0068,8.0975,8.4117,8.6089,8.6729,9.024,9.1997,9.1557,8.6824,8.4015,8.3818,7.8059,0.0,0.0,0.0,0.0,0.0,0.0,0.0,0.0,0.0,6.4908,6.3858,0.0,7.3118,0.0,7.906,8.053,7.6651,7.9158,0.0,0.0,7.8373,7.8552,7.8815,8.2718,8.5333,8.4885,8.8512,9.1326,9.2135,9.3017,9.4068,9.5484,9.3553,9.2126,9.2728,9.4246,9.5423,9.5628,9.6205,9.6744,9.6949,9.7116,9.7367,9.7542,9.758,9.758,9.758,9.758,9.758,9.758,9.758,9.758,9.7618,9.805,9.8255,9.7648,9.7276,9.6995,9.6972,9.7139,9.7268,5.9326,5.9074,5.7004,5.6339,5.6728,5.729,5.7809,5.8255,5.8255,5.8233,5.8281,5.8233,5.7688,5.6733,5.6784,0.0,5.851,5.9096,5.988,6.0799,6.0779,6.0753,6.0828,6.1413,6.1699,6.1797,6.2769,6.612,7.116,6.7632,7.0997,8.0769,7.101,6.5564,6.5031,6.5125,6.6087,6.8222,6.8246,6.8699,6.9682,6.9179,7.0524,7.4,7.3953,7.7255,8.4029,8.4037,8.5429,8.8811,8.573,8.2871,8.0628,0.0,0.0,0.0,0.0,0.0,0.0,0.0,0.0,0.0,0.0,0.0,0.0,0.0,0.0,6.834,7.1844,0.0,7.9329,7.5983,0.0,0.0,0.0,7.1685,7.4753,7.547,7.7053,8.0352,0.0,0.0,8.761,8.8674,8.9509,9.0479,9.0396,9.0223,9.0282,9.1665,9.3054,9.3671,9.3883,9.4224,9.4938,9.5493,9.6031,9.6835,9.758,9.7352,9.7314,9.7329,9.7481,9.7352,9.7542,9.7466,9.7542,9.7329,9.6972,9.4534,9.4671,9.5232,9.5209,9.5696,9.6106,5.6251,5.4318,5.3408,5.3155,5.3374,5.392,5.4719,5.5576,5.5934,5.6111,5.6106,5.5706,5.4885,5.377,5.3458,0.0,0.0,0.0,5.7073,5.806,5.8463,5.9052,5.9701,5.998,6.0266,6.0607,6.1107,6.2889,6.5726,6.4349,6.4927,6.6674,0.0,0.0,6.128,6.219,6.3443,6.5079,6.5446,6.6042,6.6847,6.6301,6.6531,6.7762,6.9854,7.3677,7.9363,8.1379,8.325,8.5047,7.9866,7.5285,0.0,0.0,0.0,0.0,0.0,0.0,0.0,0.0,0.0,0.0,0.0,5.4557,5.3675,0.0,0.0,0.0,6.1737,6.2997,6.7365,7.048,0.0,0.0,0.0,0.0,0.0,0.0,0.0,7.2845,7.8026,8.2412,8.4954,8.5098,8.522,8.6118,8.624,8.6077,8.5626,0.0,8.8443,8.9761,8.9089,8.9276,9.1581,9.0931,9.0601,9.1972,9.302,9.3677,9.3715,9.4177,9.4503,9.4541,9.4541,9.4541,9.4541,9.3683,9.262,9.1725,9.2143,9.2696,9.2712,9.2956,9.3373,5.2699,0.0,0.0,0.0,0.0,5.0707,5.1557,5.2641,5.3116,5.322,5.3058,5.2765,0.0,0.0,0.0,0.0,0.0,0.0,5.4396,5.5436,5.6922,5.7931,5.8576,5.8602,5.8788,5.913,5.9186,5.9501,6.0117,6.05,5.9018,5.5887,0.0,0.0,0.0,0.0,6.1546,6.3339,6.43,6.5081,6.5909,6.5444,6.4847,6.4144,6.6231,6.9236,7.3351,7.5913,7.7851,7.9014,7.3192,0.0,0.0,0.0,0.0,0.0,0.0,0.0,0.0,0.0,0.0,0.0,0.0,0.0,0.0,0.0,0.0,0.0,0.0,0.0,5.8552,6.4433,6.5673,0.0,0.0,0.0,0.0,0.0,0.0,0.0,0.0,0.0,7.9076,8.0304,8.144,0.0,0.0,8.3571,8.2102,8.3441,8.4865,8.5607,8.4507,0.0,8.7118,8.5943,8.5374,8.7274,8.8791,8.9847,9.0082,9.0084,9.0159,9.0714,9.0886,9.0406,8.8839,8.7332,8.6579,8.66,8.6991,8.7386,8.7423,8.7758,8.8222,0.0,0.0,0.0,0.0,0.0,0.0,0.0,0.0,4.9733,4.9447,0.0,4.9428,0.0,0.0,0.0,0.0,4.9008,5.0602,0.0,0.0,5.6412,5.7857,5.7385,5.7311,5.7406,5.7359,5.6298,5.6022,5.6348,5.4906,0.0,0.0,0.0,0.0,0.0,0.0,5.9367,6.1647,6.331,6.469,6.5781,6.5807,6.5286,6.409,6.2121,6.2668,6.5881,6.6144,6.7358,7.0382,6.6326,0.0,0.0,0.0,0.0,0.0,0.0,0.0,0.0,0.0,0.0,0.0,0.0,0.0,0.0,0.0,0.0,0.0,0.0,0.0,0.0,5.8088,0.0,0.0,0.0,0.0,0.0,0.0,0.0,0.0,0.0,0.0,6.8326,7.3862,7.831,7.9028,0.0,0.0,0.0,0.0,8.3249,8.176,8.0785,8.0594,8.147,8.1499,8.2213,8.4564,0.0,0.0,8.7419,8.5588,8.4549,8.6172,8.6921,8.5702,7.9621,7.856,7.8504,7.8484,7.8652,7.8424,7.85,7.9918,8.0796,0.0,0.0,0.0,0.0,0.0,0.0,0.0,0.0,0.0,4.5551,0.0,4.5188,0.0,0.0,0.0,0.0,0.0,0.0,0.0,0.0,5.1291,5.2693,5.3914,5.355,5.3576,0.0,5.3484,5.2102,0.0,0.0,0.0,0.0,0.0,0.0,0.0,0.0,5.7969,5.9954,6.1644,6.2869,6.3523,6.2873,6.2302,6.1863,6.0429,6.1297,6.4688,6.3825,6.3894,0.0,0.0,0.0,0.0,0.0,0.0,0.0,0.0,0.0,0.0,0.0,0.0,0.0,0.0,0.0,0.0,0.0,0.0,0.0,0.0,0.0,0.0,0.0,5.3007,0.0,0.0,0.0,0.0,0.0,0.0,0.0,0.0,0.0,6.2606,6.8431,7.3618,7.6311,7.8258,7.9318,7.923,0.0,0.0,0.0,0.0,0.0,0.0,0.0,7.8543,7.7926,7.8108,7.8447,7.882,7.8646,7.8663,7.9264,0.0,0.0,7.357,7.3054,7.3332,7.337,7.385,7.4261,7.4315,7.474,7.5353,0.0,0.0,0.0,0.0,0.0,0.0,0.0,0.0,0.0,4.1578,4.1536,0.0,0.0,0.0,0.0,0.0,0.0,0.0,0.0,0.0,0.0,0.0,5.0344,5.0044,0.0,0.0,0.0,0.0,0.0,0.0,0.0,0.0,0.0,0.0,0.0,0.0,5.6615,5.8173,6.0247,6.1468,6.176,6.1062,6.0487,6.0124,5.9256,5.9584,6.1346,0.0,0.0,0.0,0.0,0.0,0.0,0.0,0.0,0.0,0.0,0.0,0.0,0.0,0.0,0.0,0.0,0.0,0.0,0.0,0.0,0.0,0.0,0.0,0.0,0.0,4.7462,0.0,0.0,0.0,0.0,0.0,0.0,0.0,0.0,0.0,0.0,0.0,6.7397,7.0783,7.413,7.6441,7.7076,7.8565,7.9924,0.0,0.0,0.0,0.0,0.0,0.0,0.0,0.0,0.0,0.0,0.0,0.0,0.0,0.0,6.8267,6.5459,6.5326,6.5677,6.5677,0.0,0.0,0.0,0.0,0.0,0.0,0.0,0.0,0.0,0.0,0.0,0.0,0.0,0.0,0.0,3.7663,0.0,0.0,3.7609,0.0,0.0,0.0,0.0,0.0,0.0,0.0,0.0,0.0,0.0,0.0,0.0,0.0,0.0,0.0,0.0,0.0,0.0,0.0,0.0,0.0,0.0,5.528,5.6417,5.9119,6.0569,6.0595,6.0569,5.9994,5.9044,5.8381,5.729,5.5732,0.0,0.0,0.0,0.0,0.0,0.0,0.0,0.0,0.0,0.0,0.0,0.0,0.0,0.0,0.0,0.0,0.0,0.0,0.0,0.0,0.0,0.0,0.0,0.0,0.0,0.0,4.2955,4.391,4.4267,0.0,0.0,0.0,0.0,0.0,0.0,0.0,0.0,0.0,6.2658,7.025,7.5251,7.4243,7.6721,7.8433,7.7613,7.6126,7.5275,7.614,7.5512,7.4749,0.0,0.0,0.0,0.0,0.0,0.0,0.0,0.0,0.0,0.0,0.0,0.0,0.0,0.0,0.0,0.0,0.0,0.0,0.0,0.0,0.0,0.0,0.0,0.0,0.0,0.0,0.0,0.0,0.0,0.0,0.0,0.0,0.0,0.0,0.0,0.0,0.0,0.0,0.0,0.0,0.0,0.0,0.0,0.0,0.0,0.0,0.0,0.0,0.0,0.0,0.0,0.0,0.0,0.0,5.3868,5.5815,5.745,5.851,5.8856,5.8077,5.7485,5.7169,5.6293,5.5332,0.0,0.0,0.0,0.0,0.0,0.0,0.0,0.0,0.0,0.0,0.0,0.0,0.0,0.0,0.0,0.0,0.0,0.0,0.0,0.0,0.0,0.0,0.0,0.0,0.0,0.0,0.0,0.0,4.2887,4.3097,4.2509,0.0,0.0,0.0,0.0,0.0,0.0,0.0,0.0,0.0,0.0,7.0904,7.3208,7.6123,7.797,7.7665,7.5256,7.3904,7.533,7.3711,7.1611,6.9516,0.0,0.0,0.0,0.0,0.0,0.0,0.0,0.0,0.0,0.0,0.0,0.0,0.0,0.0,0.0,0.0,0.0,0.0,0.0,0.0,0.0,0.0,0.0,0.0,0.0,0.0,0.0,0.0,0.0,0.0,0.0,0.0,0.0,0.0,0.0,0.0,0.0,0.0,0.0,0.0,0.0,0.0,0.0,0.0,0.0,0.0,0.0,0.0,0.0,0.0,0.0,0.0,0.0,5.2829,5.4901,5.6719,5.7679,5.7809,5.7113,5.652,5.6105,5.5274,5.4307,0.0,0.0,0.0,0.0,0.0,0.0,0.0,0.0,0.0,0.0,0.0,0.0,0.0,0.0,0.0,0.0,0.0,0.0,0.0,0.0,0.0,0.0,0.0,0.0,0.0,0.0,0.0,0.0,4.097,4.149,4.1599,0.0,0.0,0.0,0.0,0.0,0.0,0.0,0.0,0.0,0.0,6.7,7.0927,7.3734,0.0,0.0,7.4198,7.2671,7.212,7.1893,7.0203,6.5495,6.2988,0.0,0.0,0.0,0.0,0.0,0.0,0.0,0.0,0.0,0.0,0.0,0.0,0.0,0.0,0.0,0.0,0.0,0.0,0.0,0.0,0.0,0.0,0.0,0.0,0.0,0.0,0.0,0.0,0.0,0.0,0.0,0.0,0.0,0.0,0.0,0.0,0.0,0.0,0.0,0.0,0.0,0.0,0.0,0.0,0.0,0.0,0.0,0.0,0.0,0.0,0.0,0.0,0.0,5.379,5.6567,5.7762,5.7385,5.7259,5.6667,5.5576,5.4962,5.3786,0.0,0.0,0.0,0.0,0.0,0.0,0.0,0.0,0.0,0.0,0.0,0.0,0.0,0.0,0.0,0.0,0.0,0.0,0.0,0.0,0.0,0.0,0.0,0.0,0.0,0.0,0.0,0.0,0.0,0.0,0.0,0.0,0.0,0.0,0.0,0.0,0.0,0.0,0.0,0.0,0.0,6.3449,6.7722,7.0027,7.1691,0.0,7.2267,7.0703,6.7089,6.9513,6.9354,6.2002,0.0,0.0,0.0,0.0,0.0,0.0,0.0,0.0,0.0,0.0,0.0,0.0,0.0,0.0,0.0,0.0,0.0,0.0,0.0,0.0,0.0,0.0,0.0,0.0,0.0,0.0,0.0,0.0,0.0,0.0,0.0,0.0,0.0,0.0,0.0,0.0,0.0,0.0,0.0,0.0,0.0,0.0,0.0,0.0,0.0,0.0,0.0,0.0,0.0,0.0,0.0,0.0,0.0,0.0,5.3252,5.5607,5.6987,5.7285,5.6506,5.5721,5.5029,5.359,0.0,0.0,0.0,0.0,0.0,0.0,0.0,0.0,0.0,0.0,0.0,0.0,0.0,0.0,0.0,0.0,0.0,0.0,0.0,0.0,0.0,0.0,0.0,0.0,0.0,0.0,0.0,3.3969,0.0,0.0,0.0,0.0,0.0,0.0,0.0,0.0,0.0,0.0,0.0,0.0,0.0,0.0,6.0629,6.4681,6.6564,6.7823,0.0,0.0,6.0471,6.2683,6.2051,6.0591,0.0,0.0,0.0,0.0,0.0,0.0,0.0,0.0,0.0,0.0,0.0,0.0,0.0,0.0,0.0,0.0,0.0,0.0,0.0,0.0,0.0,0.0,0.0,0.0,0.0,0.0,0.0,0.0,0.0,0.0,0.0,0.0,0.0,0.0,0.0,0.0,0.0,0.0,0.0,0.0,0.0,0.0,0.0,0.0,0.0,0.0,0.0,0.0,0.0,0.0,0.0,0.0,0.0,0.0,4.9517,5.2265,5.475,5.6313,5.6879,5.6261,5.5576,5.4821,5.3051,5.1304,0.0,0.0,0.0,0.0,0.0,0.0,0.0,0.0,0.0,0.0,0.0,0.0,0.0,0.0,0.0,0.0,0.0,0.0,0.0,0.0,0.0,0.0,0.0,0.0,0.0,0.0,0.0,0.0,0.0,0.0,0.0,0.0,0.0,0.0,0.0,0.0,0.0,0.0,0.0,0.0,0.0,0.0,6.0283,6.1459,0.0,0.0,0.0,5.6764,5.8457,0.0,0.0,0.0,0.0,0.0,0.0,0.0,0.0,0.0,0.0,0.0,0.0,0.0,0.0,0.0,0.0,0.0,0.0,0.0,0.0,0.0,0.0,0.0,0.0,0.0,0.0,0.0,0.0,0.0,0.0,0.0,0.0,0.0,0.0,0.0,0.0,0.0,0.0,0.0,0.0,0.0,0.0,0.0,0.0,0.0,0.0,0.0,0.0,0.0,0.0,0.0,0.0,0.0,0.0,0.0,0.0,0.0,5.0972,5.3804,5.555,5.6136,5.611,5.5628,5.4639,5.2921,5.1194,0.0,0.0,0.0,0.0,0.0,0.0,0.0,0.0,0.0,0.0,0.0,0.0,0.0,0.0,0.0,0.0,0.0,0.0,0.0,0.0,0.0,0.0,0.0,0.0,0.0,0.0,0.0,0.0,0.0,0.0,0.0,0.0,0.0,0.0,0.0,0.0,0.0,0.0,0.0,0.0,0.0,5.1534,5.5531,5.577,5.5448,0.0,0.0,5.5688,5.4567,5.4713,0.0,0.0,0.0,0.0,0.0,0.0,0.0,0.0,0.0,0.0,0.0,0.0,0.0,0.0,0.0,0.0,0.0,0.0,0.0,0.0,0.0,0.0,0.0,0.0,0.0,0.0,0.0,0.0,0.0,0.0,0.0,0.0,0.0,0.0,0.0,0.0,0.0,0.0,0.0,0.0,0.0,0.0,0.0,0.0,0.0,0.0,0.0,0.0,0.0,0.0,0.0,0.0,0.0,0.0,0.0,0.0,4.9276,5.1628,5.355,5.5035,5.4635,5.4064,5.3422,5.2122,5.0396,0.0,0.0,0.0,0.0,0.0,0.0,0.0,0.0,0.0,0.0,0.0,0.0,0.0,0.0,0.0,0.0,0.0,0.0,0.0,0.0,0.0,0.0,0.0,0.0,0.0,0.0,0.0,0.0,0.0,0.0,0.0,0.0,0.0,0.0,0.0,0.0,0.0,0.0,0.0,0.0,0.0,4.8837,5.2583,5.1785,0.0,0.0,0.0,0.0,5.2273,5.0714,0.0,0.0,0.0,0.0,0.0,0.0,0.0,0.0,0.0,0.0,0.0,0.0,0.0,0.0,0.0,0.0,0.0,0.0,0.0,0.0,0.0,0.0,0.0,0.0,0.0,0.0,0.0,0.0,0.0,0.0,0.0,0.0,0.0,0.0,0.0,0.0,0.0,0.0,0.0,0.0,0.0,0.0,0.0,0.0,0.0,0.0,0.0,0.0,0.0,0.0,0.0,0.0,0.0,0.0,0.0,0.0,4.8226,5.0304,5.2297,5.426,5.4012,5.3596,5.3064,5.1686,4.9848,0.0,0.0,0.0,0.0,0.0,0.0,0.0,0.0,0.0,0.0,0.0,0.0,0.0,0.0,0.0,0.0,0.0,0.0,0.0,0.0,0.0,0.0,0.0,0.0,0.0,0.0,0.0,0.0,0.0,0.0,0.0,0.0,0.0,0.0,0.0,0.0,0.0,0.0,0.0,0.0,4.2069,4.4559,4.707,0.0,0.0,0.0,0.0,0.0,0.0,4.787,4.6405,0.0,0.0,0.0,0.0,0.0,0.0,0.0,0.0,0.0,0.0,0.0,0.0,0.0,0.0,0.0,0.0,0.0,0.0,0.0,0.0,0.0,0.0,0.0,0.0,0.0,0.0,0.0,0.0,0.0,0.0,0.0,0.0,0.0,0.0,0.0,0.0,0.0,0.0,0.0,0.0,0.0,0.0,0.0,0.0,0.0,0.0,0.0,0.0,0.0,0.0,0.0,0.0,0.0,0.0,0.0,4.7083,4.8912,5.0887,5.3063,5.3135,5.3019,5.2622,5.1062,4.9112,4.6712,0.0,0.0,0.0,0.0,0.0,0.0,0.0,0.0,0.0,0.0,0.0,0.0,0.0,0.0,0.0,0.0,0.0,0.0,0.0,0.0,0.0,0.0,0.0,0.0,0.0,0.0,0.0,0.0,0.0,0.0,0.0,0.0,0.0,0.0,0.0,0.0,0.0,0.0,0.0,3.9017,4.0257,0.0,0.0,0.0,0.0,0.0,0.0,0.0,0.0,4.4035,0.0,0.0,0.0,0.0,0.0,0.0,0.0,0.0,0.0,0.0,0.0,0.0,0.0,0.0,0.0,0.0,0.0,0.0,0.0,0.0,0.0,0.0,0.0,0.0,0.0,0.0,0.0,0.0,0.0,0.0,0.0,0.0,0.0,0.0,0.0,0.0,0.0,0.0,0.0,0.0,0.0,0.0,0.0,0.0,0.0,0.0,0.0,0.0,0.0,0.0,0.0,0.0,0.0,0.0,0.0,0.0,4.6001,4.7985,5.0103,5.0214,5.0434,5.0873,4.971,4.7778,4.5021,0.0,0.0,0.0,0.0,0.0,0.0,0.0,0.0,0.0,0.0,0.0,0.0,0.0,0.0,0.0,0.0,0.0,0.0,0.0,0.0,0.0,0.0,0.0,0.0,0.0,0.0,0.0,0.0,0.0,0.0,0.0,0.0,0.0,0.0,0.0,0.0,0.0,0.0,3.537,3.6547,0.0,0.0,0.0,0.0,0.0,0.0,0.0,0.0,4.4734,0.0,0.0,0.0,0.0,0.0,0.0,0.0,0.0,0.0,0.0,0.0,0.0,0.0,0.0,0.0,0.0,0.0,0.0,0.0,0.0,0.0,0.0,0.0,0.0,0.0,0.0,0.0,0.0,0.0,0.0,0.0,0.0,0.0,0.0,0.0,0.0,0.0,0.0,0.0,0.0,0.0,0.0,0.0,0.0,0.0,0.0,0.0,0.0,0.0,0.0,0.0,0.0,0.0,0.0,0.0,0.0,0.0,0.0,4.6677,4.8579,4.9236,4.9733,4.9907,4.7761,4.5603,0.0,0.0,0.0,0.0,0.0,0.0,0.0,0.0,0.0,0.0,0.0,0.0,0.0,0.0,0.0,0.0,0.0,0.0,0.0,0.0,0.0,0.0,0.0,0.0,0.0,0.0,0.0,0.0,0.0,0.0,0.0,0.0,0.0,0.0,0.0,0.0,0.0,0.0,0.0,0.0,0.0,0.0,0.0,0.0,0.0,0.0,0.0,0.0,0.0,0.0,0.0,0.0,0.0,0.0,0.0,0.0,0.0,0.0,0.0,0.0,0.0,0.0,0.0,0.0,0.0,0.0,0.0,0.0,0.0,0.0,0.0,0.0,0.0,0.0,0.0,0.0,0.0,0.0,0.0,0.0,0.0,0.0,0.0,0.0,0.0,0.0,0.0,0.0,0.0,0.0,0.0,0.0,0.0,0.0,0.0,0.0,0.0,0.0,0.0,0.0,0.0,0.0,0.0,0.0,0.0,0.0,0.0,0.0,4.5751,4.7464,4.8605,4.9202,4.9195,4.5793,4.3454,0.0,0.0,0.0,0.0,0.0,0.0,0.0,0.0,0.0,0.0,0.0,0.0,0.0,0.0,0.0,0.0,0.0,0.0,0.0,0.0,0.0,0.0,0.0,0.0,0.0,0.0,0.0,0.0,0.0,0.0,0.0,0.0,0.0,0.0,0.0,0.0,0.0,0.0,0.0,0.0,0.0,0.0,0.0,0.0,0.0,0.0,0.0,0.0,3.9423,0.0,0.0,0.0,0.0,0.0,0.0,0.0,0.0,0.0,0.0,0.0,0.0,0.0,0.0,0.0,0.0,0.0,0.0,0.0,0.0,0.0,0.0,0.0,0.0,0.0,0.0,0.0,0.0,0.0,0.0,0.0,0.0,0.0,0.0,0.0,0.0,0.0,0.0,0.0,0.0,0.0,0.0,0.0,0.0,0.0,0.0,0.0,0.0,0.0,0.0,0.0,0.0,0.0,0.0,0.0,0.0,0.0,0.0,0.0,4.4616,4.6374,4.7455,4.8016,4.7877,4.426,4.1911,0.0,0.0,0.0,0.0,0.0,0.0,0.0,0.0,0.0,0.0,0.0,0.0,0.0,0.0,0.0,0.0,0.0,0.0,0.0,0.0,0.0,0.0,0.0,0.0,0.0,0.0,0.0,0.0,0.0,0.0,0.0,0.0,0.0,0.0,0.0,0.0,0.0,0.0,0.0,0.0,0.0,0.0,0.0,0.0,0.0,0.0,0.0,0.0,0.0,0.0,0.0,0.0,0.0,0.0,0.0,0.0,0.0,0.0,0.0,0.0,0.0,0.0,0.0,0.0,0.0,0.0,0.0,0.0,0.0,0.0,0.0,0.0,0.0,0.0,0.0,0.0,0.0,0.0,0.0,0.0,0.0,0.0,0.0,0.0,0.0,0.0,0.0,0.0,0.0,0.0,0.0,0.0,0.0,0.0,0.0,0.0,0.0,0.0,0.0,0.0,0.0,0.0,0.0,0.0,0.0,0.0,0.0,0.0,4.2659,4.3747,4.5187,4.5439,4.4435,4.2155,4.0674,0.0,0.0,0.0,0.0,0.0,0.0,0.0,0.0,0.0,0.0,0.0,0.0,0.0,0.0,0.0,0.0,0.0,0.0,0.0,0.0,0.0,0.0,0.0,0.0,0.0,0.0,0.0,0.0,0.0,0.0,0.0,0.0,0.0,0.0,0.0,0.0,0.0,0.0,0.0,0.0,0.0,0.0,0.0,0.0,0.0,0.0,0.0,0.0,0.0,0.0,0.0,0.0,0.0,0.0,0.0,0.0,0.0,0.0,0.0,0.0,0.0,0.0,0.0,0.0,0.0,0.0,0.0,0.0,0.0,0.0,0.0,0.0,0.0,0.0,0.0,0.0,0.0,0.0,0.0,0.0,0.0,0.0,0.0,0.0,0.0,0.0,0.0,0.0,0.0,0.0,0.0,0.0,0.0,0.0,0.0,0.0,0.0,0.0,0.0,0.0,0.0,0.0,0.0,0.0,0.0,0.0,0.0,0.0,0.0,4.1744,4.2639,4.2545,4.1313,4.031,3.9489,0.0,0.0,0.0,0.0,0.0,0.0,0.0,0.0,0.0,0.0,0.0,0.0,0.0,0.0,0.0,0.0,0.0,0.0,0.0,0.0,0.0,0.0,0.0,0.0,0.0,0.0,0.0,0.0,0.0,0.0,0.0,0.0,0.0,0.0,0.0,0.0,0.0,0.0,0.0,0.0,0.0,0.0,0.0,0.0,0.0,0.0,0.0,0.0,0.0,0.0,0.0,0.0,0.0,0.0,0.0,0.0,0.0,0.0,0.0,0.0,0.0,0.0,0.0,0.0,0.0,0.0,0.0,0.0,0.0,0.0,0.0,0.0,0.0,0.0,0.0,0.0,0.0,0.0,0.0,0.0,0.0,0.0,0.0,0.0,0.0,0.0,0.0,0.0,0.0,0.0,0.0,0.0,0.0,0.0,0.0,0.0,0.0,0.0,0.0,0.0,0.0,0.0,0.0,0.0,0.0,0.0,0.0,0.0,0.0,4.1059,4.0094,3.9519,3.9445,3.8874,3.8306,0.0,0.0,0.0,0.0,0.0,0.0,0.0,0.0,0.0,0.0,0.0,0.0,0.0,0.0,0.0,0.0,0.0,0.0,0.0,0.0,0.0,0.0,0.0,0.0,0.0,0.0,0.0,0.0,0.0,0.0,0.0,0.0,0.0,0.0,0.0,0.0,0.0,0.0,0.0,0.0,0.0,0.0,0.0,0.0,0.0,0.0,0.0,0.0,0.0,0.0,0.0,0.0,0.0,0.0,0.0,0.0,0.0,0.0,0.0,0.0,0.0,0.0,0.0,0.0,0.0,0.0,0.0,0.0,0.0,0.0,0.0,0.0,0.0,0.0,0.0,0.0,0.0,0.0,0.0,0.0,0.0,0.0,0.0,0.0,0.0,0.0,0.0,0.0,0.0,0.0,0.0,0.0,0.0,0.0,0.0,0.0,0.0,0.0,0.0,0.0,0.0,0.0,0.0,0.0,0.0,0.0,0.0,0.0,0.0,3.8341,3.8291,3.8294,3.8308,3.7708,3.7305,3.7097,0.0,0.0,0.0,0.0,0.0,0.0,0.0,0.0,0.0,0.0,0.0,0.0,0.0,0.0,0.0,0.0,0.0,0.0,0.0,0.0,0.0,0.0,0.0,0.0,0.0,0.0,0.0,0.0,0.0,0.0,0.0,0.0,0.0,0.0,0.0,0.0,0.0,0.0,0.0,0.0,0.0,0.0,0.0,0.0,0.0,0.0,0.0,0.0,0.0,0.0,0.0,0.0,0.0,0.0,0.0,0.0,0.0,0.0,0.0,0.0,0.0,0.0,0.0,0.0,0.0,0.0,0.0,0.0,0.0,0.0,0.0,0.0,0.0,0.0,0.0,0.0,0.0,0.0,0.0,0.0,0.0,0.0,0.0,0.0,0.0,0.0,0.0,0.0,0.0,0.0,0.0,0.0,0.0,0.0,0.0,0.0,0.0,0.0,0.0,0.0,0.0,0.0,0.0,0.0,0.0,0.0,0.0,0.0,3.6499,3.6931,3.7167,3.7139,3.6708,3.6381,0.0,0.0,0.0,0.0,0.0,0.0,0.0,0.0,0.0,0.0,0.0,0.0,0.0,0.0,0.0,0.0,0.0,0.0,0.0,0.0,0.0,0.0,0.0,0.0,0.0,0.0,0.0,0.0,0.0,0.0,0.0,0.0,0.0,0.0,0.0,0.0,0.0,0.0,0.0,0.0,0.0,0.0,0.0,0.0,0.0,0.0,0.0,0.0,0.0,0.0,0.0,0.0,0.0,0.0,0.0,0.0,0.0,0.0,0.0,0.0,0.0,0.0,0.0,0.0,0.0,0.0,0.0,0.0,0.0,0.0,0.0,0.0,0.0,0.0,0.0,0.0,0.0,0.0,0.0,0.0,0.0,0.0,0.0,0.0,0.0,0.0,0.0,0.0,0.0,0.0,0.0,0.0,0.0,0.0,0.0,0.0,0.0,0.0,0.0,0.0,0.0,0.0,0.0,0.0,0.0,0.0,0.0,0.0,3.5331,3.5917,3.5982,3.6034,3.5982,3.5982,3.5683,0.0,0.0,0.0,0.0,0.0,0.0,0.0,0.0,0.0,0.0,0.0,0.0,0.0,0.0,0.0,0.0,0.0,0.0,0.0,0.0,0.0,0.0,0.0,0.0,0.0,0.0,0.0,0.0,0.0,0.0,0.0,0.0,0.0,0.0,0.0,0.0,0.0,0.0,0.0,0.0,0.0,0.0,0.0,0.0,0.0,0.0,0.0,0.0,0.0,0.0,0.0,0.0,0.0,0.0,0.0,0.0,0.0,0.0,0.0,0.0,0.0,0.0,0.0,0.0,0.0,0.0,0.0,0.0,0.0,0.0,0.0,0.0,0.0,0.0,0.0,0.0,0.0,0.0,0.0,0.0,0.0,0.0,0.0,0.0,0.0,0.0,0.0,0.0,0.0,0.0,0.0,0.0,0.0,0.0,0.0,0.0,0.0,0.0,0.0,0.0,0.0,0.0,0.0,0.0,0.0,0.0,0.0,0.0,0.0,3.5293,0.0,3.5943,0.0,3.5513,3.5214,0.0,0.0,0.0,0.0,0.0,0.0,0.0,0.0,0.0,0.0,0.0,0.0,0.0,0.0,0.0,0.0,0.0,0.0,0.0,0.0,0.0,0.0,0.0,0.0,0.0,0.0,0.0,0.0,0.0,0.0,0.0,0.0,0.0,0.0,0.0,0.0,0.0,0.0,0.0,0.0,0.0,0.0,0.0,0.0,0.0,0.0,0.0,0.0,0.0,0.0,0.0,0.0,0.0,0.0,0.0,0.0,0.0,0.0,0.0,0.0,0.0,0.0,0.0,0.0,0.0,0.0,0.0,0.0,0.0,0.0,0.0,0.0,0.0,0.0,0.0,0.0,0.0,0.0,0.0,0.0,0.0,0.0,0.0,0.0,0.0,0.0,0.0,0.0,0.0,0.0,0.0,0.0,0.0,0.0,0.0,0.0,0.0,0.0,0.0,0.0,0.0,0.0,0.0,0.0,0.0,0.0,0.0,0.0,0.0,3.4384,3.4579,3.4826,3.5047,3.4852,3.4631,0.0,0.0,0.0,0.0,0.0,0.0,0.0,0.0,0.0,0.0,0.0,0.0,0.0,0.0,0.0,0.0,0.0,0.0,0.0,0.0,0.0,0.0,0.0,0.0,0.0,0.0,0.0,0.0,0.0,0.0,0.0,0.0,0.0,0.0,0.0,0.0,0.0,0.0,0.0,0.0,0.0,0.0,0.0,0.0,0.0,0.0,0.0,0.0,0.0,0.0,0.0,0.0,0.0,0.0,0.0,0.0,0.0,0.0,0.0,0.0,0.0,0.0,0.0,0.0,0.0,0.0,0.0,0.0,0.0,0.0,0.0,0.0,0.0,0.0,0.0,0.0,0.0,0.0,0.0,0.0,0.0,0.0,0.0,0.0,0.0,0.0,0.0,0.0,0.0,0.0,0.0,0.0,0.0,0.0,0.0,0.0,0.0,0.0,0.0,0.0,0.0,0.0,0.0,0.0,0.0,0.0,0.0,0.0,0.0,0.0,3.2927,3.2864,3.3511,3.3942,3.3954,0.0,0.0,0.0,0.0,0.0,0.0,0.0,0.0,0.0,0.0,0.0,0.0,0.0,0.0,0.0,0.0,0.0,0.0,0.0,0.0,0.0,0.0,0.0,0.0,0.0,0.0,0.0,0.0,0.0,0.0,0.0,0.0,0.0,0.0,0.0,0.0,0.0,0.0,0.0,0.0,0.0,0.0,0.0,0.0,0.0,0.0,0.0,0.0,0.0,0.0,0.0,0.0,0.0,0.0,0.0,0.0,0.0,0.0,0.0,0.0,0.0,0.0,0.0,0.0,0.0,0.0,0.0,0.0,0.0,0.0,0.0,0.0,0.0,0.0,0.0,0.0,0.0,0.0,0.0,0.0,0.0,0.0,0.0,0.0,0.0,0.0,0.0,0.0,0.0,0.0,0.0,0.0,0.0,0.0,0.0,0.0,0.0,0.0,0.0,0.0,0.0,0.0,0.0,0.0,0.0,0.0,0.0,0.0,0.0,0.0,3.3617,0.0,3.3993,3.3785,3.3577,3.342,0.0,0.0,0.0,0.0,0.0,0.0,0.0,0.0,0.0,0.0,0.0,0.0,0.0,0.0,0.0,0.0,0.0,0.0,0.0,0.0,0.0,0.0,0.0,0.0,0.0,0.0,0.0,0.0,0.0,0.0,0.0,0.0,0.0,0.0,0.0,0.0,0.0,0.0,0.0,0.0,0.0,0.0,0.0,0.0,0.0,0.0,0.0,0.0,0.0,0.0,0.0,0.0,0.0,0.0,0.0,0.0,0.0,0.0,0.0,0.0,0.0,0.0,0.0,0.0,0.0,0.0,0.0,0.0,0.0,0.0,0.0,0.0,0.0,0.0,0.0,0.0,0.0,0.0,0.0,0.0,0.0,0.0,0.0,0.0,0.0,0.0,0.0,0.0,0.0,0.0,0.0,0.0,0.0,0.0,0.0,0.0,0.0,0.0,0.0,0.0,0.0,0.0,0.0,0.0,0.0,0.0,0.0,0.0,0.0,0.0,0.0,3.3175,3.29,3.273,0.0,0.0,0.0,0.0,0.0,0.0,0.0,0.0,0.0,0.0,0.0,0.0,0.0,0.0,0.0,0.0,0.0,0.0,0.0,0.0,0.0,0.0,0.0,0.0,0.0,0.0,0.0,0.0,0.0,0.0,0.0,0.0,0.0,0.0,0.0,0.0,0.0,0.0,0.0,0.0,0.0,0.0,0.0,0.0,0.0,0.0,0.0,0.0,0.0,0.0,0.0,0.0,0.0,0.0,0.0,0.0,0.0,0.0,0.0,0.0,0.0,0.0,0.0,0.0,0.0,0.0,0.0,0.0,0.0,0.0,0.0,0.0,0.0,0.0,0.0,0.0,0.0,0.0,0.0,0.0,0.0,0.0,0.0,0.0,0.0,0.0,0.0,0.0,0.0,0.0,0.0,0.0,0.0,0.0,0.0,0.0,0.0,0.0,0.0,0.0,0.0,0.0,0.0,0.0,0.0,0.0,0.0,0.0,0.0,0.0,0.0,3.1141,3.1755,3.1795,0.0,3.1679,0.0,0.0,0.0,0.0,0.0,0.0,0.0,0.0,0.0,0.0,0.0,0.0,0.0,0.0,0.0,0.0,0.0,0.0,0.0,0.0,0.0,0.0,0.0,0.0,0.0,0.0,0.0,0.0,0.0,0.0,0.0,0.0,0.0,0.0,0.0,0.0,0.0,0.0,0.0,0.0,0.0,0.0,0.0,0.0,0.0,0.0,0.0,0.0,0.0,0.0,0.0,0.0,0.0,0.0,0.0,0.0,0.0,0.0,0.0,0.0,0.0,0.0,0.0,0.0,0.0,0.0,0.0,0.0,0.0,0.0,0.0,0.0,0.0,0.0,0.0,0.0,0.0,0.0,0.0,0.0,0.0,0.0,0.0,0.0,0.0,0.0,0.0,0.0,0.0,0.0,0.0,0.0,0.0,0.0,0.0,0.0,0.0,0.0,0.0,0.0,0.0,0.0,0.0,0.0,0.0,0.0,0.0,0.0,0.0,0.0,0.0,0.0,3.2281,3.2085,3.1679,0.0,0.0,0.0,0.0,0.0,0.0,0.0,0.0,0.0,0.0,0.0,0.0,0.0,0.0,0.0,0.0,0.0,0.0,0.0,0.0,0.0,0.0,0.0,0.0,0.0,0.0,0.0,0.0,0.0,0.0,0.0,0.0,0.0,0.0,0.0,0.0,0.0,0.0,0.0,0.0,0.0,0.0,0.0,0.0,0.0,0.0,0.0,0.0,0.0,0.0,0.0,0.0,0.0,0.0,0.0,0.0,0.0,0.0,0.0,0.0,0.0,0.0,0.0,0.0,0.0,0.0,0.0,0.0,0.0,0.0,0.0,0.0,0.0,0.0,0.0,0.0,0.0,0.0,0.0,0.0,0.0,0.0,0.0,0.0,0.0,0.0,0.0,0.0,0.0,0.0,0.0,0.0,0.0,0.0,0.0,0.0,0.0,0.0,0.0,0.0,0.0,0.0,0.0,0.0,0.0,0.0,0.0,0.0,0.0,0.0,3.1308,3.127,3.106,3.0809,3.0546,0.0,0.0,0.0,0.0,0.0,0.0,0.0,0.0,0.0,0.0,0.0,0.0,0.0,0.0,0.0,0.0,0.0,0.0,0.0,0.0,0.0,0.0,0.0,0.0,0.0,0.0,0.0,0.0,0.0,0.0,0.0,0.0,0.0,0.0,0.0,0.0,0.0,0.0,0.0,0.0,0.0,0.0,0.0,0.0,0.0,0.0,0.0,0.0,0.0,0.0,0.0,0.0,0.0,0.0,0.0,0.0,0.0,0.0,0.0,0.0,0.0,0.0,0.0,0.0,0.0,0.0,0.0,0.0,0.0,0.0,0.0,0.0,0.0,0.0,0.0,0.0,0.0,0.0,0.0,0.0,0.0,0.0,0.0,0.0,0.0,0.0,0.0,0.0,0.0,0.0,0.0,0.0,0.0,0.0,0.0,0.0,0.0,0.0,0.0,0.0,0.0,0.0,0.0,0.0,0.0,0.0,0.0,0.0,0.0,0.0,0.0,0.0,0.0,0.0,2.92,0.0,0.0,0.0,0.0,0.0,0.0,0.0,0.0,0.0,0.0,0.0,0.0,0.0,0.0,0.0,0.0,0.0,0.0,0.0,0.0,0.0,0.0,0.0,0.0,0.0,0.0,0.0,0.0,0.0,0.0,0.0,0.0,0.0,0.0,0.0,0.0,0.0,0.0,0.0,0.0,0.0,0.0,0.0,0.0,0.0,0.0,0.0,0.0,0.0,0.0,0.0,0.0,0.0,0.0,0.0,0.0,0.0,0.0,0.0,0.0,0.0,0.0,0.0,0.0,0.0,0.0,0.0,0.0,0.0,0.0,0.0,0.0,0.0,0.0,0.0,0.0,0.0,0.0,0.0,0.0,0.0,0.0,0.0,0.0,0.0,0.0,0.0,0.0,0.0,0.0,0.0,0.0,0.0,0.0,0.0,0.0,0.0,0.0,0.0,0.0,0.0,0.0,0.0,0.0,0.0,0.0,0.0,0.0,0.0,0.0,0.0,0.0,0.0,0.0,0.0,0.0,0.0,0.0,0.0,0.0,0.0,0.0,0.0,0.0,0.0,0.0,0.0,0.0,0.0,0.0,0.0,0.0,0.0,0.0,0.0,0.0,0.0,0.0,0.0,0.0,0.0,0.0,0.0,0.0,0.0,0.0,0.0,0.0,0.0,0.0,0.0,0.0,0.0,0.0,0.0,0.0,0.0,0.0,0.0,0.0,0.0,0.0,0.0,0.0,0.0,0.0,0.0,0.0,0.0,0.0,0.0,0.0,0.0,0.0,0.0,0.0,0.0,0.0,0.0,0.0,0.0,0.0,0.0,0.0,0.0,0.0,0.0,0.0,0.0,0.0,0.0,0.0,0.0,0.0,0.0,0.0,0.0,0.0,0.0,0.0,0.0,0.0,0.0,0.0,0.0,0.0,0.0,0.0,0.0,0.0,0.0,0.0,0.0,0.0,0.0,0.0,0.0,0.0,0.0,0.0,0.0,0.0,0.0,0.0,0.0,0.0,0.0,0.0,0.0,0.0,0.0,0.0,0.0,0.0,0.0,0.0,0.0,0.0,0.0,0.0,0.0,0.0,0.0,0.0,0.0,0.0,0.0,0.0,0.0,0.0,0.0,0.0,0.0,0.0,0.0,0.0,0.0,0.0,0.0,0.0,0.0,0.0,0.0,0.0,0.0,0.0,0.0,0.0,0.0,0.0,0.0,0.0,0.0,0.0,0.0,0.0,0.0,0.0,0.0,0.0,0.0,0.0,0.0,0.0,0.0,0.0,0.0,0.0,0.0,0.0,0.0,0.0,0.0,0.0,0.0,0.0,0.0,0.0,0.0,0.0,0.0,0.0,0.0,0.0,0.0,0.0,0.0,0.0,0.0,0.0,0.0,0.0,0.0,0.0,0.0,0.0,0.0,0.0,0.0,0.0,0.0,0.0,0.0,0.0,0.0,0.0,0.0,0.0,0.0,0.0,0.0,0.0,0.0,0.0,0.0,0.0,0.0,0.0,0.0,0.0,0.0,0.0,0.0,0.0,0.0,0.0,0.0,0.0,0.0,0.0,0.0,0.0,0.0,0.0,0.0,0.0,0.0,0.0,0.0,0.0,0.0,0.0,0.0,0.0,0.0,0.0,0.0,0.0,0.0,0.0,0.0,0.0,0.0,0.0,0.0,0.0,0.0,0.0,0.0,0.0,0.0,0.0,0.0,0.0,0.0,0.0,0.0,0.0,0.0,0.0,0.0,0.0,0.0,0.0,0.0,0.0,0.0,0.0,0.0,0.0,0.0,0.0,0.0,0.0,0.0,0.0,0.0,0.0,0.0,0.0,0.0,0.0,0.0,0.0,0.0,0.0,0.0,0.0,0.0,0.0,0.0,0.0,0.0,0.0,0.0,0.0,0.0,0.0,0.0,0.0,0.0,0.0,0.0,0.0,0.0,0.0,0.0,0.0,0.0,0.0,0.0,0.0,0.0,0.0,0.0,0.0,0.0,0.0,0.0,0.0,0.0,0.0,0.0,0.0,0.0,0.0,0.0,0.0,0.0,0.0,0.0,0.0,0.0,0.0,0.0,0.0,0.0,0.0,0.0,0.0,0.0,0.0,0.0,0.0,0.0,0.0,0.0,0.0,0.0,0.0,0.0,0.0,0.0,0.0,0.0,0.0,0.0,0.0,0.0,0.0,0.0,0.0,0.0,0.0,0.0,0.0,0.0,0.0,0.0,0.0,0.0,0.0,0.0,0.0,0.0,0.0,0.0,0.0,0.0,0.0,0.0,0.0,0.0,0.0,0.0,0.0,0.0,0.0,0.0,0.0,0.0,0.0,0.0,0.0,0.0,0.0,0.0,0.0,0.0,0.0,0.0,0.0,0.0,0.0,0.0,0.0,0.0,0.0,0.0,0.0,0.0,0.0,0.0,0.0,0.0,0.0,0.0,0.0,0.0,0.0,0.0,0.0,0.0,0.0,0.0,0.0,0.0,0.0,0.0,0.0,0.0,0.0,0.0,0.0,0.0,0.0,0.0,0.0,0.0,0.0,0.0,0.0,0.0,0.0,0.0,0.0,0.0,0.0,0.0,0.0,0.0,0.0,0.0,0.0,0.0,0.0,0.0,0.0,0.0,0.0,0.0,0.0,0.0,0.0,0.0,0.0,0.0,0.0,0.0,0.0,0.0,0.0,0.0,0.0,0.0,0.0,0.0,0.0,0.0,0.0,0.0,0.0,0.0,0.0,0.0,0.0,0.0,0.0,0.0,0.0,0.0,0.0,0.0,0.0,0.0,0.0,0.0,0.0,0.0,0.0,0.0,0.0,0.0,0.0,0.0,0.0,0.0,0.0,0.0,0.0,0.0,0.0,0.0,0.0,0.0,0.0,0.0,0.0,0.0,0.0,0.0,0.0,0.0,0.0,0.0,0.0,0.0,0.0,0.0,0.0,0.0,0.0,0.0,0.0,0.0,0.0,0.0,0.0,0.0,0.0,0.0,0.0,0.0,0.0,0.0,0.0,0.0,0.0,0.0,0.0,0.0,0.0,0.0,0.0,0.0,0.0,0.0,0.0,0.0,0.0,0.0,0.0,0.0,0.0,0.0,0.0,0.0,0.0,0.0,0.0,0.0,0.0,0.0,0.0,0.0,0.0,0.0,0.0,0.0,0.0,0.0,0.0,0.0,0.0,0.0,0.0,0.0,0.0,0.0,0.0,0.0,0.0,0.0,0.0,0.0,0.0,0.0,0.0,0.0,0.0,0.0,0.0,0.0,0.0,0.0,0.0,0.0,0.0,0.0,0.0,0.0,0.0,0.0,0.0,0.0,0.0,0.0,0.0,0.0,0.0,0.0,0.0,0.0,0.0,0.0,0.0,0.0,0.0,0.0,0.0,0.0,0.0,0.0,0.0,0.0,0.0,0.0,0.0,0.0,0.0,0.0,0.0,0.0,0.0,0.0,0.0,0.0,0.0,0.0,0.0,0.0,0.0,0.0,0.0,0.0,0.0,0.0,0.0,0.0,0.0,0.0,0.0,0.0,0.0,0.0,0.0,0.0,0.0,0.0,0.0,0.0,0.0,0.0,0.0,0.0,0.0,0.0,0.0,0.0,0.0,0.0,0.0,0.0,0.0,0.0,0.0,0.0,0.0,0.0,0.0,0.0,0.0,0.0,0.0,0.0,0.0,0.0,0.0,0.0,0.0,0.0,0.0,0.0,0.0,0.0,0.0,0.0,0.0,0.0,0.0,0.0,0.0,0.0,0.0,0.0,0.0,0.0,0.0,0.0,0.0,0.0,0.0,0.0,0.0,0.0,0.0,0.0,0.0,0.0,0.0,0.0,0.0,0.0,0.0,0.0,0.0,0.0,0.0,0.0,0.0,0.0,0.0,0.0,0.0,0.0,0.0,0.0,0.0,0.0,0.0,0.0,0.0,0.0,0.0,0.0,0.0,0.0,0.0,0.0,0.0,0.0,0.0,0.0,0.0,0.0,0.0,0.0,0.0,0.0,0.0,0.0,0.0,0.0,0.0,0.0,0.0,0.0,0.0,0.0,0.0,0.0,0.0,0.0,0.0,0.0,0.0,0.0,0.0,0.0,0.0,0.0,0.0,0.0,0.0,0.0,0.0,0.0,0.0,0.0,0.0,0.0,0.0,0.0,0.0,0.0,0.0,0.0,0.0,0.0,0.0,0.0,0.0,0.0,0.0,0.0,0.0,0.0,0.0,0.0,0.0,0.0,0.0,0.0,0.0,0.0,0.0,0.0,0.0,0.0,0.0,0.0,0.0,0.0,0.0,0.0,0.0,0.0,0.0,0.0,0.0,0.0,0.0,0.0,0.0,0.0,0.0,0.0,0.0,0.0,0.0,0.0,0.0,0.0,0.0,0.0,0.0,0.0,0.0]}]]]